Time,TemperatureF,DewpointF,PressureIn,WindDirection,WindDirectionDegrees,WindSpeedMPH,WindSpeedGustMPH,Humidity,HourlyPrecipIn,Conditions,Clouds,dailyrainin,SoftwareType,DateUTC
2013-05-12 00:00:00,59.4,45.5,29.26,West,270,6.0,6.0,60,0.00,,,0.00,VWS V14.01,2013-05-12 04:00:00,
2013-05-12 00:01:00,59.4,45.5,29.26,West,270,6.0,6.0,60,0.00,,,0.00,VWS V14.01,2013-05-12 04:01:00,
2013-05-12 00:02:00,59.4,45.9,29.26,NW,315,6.5,6.5,61,0.00,,,0.00,VWS V14.01,2013-05-12 04:02:00,
2013-05-12 00:03:00,59.4,45.5,29.26,WNW,292,6.3,6.3,60,0.00,,,0.00,VWS V14.01,2013-05-12 04:03:00,
2013-05-12 00:04:00,59.4,45.5,29.26,West,270,5.6,5.6,60,0.00,,,0.00,VWS V14.01,2013-05-12 04:04:00,
2013-05-12 00:05:00,59.2,45.8,29.26,West,270,4.3,4.3,61,0.00,,,0.00,VWS V14.01,2013-05-12 04:05:00,
2013-05-12 00:06:00,59.2,45.8,29.26,West,270,4.7,4.7,61,0.00,,,0.00,VWS V14.01,2013-05-12 04:06:00,
2013-05-12 00:07:00,59.2,45.8,29.26,WNW,292,5.6,5.6,61,0.00,,,0.00,VWS V14.01,2013-05-12 04:07:00,
2013-05-12 00:08:00,59.2,45.8,29.26,WNW,292,8.5,8.5,61,0.00,,,0.00,VWS V14.01,2013-05-12 04:08:00,
2013-05-12 00:09:00,59.2,45.8,29.26,West,270,5.4,5.4,61,0.00,,,0.00,VWS V14.01,2013-05-12 04:09:00,
2013-05-12 00:10:00,59.0,45.2,29.26,WNW,292,4.0,4.0,60,0.00,,,0.00,VWS V14.01,2013-05-12 04:10:00,
2013-05-12 00:11:00,59.0,45.6,29.26,West,270,5.4,5.4,61,0.00,,,0.00,VWS V14.01,2013-05-12 04:11:00,
2013-05-12 00:12:00,59.0,45.6,29.26,West,270,7.8,7.8,61,0.00,,,0.00,VWS V14.01,2013-05-12 04:12:00,
2013-05-12 00:13:00,59.0,45.2,29.26,WNW,292,6.7,6.7,60,0.00,,,0.00,VWS V14.01,2013-05-12 04:13:00,
2013-05-12 00:14:00,59.0,44.7,29.26,WSW,248,6.0,6.0,59,0.00,,,0.00,VWS V14.01,2013-05-12 04:14:00,
2013-05-12 00:15:00,59.0,45.2,29.26,NW,315,6.0,6.0,60,0.00,,,0.00,VWS V14.01,2013-05-12 04:15:00,
2013-05-12 00:16:00,59.0,44.7,29.26,WNW,292,3.8,3.8,59,0.00,,,0.00,VWS V14.01,2013-05-12 04:16:00,
2013-05-12 00:17:00,59.0,45.2,29.26,WNW,292,9.6,9.6,60,0.00,,,0.00,VWS V14.01,2013-05-12 04:17:00,
2013-05-12 00:18:00,59.0,45.2,29.26,WNW,292,3.8,3.8,60,0.00,,,0.00,VWS V14.01,2013-05-12 04:18:00,
2013-05-12 00:19:00,59.0,45.2,29.26,West,270,4.0,4.0,60,0.00,,,0.00,VWS V14.01,2013-05-12 04:19:00,
2013-05-12 00:20:00,59.0,45.2,29.26,NW,315,5.6,5.6,60,0.00,,,0.00,VWS V14.01,2013-05-12 04:20:00,
2013-05-12 00:21:00,58.8,45.0,29.26,West,270,4.9,4.9,60,0.00,,,0.00,VWS V14.01,2013-05-12 04:21:00,
2013-05-12 00:22:00,58.8,45.0,29.26,WNW,292,3.8,3.8,60,0.00,,,0.00,VWS V14.01,2013-05-12 04:22:00,
2013-05-12 00:23:00,58.8,45.4,29.26,WNW,292,8.1,8.1,61,0.00,,,0.00,VWS V14.01,2013-05-12 04:23:00,
2013-05-12 00:24:00,58.8,45.0,29.26,WNW,292,4.5,4.5,60,0.00,,,0.00,VWS V14.01,2013-05-12 04:24:00,
2013-05-12 00:25:00,58.8,45.0,29.26,WNW,292,6.5,6.5,60,0.00,,,0.00,VWS V14.01,2013-05-12 04:25:00,
2013-05-12 00:26:00,58.8,45.4,29.26,WSW,248,4.7,4.7,61,0.00,,,0.00,VWS V14.01,2013-05-12 04:26:00,
2013-05-12 00:27:00,58.8,45.0,29.26,WNW,292,10.3,10.3,60,0.00,,,0.00,VWS V14.01,2013-05-12 04:27:00,
2013-05-12 00:28:00,58.8,44.5,29.26,WNW,292,8.5,8.5,59,0.00,,,0.00,VWS V14.01,2013-05-12 04:28:00,
2013-05-12 00:29:00,58.8,44.5,29.26,WNW,292,7.2,7.2,59,0.00,,,0.00,VWS V14.01,2013-05-12 04:29:00,
2013-05-12 00:30:00,58.8,45.0,29.26,West,270,6.3,6.3,60,0.00,,,0.00,VWS V14.01,2013-05-12 04:30:00,
2013-05-12 00:31:00,58.8,45.0,29.26,WNW,292,2.7,2.7,60,0.00,,,0.00,VWS V14.01,2013-05-12 04:31:00,
2013-05-12 00:32:00,58.8,45.0,29.26,SW,225,6.5,6.5,60,0.00,,,0.00,VWS V14.01,2013-05-12 04:32:00,
2013-05-12 00:33:00,58.8,45.0,29.26,WNW,292,7.6,7.6,60,0.00,,,0.00,VWS V14.01,2013-05-12 04:33:00,
2013-05-12 00:34:00,58.8,44.5,29.26,WSW,248,6.7,6.7,59,0.00,,,0.00,VWS V14.01,2013-05-12 04:34:00,
2013-05-12 00:35:00,58.8,44.5,29.26,WNW,292,7.8,7.8,59,0.00,,,0.00,VWS V14.01,2013-05-12 04:35:00,
2013-05-12 00:36:00,58.8,44.5,29.26,West,270,5.8,5.8,59,0.00,,,0.00,VWS V14.01,2013-05-12 04:36:00,
2013-05-12 00:37:00,58.8,44.5,29.26,WNW,292,8.7,8.7,59,0.00,,,0.00,VWS V14.01,2013-05-12 04:37:00,
2013-05-12 00:38:00,58.8,44.5,29.26,West,270,7.4,7.4,59,0.00,,,0.00,VWS V14.01,2013-05-12 04:38:00,
2013-05-12 00:39:00,58.8,44.5,29.26,WSW,248,7.8,7.8,59,0.00,,,0.00,VWS V14.01,2013-05-12 04:39:00,
2013-05-12 00:40:00,58.8,44.5,29.26,WNW,292,4.9,4.9,59,0.00,,,0.00,VWS V14.01,2013-05-12 04:40:00,
2013-05-12 00:41:00,58.8,44.5,29.26,WNW,292,7.2,7.2,59,0.00,,,0.00,VWS V14.01,2013-05-12 04:41:00,
2013-05-12 00:42:00,58.8,44.1,29.26,NW,315,7.6,7.6,58,0.00,,,0.00,VWS V14.01,2013-05-12 04:42:00,
2013-05-12 00:43:00,58.8,44.5,29.26,WNW,292,3.8,3.8,59,0.00,,,0.00,VWS V14.01,2013-05-12 04:43:00,
2013-05-12 00:44:00,58.8,44.5,29.26,WNW,292,5.6,5.6,59,0.00,,,0.00,VWS V14.01,2013-05-12 04:44:00,
2013-05-12 00:45:00,58.8,44.5,29.26,West,270,5.6,5.6,59,0.00,,,0.00,VWS V14.01,2013-05-12 04:45:00,
2013-05-12 00:46:00,58.6,44.8,29.26,NNW,338,6.5,6.5,60,0.00,,,0.00,VWS V14.01,2013-05-12 04:46:00,
2013-05-12 00:47:00,58.6,44.4,29.26,West,270,5.4,5.4,59,0.00,,,0.00,VWS V14.01,2013-05-12 04:47:00,
2013-05-12 00:48:00,58.6,44.4,29.26,West,270,5.6,5.6,59,0.00,,,0.00,VWS V14.01,2013-05-12 04:48:00,
2013-05-12 00:49:00,58.6,44.4,29.26,WNW,292,5.4,5.4,59,0.00,,,0.00,VWS V14.01,2013-05-12 04:49:00,
2013-05-12 00:50:00,58.5,44.2,29.26,West,270,5.6,5.6,59,0.00,,,0.00,VWS V14.01,2013-05-12 04:50:00,
2013-05-12 00:51:00,58.5,44.6,29.26,WNW,292,6.0,6.0,60,0.00,,,0.00,VWS V14.01,2013-05-12 04:51:00,
2013-05-12 00:52:00,58.5,44.6,29.26,West,270,6.9,6.9,60,0.00,,,0.00,VWS V14.01,2013-05-12 04:52:00,
2013-05-12 00:53:00,58.5,44.2,29.26,WNW,292,5.6,5.6,59,0.00,,,0.00,VWS V14.01,2013-05-12 04:53:00,
2013-05-12 00:54:00,58.5,44.6,29.26,WNW,292,6.0,6.0,60,0.00,,,0.00,VWS V14.01,2013-05-12 04:54:00,
2013-05-12 00:55:00,58.5,44.6,29.26,West,270,7.8,7.8,60,0.00,,,0.00,VWS V14.01,2013-05-12 04:55:00,
2013-05-12 00:56:00,58.5,44.6,29.26,West,270,6.3,6.3,60,0.00,,,0.00,VWS V14.01,2013-05-12 04:56:00,
2013-05-12 00:57:00,58.5,44.6,29.26,West,270,7.4,7.4,60,0.00,,,0.00,VWS V14.01,2013-05-12 04:57:00,
2013-05-12 00:58:00,58.3,44.0,29.26,West,270,8.1,8.1,59,0.00,,,0.00,VWS V14.01,2013-05-12 04:58:00,
2013-05-12 00:59:00,58.3,44.5,29.26,WNW,292,6.3,6.3,60,0.00,,,0.00,VWS V14.01,2013-05-12 04:59:00,
2013-05-12 01:00:00,58.3,44.0,29.26,WNW,292,4.9,4.9,59,0.00,,,0.00,VWS V14.01,2013-05-12 05:00:00,
2013-05-12 01:01:00,58.3,44.5,29.26,WNW,292,4.0,4.0,60,0.00,,,0.00,VWS V14.01,2013-05-12 05:01:00,
2013-05-12 01:02:00,58.3,44.0,29.26,WNW,292,7.4,7.4,59,0.00,,,0.00,VWS V14.01,2013-05-12 05:02:00,
2013-05-12 01:03:00,58.3,44.5,29.26,WNW,292,7.4,7.4,60,0.00,,,0.00,VWS V14.01,2013-05-12 05:03:00,
2013-05-12 01:04:00,58.3,44.5,29.26,WNW,292,7.8,7.8,60,0.00,,,0.00,VWS V14.01,2013-05-12 05:04:00,
2013-05-12 01:05:00,58.1,44.3,29.26,NW,315,8.1,8.1,60,0.00,,,0.00,VWS V14.01,2013-05-12 05:05:00,
2013-05-12 01:06:00,58.1,44.3,29.26,West,270,9.8,9.8,60,0.00,,,0.00,VWS V14.01,2013-05-12 05:06:00,
2013-05-12 01:07:00,58.1,44.3,29.26,WNW,292,7.8,7.8,60,0.00,,,0.00,VWS V14.01,2013-05-12 05:07:00,
2013-05-12 01:08:00,58.3,44.5,29.26,WNW,292,7.4,7.4,60,0.00,,,0.00,VWS V14.01,2013-05-12 05:08:00,
2013-05-12 01:09:00,58.3,44.5,29.26,NW,315,5.8,5.8,60,0.00,,,0.00,VWS V14.01,2013-05-12 05:09:00,
2013-05-12 01:10:00,58.3,44.5,29.26,West,270,5.8,5.8,60,0.00,,,0.00,VWS V14.01,2013-05-12 05:10:00,
2013-05-12 01:11:00,58.3,44.5,29.26,WNW,292,5.6,5.6,60,0.00,,,0.00,VWS V14.01,2013-05-12 05:11:00,
2013-05-12 01:12:00,58.3,44.9,29.26,West,270,5.6,5.6,61,0.00,,,0.00,VWS V14.01,2013-05-12 05:12:00,
2013-05-12 01:13:00,58.3,44.9,29.26,WNW,292,4.0,4.0,61,0.00,,,0.00,VWS V14.01,2013-05-12 05:13:00,
2013-05-12 01:14:00,58.3,44.9,29.26,West,270,6.3,6.3,61,0.00,,,0.00,VWS V14.01,2013-05-12 05:14:00,
2013-05-12 01:15:00,58.3,44.9,29.26,West,270,7.6,7.6,61,0.00,,,0.00,VWS V14.01,2013-05-12 05:15:00,
2013-05-12 01:16:00,58.3,44.9,29.26,WNW,292,4.9,4.9,61,0.00,,,0.00,VWS V14.01,2013-05-12 05:16:00,
2013-05-12 01:17:00,58.3,44.9,29.26,WNW,292,6.0,6.0,61,0.00,,,0.00,VWS V14.01,2013-05-12 05:17:00,
2013-05-12 01:18:00,58.3,44.9,29.26,WNW,292,4.5,4.5,61,0.00,,,0.00,VWS V14.01,2013-05-12 05:18:00,
2013-05-12 01:19:00,58.3,44.9,29.26,WNW,292,4.0,4.0,61,0.00,,,0.00,VWS V14.01,2013-05-12 05:19:00,
2013-05-12 01:20:00,58.3,44.9,29.26,WNW,292,6.5,6.5,61,0.00,,,0.00,VWS V14.01,2013-05-12 05:20:00,
2013-05-12 01:21:00,58.3,44.9,29.26,West,270,4.0,4.0,61,0.00,,,0.00,VWS V14.01,2013-05-12 05:21:00,
2013-05-12 01:22:00,58.3,45.3,29.26,WNW,292,3.6,3.6,62,0.00,,,0.00,VWS V14.01,2013-05-12 05:22:00,
2013-05-12 01:23:00,58.3,45.3,29.26,WNW,292,4.5,4.5,62,0.00,,,0.00,VWS V14.01,2013-05-12 05:23:00,
2013-05-12 01:24:00,58.1,45.2,29.26,WNW,292,3.8,3.8,62,0.00,,,0.00,VWS V14.01,2013-05-12 05:24:00,
2013-05-12 01:25:00,58.1,45.2,29.26,NW,315,4.7,4.7,62,0.00,,,0.00,VWS V14.01,2013-05-12 05:25:00,
2013-05-12 01:26:00,58.1,45.2,29.26,WNW,292,3.8,3.8,62,0.00,,,0.00,VWS V14.01,2013-05-12 05:26:00,
2013-05-12 01:27:00,58.1,45.2,29.26,WNW,292,5.6,5.6,62,0.00,,,0.00,VWS V14.01,2013-05-12 05:27:00,
2013-05-12 01:28:00,58.1,45.2,29.26,WNW,292,3.4,3.4,62,0.00,,,0.00,VWS V14.01,2013-05-12 05:28:00,
2013-05-12 01:29:00,58.1,45.2,29.26,West,270,4.0,4.0,62,0.00,,,0.00,VWS V14.01,2013-05-12 05:29:00,
2013-05-12 01:30:00,58.1,45.2,29.26,WNW,292,4.9,4.9,62,0.00,,,0.00,VWS V14.01,2013-05-12 05:30:00,
2013-05-12 01:31:00,58.1,45.2,29.26,WSW,248,4.3,4.3,62,0.00,,,0.00,VWS V14.01,2013-05-12 05:31:00,
2013-05-12 01:32:00,58.1,45.2,29.26,WNW,292,4.0,4.0,62,0.00,,,0.00,VWS V14.01,2013-05-12 05:32:00,
2013-05-12 01:33:00,58.1,45.2,29.26,WSW,248,3.6,3.6,62,0.00,,,0.00,VWS V14.01,2013-05-12 05:33:00,
2013-05-12 01:34:00,58.1,45.2,29.26,WNW,292,7.4,7.4,62,0.00,,,0.00,VWS V14.01,2013-05-12 05:34:00,
2013-05-12 01:35:00,58.1,45.2,29.26,NNW,338,3.8,3.8,62,0.00,,,0.00,VWS V14.01,2013-05-12 05:35:00,
2013-05-12 01:36:00,57.9,45.0,29.26,West,270,5.4,5.4,62,0.00,,,0.00,VWS V14.01,2013-05-12 05:36:00,
2013-05-12 01:37:00,57.9,45.0,29.26,West,270,6.5,6.5,62,0.00,,,0.00,VWS V14.01,2013-05-12 05:37:00,
2013-05-12 01:38:00,57.9,45.0,29.26,WNW,292,9.4,9.4,62,0.00,,,0.00,VWS V14.01,2013-05-12 05:38:00,
2013-05-12 01:39:00,57.9,45.0,29.26,West,270,8.1,8.1,62,0.00,,,0.00,VWS V14.01,2013-05-12 05:39:00,
2013-05-12 01:40:00,57.9,45.0,29.26,WNW,292,5.4,5.4,62,0.00,,,0.00,VWS V14.01,2013-05-12 05:40:00,
2013-05-12 01:41:00,57.9,45.0,29.26,West,270,6.3,6.3,62,0.00,,,0.00,VWS V14.01,2013-05-12 05:41:00,
2013-05-12 01:42:00,57.9,45.0,29.26,WSW,248,8.1,8.1,62,0.00,,,0.00,VWS V14.01,2013-05-12 05:42:00,
2013-05-12 01:43:00,57.9,44.6,29.26,West,270,3.8,3.8,61,0.00,,,0.00,VWS V14.01,2013-05-12 05:43:00,
2013-05-12 01:44:00,57.9,44.6,29.26,WNW,292,4.0,4.0,61,0.00,,,0.00,VWS V14.01,2013-05-12 05:44:00,
2013-05-12 01:45:00,57.9,45.0,29.23,WNW,292,8.7,8.7,62,0.00,,,0.00,VWS V14.01,2013-05-12 05:45:00,
2013-05-12 01:46:00,57.9,44.6,29.23,WSW,248,5.4,5.4,61,0.00,,,0.00,VWS V14.01,2013-05-12 05:46:00,
2013-05-12 01:47:00,57.9,44.6,29.23,WNW,292,7.6,7.6,61,0.00,,,0.00,VWS V14.01,2013-05-12 05:47:00,
2013-05-12 01:48:00,57.9,44.6,29.23,WSW,248,5.4,5.4,61,0.00,,,0.00,VWS V14.01,2013-05-12 05:48:00,
2013-05-12 01:49:00,57.9,44.6,29.23,WNW,292,3.8,3.8,61,0.00,,,0.00,VWS V14.01,2013-05-12 05:49:00,
2013-05-12 01:50:00,57.9,44.6,29.23,West,270,7.4,7.4,61,0.00,,,0.00,VWS V14.01,2013-05-12 05:50:00,
2013-05-12 01:51:00,57.9,44.6,29.23,West,270,5.6,5.6,61,0.00,,,0.00,VWS V14.01,2013-05-12 05:51:00,
2013-05-12 01:52:00,57.9,44.1,29.23,West,270,5.8,5.8,60,0.00,,,0.00,VWS V14.01,2013-05-12 05:52:00,
2013-05-12 01:53:00,57.9,44.6,29.23,NW,315,3.6,3.6,61,0.00,,,0.00,VWS V14.01,2013-05-12 05:53:00,
2013-05-12 01:54:00,57.9,44.6,29.23,NW,315,6.5,6.5,61,0.00,,,0.00,VWS V14.01,2013-05-12 05:54:00,
2013-05-12 01:55:00,57.7,44.0,29.23,West,270,5.6,5.6,60,0.00,,,0.00,VWS V14.01,2013-05-12 05:55:00,
2013-05-12 01:56:00,57.7,44.4,29.23,West,270,4.0,4.0,61,0.00,,,0.00,VWS V14.01,2013-05-12 05:56:00,
2013-05-12 01:57:00,57.7,44.4,29.23,WNW,292,3.4,3.4,61,0.00,,,0.00,VWS V14.01,2013-05-12 05:57:00,
2013-05-12 01:58:00,57.7,44.4,29.23,WNW,292,5.4,5.4,61,0.00,,,0.00,VWS V14.01,2013-05-12 05:58:00,
2013-05-12 01:59:00,57.6,43.8,29.23,WNW,292,5.4,5.4,60,0.00,,,0.00,VWS V14.01,2013-05-12 05:59:00,
2013-05-12 02:00:00,57.6,44.2,29.26,WNW,292,5.4,5.4,61,0.00,,,0.00,VWS V14.01,2013-05-12 06:00:00,
2013-05-12 02:01:00,57.6,43.4,29.26,WNW,292,7.6,7.6,59,0.00,,,0.00,VWS V14.01,2013-05-12 06:01:00,
2013-05-12 02:02:00,57.6,43.4,29.26,WNW,292,4.3,4.3,59,0.00,,,0.00,VWS V14.01,2013-05-12 06:02:00,
2013-05-12 02:03:00,57.6,43.8,29.26,WSW,248,3.4,3.4,60,0.00,,,0.00,VWS V14.01,2013-05-12 06:03:00,
2013-05-12 02:04:00,57.4,43.2,29.26,WNW,292,5.8,5.8,59,0.00,,,0.00,VWS V14.01,2013-05-12 06:04:00,
2013-05-12 02:05:00,57.4,43.2,29.26,WNW,292,4.9,4.9,59,0.00,,,0.00,VWS V14.01,2013-05-12 06:05:00,
2013-05-12 02:06:00,57.4,42.7,29.26,NW,315,5.4,5.4,58,0.00,,,0.00,VWS V14.01,2013-05-12 06:06:00,
2013-05-12 02:07:00,57.4,42.7,29.26,WNW,292,7.2,7.2,58,0.00,,,0.00,VWS V14.01,2013-05-12 06:07:00,
2013-05-12 02:08:00,57.2,42.6,29.26,WNW,292,3.8,3.8,58,0.00,,,0.00,VWS V14.01,2013-05-12 06:08:00,
2013-05-12 02:09:00,57.2,42.1,29.26,West,270,4.5,4.5,57,0.00,,,0.00,VWS V14.01,2013-05-12 06:09:00,
2013-05-12 02:10:00,57.2,42.1,29.26,WNW,292,3.8,3.8,57,0.00,,,0.00,VWS V14.01,2013-05-12 06:10:00,
2013-05-12 02:11:00,57.2,42.1,29.26,WNW,292,6.5,6.5,57,0.00,,,0.00,VWS V14.01,2013-05-12 06:11:00,
2013-05-12 02:12:00,57.0,42.4,29.26,WNW,292,6.0,6.0,58,0.00,,,0.00,VWS V14.01,2013-05-12 06:12:00,
2013-05-12 02:13:00,57.0,42.4,29.26,West,270,4.3,4.3,58,0.00,,,0.00,VWS V14.01,2013-05-12 06:13:00,
2013-05-12 02:14:00,57.0,42.4,29.26,WNW,292,3.6,3.6,58,0.00,,,0.00,VWS V14.01,2013-05-12 06:14:00,
2013-05-12 02:15:00,57.0,42.4,29.26,WNW,292,4.9,4.9,58,0.00,,,0.00,VWS V14.01,2013-05-12 06:15:00,
2013-05-12 02:16:00,57.0,42.0,29.26,West,270,3.8,3.8,57,0.00,,,0.00,VWS V14.01,2013-05-12 06:16:00,
2013-05-12 02:17:00,57.0,42.0,29.26,West,270,3.8,3.8,57,0.00,,,0.00,VWS V14.01,2013-05-12 06:17:00,
2013-05-12 02:18:00,56.8,41.8,29.26,WSW,248,5.6,5.6,57,0.00,,,0.00,VWS V14.01,2013-05-12 06:18:00,
2013-05-12 02:19:00,56.8,41.8,29.26,West,270,4.3,4.3,57,0.00,,,0.00,VWS V14.01,2013-05-12 06:19:00,
2013-05-12 02:20:00,56.7,41.6,29.26,West,270,4.3,4.3,57,0.00,,,0.00,VWS V14.01,2013-05-12 06:20:00,
2013-05-12 02:21:00,56.7,41.6,29.26,West,270,4.0,4.0,57,0.00,,,0.00,VWS V14.01,2013-05-12 06:21:00,
2013-05-12 02:22:00,56.7,41.6,29.26,West,270,4.0,4.0,57,0.00,,,0.00,VWS V14.01,2013-05-12 06:22:00,
2013-05-12 02:23:00,56.7,41.6,29.26,WNW,292,3.6,3.6,57,0.00,,,0.00,VWS V14.01,2013-05-12 06:23:00,
2013-05-12 02:24:00,56.7,41.6,29.26,WSW,248,4.7,4.7,57,0.00,,,0.00,VWS V14.01,2013-05-12 06:24:00,
2013-05-12 02:25:00,56.5,41.5,29.26,West,270,3.8,3.8,57,0.00,,,0.00,VWS V14.01,2013-05-12 06:25:00,
2013-05-12 02:26:00,56.5,41.5,29.26,West,270,3.4,3.4,57,0.00,,,0.00,VWS V14.01,2013-05-12 06:26:00,
2013-05-12 02:27:00,56.5,41.5,29.26,WNW,292,3.8,3.8,57,0.00,,,0.00,VWS V14.01,2013-05-12 06:27:00,
2013-05-12 02:28:00,56.5,41.5,29.26,WNW,292,3.8,3.8,57,0.00,,,0.00,VWS V14.01,2013-05-12 06:28:00,
2013-05-12 02:29:00,56.3,41.3,29.26,West,270,2.9,2.9,57,0.00,,,0.00,VWS V14.01,2013-05-12 06:29:00,
2013-05-12 02:30:00,56.3,41.3,29.26,WNW,292,3.1,3.1,57,0.00,,,0.00,VWS V14.01,2013-05-12 06:30:00,
2013-05-12 02:31:00,56.3,41.3,29.26,WNW,292,3.4,3.4,57,0.00,,,0.00,VWS V14.01,2013-05-12 06:31:00,
2013-05-12 02:32:00,56.3,41.3,29.26,WNW,292,3.8,3.8,57,0.00,,,0.00,VWS V14.01,2013-05-12 06:32:00,
2013-05-12 02:33:00,56.3,41.3,29.26,WNW,292,3.6,3.6,57,0.00,,,0.00,VWS V14.01,2013-05-12 06:33:00,
2013-05-12 02:34:00,56.3,41.3,29.26,NW,315,3.1,3.1,57,0.00,,,0.00,VWS V14.01,2013-05-12 06:34:00,
2013-05-12 02:35:00,56.3,41.7,29.26,WNW,292,3.8,3.8,58,0.00,,,0.00,VWS V14.01,2013-05-12 06:35:00,
2013-05-12 02:36:00,56.1,41.6,29.26,WNW,292,3.4,3.4,58,0.00,,,0.00,VWS V14.01,2013-05-12 06:36:00,
2013-05-12 02:37:00,56.1,41.6,29.26,WNW,292,4.0,4.0,58,0.00,,,0.00,VWS V14.01,2013-05-12 06:37:00,
2013-05-12 02:38:00,56.1,41.6,29.26,WNW,292,4.0,4.0,58,0.00,,,0.00,VWS V14.01,2013-05-12 06:38:00,
2013-05-12 02:39:00,56.1,41.1,29.26,West,270,4.0,4.0,57,0.00,,,0.00,VWS V14.01,2013-05-12 06:39:00,
2013-05-12 02:40:00,55.9,41.4,29.26,WNW,292,3.8,3.8,58,0.00,,,0.00,VWS V14.01,2013-05-12 06:40:00,
2013-05-12 02:41:00,55.9,41.4,29.26,NW,315,3.1,3.1,58,0.00,,,0.00,VWS V14.01,2013-05-12 06:41:00,
2013-05-12 02:42:00,55.9,41.4,29.26,WNW,292,3.4,3.4,58,0.00,,,0.00,VWS V14.01,2013-05-12 06:42:00,
2013-05-12 02:43:00,55.9,41.4,29.26,West,270,4.9,4.9,58,0.00,,,0.00,VWS V14.01,2013-05-12 06:43:00,
2013-05-12 02:44:00,55.9,41.4,29.26,West,270,4.5,4.5,58,0.00,,,0.00,VWS V14.01,2013-05-12 06:44:00,
2013-05-12 02:45:00,55.9,41.4,29.26,West,270,3.8,3.8,58,0.00,,,0.00,VWS V14.01,2013-05-12 06:45:00,
2013-05-12 02:46:00,55.8,41.2,29.26,WNW,292,3.6,3.6,58,0.00,,,0.00,VWS V14.01,2013-05-12 06:46:00,
2013-05-12 02:47:00,55.8,41.2,29.26,WNW,292,3.4,3.4,58,0.00,,,0.00,VWS V14.01,2013-05-12 06:47:00,
2013-05-12 02:48:00,55.8,41.2,29.26,WNW,292,3.4,3.4,58,0.00,,,0.00,VWS V14.01,2013-05-12 06:48:00,
2013-05-12 02:49:00,55.8,41.7,29.26,West,270,3.4,3.4,59,0.00,,,0.00,VWS V14.01,2013-05-12 06:49:00,
2013-05-12 02:50:00,55.6,41.5,29.26,WNW,292,4.0,4.0,59,0.00,,,0.00,VWS V14.01,2013-05-12 06:50:00,
2013-05-12 02:51:00,55.6,41.5,29.26,West,270,2.9,2.9,59,0.00,,,0.00,VWS V14.01,2013-05-12 06:51:00,
2013-05-12 02:52:00,55.6,41.5,29.26,West,270,3.1,3.1,59,0.00,,,0.00,VWS V14.01,2013-05-12 06:52:00,
2013-05-12 02:53:00,55.6,41.5,29.26,WNW,292,6.3,6.3,59,0.00,,,0.00,VWS V14.01,2013-05-12 06:53:00,
2013-05-12 02:54:00,55.4,41.8,29.26,West,270,5.6,5.6,60,0.00,,,0.00,VWS V14.01,2013-05-12 06:54:00,
2013-05-12 02:55:00,55.4,41.8,29.26,WNW,292,2.7,2.7,60,0.00,,,0.00,VWS V14.01,2013-05-12 06:55:00,
2013-05-12 02:56:00,55.4,41.8,29.26,West,270,3.6,3.6,60,0.00,,,0.00,VWS V14.01,2013-05-12 06:56:00,
2013-05-12 02:57:00,55.4,41.8,29.26,WSW,248,6.5,6.5,60,0.00,,,0.00,VWS V14.01,2013-05-12 06:57:00,
2013-05-12 02:58:00,55.4,42.2,29.26,West,270,3.6,3.6,61,0.00,,,0.00,VWS V14.01,2013-05-12 06:58:00,
2013-05-12 02:59:00,55.4,42.2,29.26,WSW,248,3.8,3.8,61,0.00,,,0.00,VWS V14.01,2013-05-12 06:59:00,
2013-05-12 03:00:00,55.2,42.0,29.23,WSW,248,3.8,3.8,61,0.00,,,0.00,VWS V14.01,2013-05-12 07:00:00,
2013-05-12 03:01:00,55.2,42.0,29.23,WSW,248,4.9,4.9,61,0.00,,,0.00,VWS V14.01,2013-05-12 07:01:00,
2013-05-12 03:02:00,55.2,42.0,29.23,WSW,248,2.7,2.7,61,0.00,,,0.00,VWS V14.01,2013-05-12 07:02:00,
2013-05-12 03:03:00,55.2,42.0,29.23,WSW,248,2.9,2.9,61,0.00,,,0.00,VWS V14.01,2013-05-12 07:03:00,
2013-05-12 03:04:00,55.0,42.3,29.23,WSW,248,1.6,1.6,62,0.00,,,0.00,VWS V14.01,2013-05-12 07:04:00,
2013-05-12 03:05:00,55.0,42.3,29.23,WSW,248,1.6,1.6,62,0.00,,,0.00,VWS V14.01,2013-05-12 07:05:00,
2013-05-12 03:06:00,55.0,42.3,29.23,West,270,1.1,1.1,62,0.00,,,0.00,VWS V14.01,2013-05-12 07:06:00,
2013-05-12 03:07:00,54.9,42.1,29.23,WSW,248,2.0,2.0,62,0.00,,,0.00,VWS V14.01,2013-05-12 07:07:00,
2013-05-12 03:08:00,54.9,42.1,29.23,WSW,248,1.1,1.1,62,0.00,,,0.00,VWS V14.01,2013-05-12 07:08:00,
2013-05-12 03:09:00,54.9,42.1,29.23,WSW,248,2.5,2.5,62,0.00,,,0.00,VWS V14.01,2013-05-12 07:09:00,
2013-05-12 03:10:00,54.7,42.3,29.23,SW,225,1.6,1.6,63,0.00,,,0.00,VWS V14.01,2013-05-12 07:10:00,
2013-05-12 03:11:00,54.5,42.2,29.23,West,270,1.1,1.1,63,0.00,,,0.00,VWS V14.01,2013-05-12 07:11:00,
2013-05-12 03:12:00,54.5,42.2,29.23,WSW,248,1.3,1.3,63,0.00,,,0.00,VWS V14.01,2013-05-12 07:12:00,
2013-05-12 03:13:00,54.5,42.2,29.23,WSW,248,1.6,1.6,63,0.00,,,0.00,VWS V14.01,2013-05-12 07:13:00,
2013-05-12 03:14:00,54.5,42.6,29.23,West,270,1.3,1.3,64,0.00,,,0.00,VWS V14.01,2013-05-12 07:14:00,
2013-05-12 03:15:00,54.5,42.6,29.26,West,270,2.0,2.0,64,0.00,,,0.00,VWS V14.01,2013-05-12 07:15:00,
2013-05-12 03:16:00,54.3,42.4,29.26,WSW,248,2.2,2.2,64,0.00,,,0.00,VWS V14.01,2013-05-12 07:16:00,
2013-05-12 03:17:00,54.3,42.4,29.26,West,270,2.5,2.5,64,0.00,,,0.00,VWS V14.01,2013-05-12 07:17:00,
2013-05-12 03:18:00,54.3,42.4,29.26,West,270,3.6,3.6,64,0.00,,,0.00,VWS V14.01,2013-05-12 07:18:00,
2013-05-12 03:19:00,54.1,42.2,29.26,West,270,3.1,3.1,64,0.00,,,0.00,VWS V14.01,2013-05-12 07:19:00,
2013-05-12 03:20:00,54.1,42.2,29.26,West,270,3.1,3.1,64,0.00,,,0.00,VWS V14.01,2013-05-12 07:20:00,
2013-05-12 03:21:00,54.0,42.1,29.26,West,270,2.5,2.5,64,0.00,,,0.00,VWS V14.01,2013-05-12 07:21:00,
2013-05-12 03:22:00,54.0,42.1,29.26,West,270,3.1,3.1,64,0.00,,,0.00,VWS V14.01,2013-05-12 07:22:00,
2013-05-12 03:23:00,54.0,42.1,29.26,WSW,248,3.1,3.1,64,0.00,,,0.00,VWS V14.01,2013-05-12 07:23:00,
2013-05-12 03:24:00,54.0,42.1,29.26,WSW,248,3.6,3.6,64,0.00,,,0.00,VWS V14.01,2013-05-12 07:24:00,
2013-05-12 03:25:00,54.0,42.1,29.26,West,270,3.6,3.6,64,0.00,,,0.00,VWS V14.01,2013-05-12 07:25:00,
2013-05-12 03:26:00,53.8,41.9,29.26,WSW,248,3.1,3.1,64,0.00,,,0.00,VWS V14.01,2013-05-12 07:26:00,
2013-05-12 03:27:00,53.8,41.9,29.26,West,270,3.4,3.4,64,0.00,,,0.00,VWS V14.01,2013-05-12 07:27:00,
2013-05-12 03:28:00,53.8,41.9,29.26,WSW,248,4.0,4.0,64,0.00,,,0.00,VWS V14.01,2013-05-12 07:28:00,
2013-05-12 03:29:00,53.6,41.7,29.26,WSW,248,2.5,2.5,64,0.00,,,0.00,VWS V14.01,2013-05-12 07:29:00,
2013-05-12 03:30:00,53.6,41.7,29.26,WSW,248,2.5,2.5,64,0.00,,,0.00,VWS V14.01,2013-05-12 07:30:00,
2013-05-12 03:31:00,53.6,41.7,29.26,WSW,248,3.4,3.4,64,0.00,,,0.00,VWS V14.01,2013-05-12 07:31:00,
2013-05-12 03:32:00,53.6,41.7,29.26,West,270,2.9,2.9,64,0.00,,,0.00,VWS V14.01,2013-05-12 07:32:00,
2013-05-12 03:33:00,53.6,41.7,29.26,WSW,248,2.7,2.7,64,0.00,,,0.00,VWS V14.01,2013-05-12 07:33:00,
2013-05-12 03:34:00,53.6,41.7,29.26,WSW,248,3.4,3.4,64,0.00,,,0.00,VWS V14.01,2013-05-12 07:34:00,
2013-05-12 03:35:00,53.4,42.0,29.26,WSW,248,4.9,4.9,65,0.00,,,0.00,VWS V14.01,2013-05-12 07:35:00,
2013-05-12 03:36:00,53.4,42.0,29.26,WSW,248,4.9,4.9,65,0.00,,,0.00,VWS V14.01,2013-05-12 07:36:00,
2013-05-12 03:37:00,53.4,42.0,29.26,WSW,248,5.8,5.8,65,0.00,,,0.00,VWS V14.01,2013-05-12 07:37:00,
2013-05-12 03:38:00,53.4,42.0,29.26,West,270,4.9,4.9,65,0.00,,,0.00,VWS V14.01,2013-05-12 07:38:00,
2013-05-12 03:39:00,53.4,42.0,29.26,WSW,248,4.3,4.3,65,0.00,,,0.00,VWS V14.01,2013-05-12 07:39:00,
2013-05-12 03:40:00,53.4,42.0,29.26,West,270,5.6,5.6,65,0.00,,,0.00,VWS V14.01,2013-05-12 07:40:00,
2013-05-12 03:41:00,53.4,42.0,29.26,West,270,5.4,5.4,65,0.00,,,0.00,VWS V14.01,2013-05-12 07:41:00,
2013-05-12 03:42:00,53.4,42.0,29.26,WSW,248,4.0,4.0,65,0.00,,,0.00,VWS V14.01,2013-05-12 07:42:00,
2013-05-12 03:43:00,53.2,41.8,29.26,West,270,4.0,4.0,65,0.00,,,0.00,VWS V14.01,2013-05-12 07:43:00,
2013-05-12 03:44:00,53.2,41.8,29.26,West,270,4.3,4.3,65,0.00,,,0.00,VWS V14.01,2013-05-12 07:44:00,
2013-05-12 03:45:00,53.2,41.8,29.26,WSW,248,3.1,3.1,65,0.00,,,0.00,VWS V14.01,2013-05-12 07:45:00,
2013-05-12 03:46:00,53.2,41.8,29.26,West,270,3.1,3.1,65,0.00,,,0.00,VWS V14.01,2013-05-12 07:46:00,
2013-05-12 03:47:00,53.2,42.2,29.26,West,270,2.7,2.7,66,0.00,,,0.00,VWS V14.01,2013-05-12 07:47:00,
2013-05-12 03:48:00,53.2,42.2,29.26,West,270,4.9,4.9,66,0.00,,,0.00,VWS V14.01,2013-05-12 07:48:00,
2013-05-12 03:49:00,53.2,42.2,29.26,West,270,3.4,3.4,66,0.00,,,0.00,VWS V14.01,2013-05-12 07:49:00,
2013-05-12 03:50:00,53.2,42.2,29.26,West,270,2.9,2.9,66,0.00,,,0.00,VWS V14.01,2013-05-12 07:50:00,
2013-05-12 03:51:00,53.2,42.2,29.26,WNW,292,3.1,3.1,66,0.00,,,0.00,VWS V14.01,2013-05-12 07:51:00,
2013-05-12 03:52:00,53.2,42.2,29.26,West,270,2.9,2.9,66,0.00,,,0.00,VWS V14.01,2013-05-12 07:52:00,
2013-05-12 03:53:00,53.2,42.2,29.26,West,270,3.4,3.4,66,0.00,,,0.00,VWS V14.01,2013-05-12 07:53:00,
2013-05-12 03:54:00,53.2,42.2,29.26,West,270,4.9,4.9,66,0.00,,,0.00,VWS V14.01,2013-05-12 07:54:00,
2013-05-12 03:55:00,53.2,42.2,29.26,West,270,3.6,3.6,66,0.00,,,0.00,VWS V14.01,2013-05-12 07:55:00,
2013-05-12 03:56:00,53.2,42.2,29.26,WSW,248,3.4,3.4,66,0.00,,,0.00,VWS V14.01,2013-05-12 07:56:00,
2013-05-12 03:57:00,53.1,42.0,29.26,West,270,4.7,4.7,66,0.00,,,0.00,VWS V14.01,2013-05-12 07:57:00,
2013-05-12 03:58:00,53.1,42.0,29.26,West,270,2.9,2.9,66,0.00,,,0.00,VWS V14.01,2013-05-12 07:58:00,
2013-05-12 03:59:00,53.1,42.0,29.26,WSW,248,3.6,3.6,66,0.00,,,0.00,VWS V14.01,2013-05-12 07:59:00,
2013-05-12 04:00:00,53.1,42.0,29.26,WSW,248,3.1,3.1,66,0.00,,,0.00,VWS V14.01,2013-05-12 08:00:00,
2013-05-12 04:01:00,53.1,42.0,29.26,West,270,3.8,3.8,66,0.00,,,0.00,VWS V14.01,2013-05-12 08:01:00,
2013-05-12 04:02:00,53.1,42.4,29.26,West,270,3.4,3.4,67,0.00,,,0.00,VWS V14.01,2013-05-12 08:02:00,
2013-05-12 04:03:00,53.1,42.4,29.26,West,270,4.0,4.0,67,0.00,,,0.00,VWS V14.01,2013-05-12 08:03:00,
2013-05-12 04:04:00,53.1,42.4,29.26,West,270,3.4,3.4,67,0.00,,,0.00,VWS V14.01,2013-05-12 08:04:00,
2013-05-12 04:05:00,53.1,42.4,29.26,WSW,248,4.0,4.0,67,0.00,,,0.00,VWS V14.01,2013-05-12 08:05:00,
2013-05-12 04:06:00,53.1,42.4,29.26,West,270,3.6,3.6,67,0.00,,,0.00,VWS V14.01,2013-05-12 08:06:00,
2013-05-12 04:07:00,53.1,42.4,29.26,WSW,248,5.8,5.8,67,0.00,,,0.00,VWS V14.01,2013-05-12 08:07:00,
2013-05-12 04:08:00,53.1,42.4,29.26,WSW,248,3.4,3.4,67,0.00,,,0.00,VWS V14.01,2013-05-12 08:08:00,
2013-05-12 04:09:00,53.1,42.8,29.26,WSW,248,1.3,1.3,68,0.00,,,0.00,VWS V14.01,2013-05-12 08:09:00,
2013-05-12 04:10:00,53.1,42.4,29.26,West,270,1.1,1.1,67,0.00,,,0.00,VWS V14.01,2013-05-12 08:10:00,
2013-05-12 04:11:00,53.1,42.4,29.26,WSW,248,1.1,1.1,67,0.00,,,0.00,VWS V14.01,2013-05-12 08:11:00,
2013-05-12 04:12:00,53.1,42.4,29.26,WSW,248,1.3,1.3,67,0.00,,,0.00,VWS V14.01,2013-05-12 08:12:00,
2013-05-12 04:13:00,53.1,42.4,29.26,SW,225,2.0,2.0,67,0.00,,,0.00,VWS V14.01,2013-05-12 08:13:00,
2013-05-12 04:14:00,52.9,42.6,29.26,SW,225,0.9,0.9,68,0.00,,,0.00,VWS V14.01,2013-05-12 08:14:00,
2013-05-12 04:15:00,52.9,42.6,29.26,West,270,0.0,0.0,68,0.00,,,0.00,VWS V14.01,2013-05-12 08:15:00,
2013-05-12 04:16:00,52.9,42.6,29.26,West,270,0.0,0.0,68,0.00,,,0.00,VWS V14.01,2013-05-12 08:16:00,
2013-05-12 04:17:00,52.9,42.6,29.26,West,270,1.6,1.6,68,0.00,,,0.00,VWS V14.01,2013-05-12 08:17:00,
2013-05-12 04:18:00,52.9,42.6,29.26,West,270,0.0,0.0,68,0.00,,,0.00,VWS V14.01,2013-05-12 08:18:00,
2013-05-12 04:19:00,52.7,42.5,29.26,West,270,0.0,0.0,68,0.00,,,0.00,VWS V14.01,2013-05-12 08:19:00,
2013-05-12 04:20:00,52.7,42.5,29.26,WSW,248,1.3,1.3,68,0.00,,,0.00,VWS V14.01,2013-05-12 08:20:00,
2013-05-12 04:21:00,52.7,42.5,29.26,WSW,248,2.5,2.5,68,0.00,,,0.00,VWS V14.01,2013-05-12 08:21:00,
2013-05-12 04:22:00,52.5,42.3,29.26,West,270,1.3,1.3,68,0.00,,,0.00,VWS V14.01,2013-05-12 08:22:00,
2013-05-12 04:23:00,52.5,42.3,29.26,WSW,248,2.7,2.7,68,0.00,,,0.00,VWS V14.01,2013-05-12 08:23:00,
2013-05-12 04:24:00,52.5,42.3,29.26,WSW,248,2.9,2.9,68,0.00,,,0.00,VWS V14.01,2013-05-12 08:24:00,
2013-05-12 04:25:00,52.3,42.1,29.26,WSW,248,5.8,5.8,68,0.00,,,0.00,VWS V14.01,2013-05-12 08:25:00,
2013-05-12 04:26:00,52.3,42.5,29.26,WSW,248,3.8,3.8,69,0.00,,,0.00,VWS V14.01,2013-05-12 08:26:00,
2013-05-12 04:27:00,52.3,42.5,29.26,WSW,248,3.8,3.8,69,0.00,,,0.00,VWS V14.01,2013-05-12 08:27:00,
2013-05-12 04:28:00,52.3,42.5,29.26,West,270,6.3,6.3,69,0.00,,,0.00,VWS V14.01,2013-05-12 08:28:00,
2013-05-12 04:29:00,52.3,42.5,29.26,WSW,248,5.8,5.8,69,0.00,,,0.00,VWS V14.01,2013-05-12 08:29:00,
2013-05-12 04:30:00,52.3,42.9,29.26,West,270,4.9,4.9,70,0.00,,,0.00,VWS V14.01,2013-05-12 08:30:00,
2013-05-12 04:31:00,52.3,42.5,29.26,West,270,5.6,5.6,69,0.00,,,0.00,VWS V14.01,2013-05-12 08:31:00,
2013-05-12 04:32:00,52.3,42.5,29.26,West,270,6.0,6.0,69,0.00,,,0.00,VWS V14.01,2013-05-12 08:32:00,
2013-05-12 04:33:00,52.3,42.9,29.26,WNW,292,3.4,3.4,70,0.00,,,0.00,VWS V14.01,2013-05-12 08:33:00,
2013-05-12 04:34:00,52.3,42.5,29.26,West,270,6.5,6.5,69,0.00,,,0.00,VWS V14.01,2013-05-12 08:34:00,
2013-05-12 04:35:00,52.5,42.7,29.26,West,270,3.8,3.8,69,0.00,,,0.00,VWS V14.01,2013-05-12 08:35:00,
2013-05-12 04:36:00,52.5,42.7,29.26,WNW,292,4.0,4.0,69,0.00,,,0.00,VWS V14.01,2013-05-12 08:36:00,
2013-05-12 04:37:00,52.5,42.7,29.26,WNW,292,6.0,6.0,69,0.00,,,0.00,VWS V14.01,2013-05-12 08:37:00,
2013-05-12 04:38:00,52.5,43.0,29.26,West,270,4.3,4.3,70,0.00,,,0.00,VWS V14.01,2013-05-12 08:38:00,
2013-05-12 04:39:00,52.5,43.0,29.26,West,270,4.0,4.0,70,0.00,,,0.00,VWS V14.01,2013-05-12 08:39:00,
2013-05-12 04:40:00,52.5,43.0,29.26,West,270,4.0,4.0,70,0.00,,,0.00,VWS V14.01,2013-05-12 08:40:00,
2013-05-12 04:41:00,52.5,43.0,29.26,WNW,292,3.6,3.6,70,0.00,,,0.00,VWS V14.01,2013-05-12 08:41:00,
2013-05-12 04:42:00,52.7,43.2,29.26,West,270,4.3,4.3,70,0.00,,,0.00,VWS V14.01,2013-05-12 08:42:00,
2013-05-12 04:43:00,52.7,43.2,29.26,West,270,3.6,3.6,70,0.00,,,0.00,VWS V14.01,2013-05-12 08:43:00,
2013-05-12 04:44:00,52.7,43.2,29.26,West,270,4.3,4.3,70,0.00,,,0.00,VWS V14.01,2013-05-12 08:44:00,
2013-05-12 04:45:00,52.7,43.2,29.26,West,270,5.6,5.6,70,0.00,,,0.00,VWS V14.01,2013-05-12 08:45:00,
2013-05-12 04:46:00,52.7,43.2,29.26,WSW,248,4.7,4.7,70,0.00,,,0.00,VWS V14.01,2013-05-12 08:46:00,
2013-05-12 04:47:00,52.5,43.0,29.26,WSW,248,7.2,7.2,70,0.00,,,0.00,VWS V14.01,2013-05-12 08:47:00,
2013-05-12 04:48:00,52.5,43.0,29.26,WSW,248,3.6,3.6,70,0.00,,,0.00,VWS V14.01,2013-05-12 08:48:00,
2013-05-12 04:49:00,52.5,43.0,29.26,WSW,248,6.0,6.0,70,0.00,,,0.00,VWS V14.01,2013-05-12 08:49:00,
2013-05-12 04:50:00,52.5,43.0,29.26,WSW,248,4.0,4.0,70,0.00,,,0.00,VWS V14.01,2013-05-12 08:50:00,
2013-05-12 04:51:00,52.5,43.0,29.26,West,270,4.3,4.3,70,0.00,,,0.00,VWS V14.01,2013-05-12 08:51:00,
2013-05-12 04:52:00,52.7,43.2,29.26,WSW,248,3.4,3.4,70,0.00,,,0.00,VWS V14.01,2013-05-12 08:52:00,
2013-05-12 04:53:00,52.7,43.2,29.26,WSW,248,4.7,4.7,70,0.00,,,0.00,VWS V14.01,2013-05-12 08:53:00,
2013-05-12 04:54:00,52.7,43.2,29.26,WSW,248,3.6,3.6,70,0.00,,,0.00,VWS V14.01,2013-05-12 08:54:00,
2013-05-12 04:55:00,52.5,43.0,29.26,WSW,248,3.8,3.8,70,0.00,,,0.00,VWS V14.01,2013-05-12 08:55:00,
2013-05-12 04:56:00,52.5,43.0,29.26,West,270,2.5,2.5,70,0.00,,,0.00,VWS V14.01,2013-05-12 08:56:00,
2013-05-12 04:57:00,52.7,43.2,29.26,WSW,248,2.7,2.7,70,0.00,,,0.00,VWS V14.01,2013-05-12 08:57:00,
2013-05-12 04:58:00,52.7,43.2,29.26,WSW,248,3.6,3.6,70,0.00,,,0.00,VWS V14.01,2013-05-12 08:58:00,
2013-05-12 04:59:00,52.7,43.6,29.26,WSW,248,2.9,2.9,71,0.00,,,0.00,VWS V14.01,2013-05-12 08:59:00,
2013-05-12 05:00:00,52.7,43.6,29.26,WSW,248,2.2,2.2,71,0.00,,,0.00,VWS V14.01,2013-05-12 09:00:00,
2013-05-12 05:01:00,52.7,43.6,29.26,WSW,248,4.0,4.0,71,0.00,,,0.00,VWS V14.01,2013-05-12 09:01:00,
2013-05-12 05:02:00,52.7,43.6,29.26,WSW,248,2.9,2.9,71,0.00,,,0.00,VWS V14.01,2013-05-12 09:02:00,
2013-05-12 05:03:00,52.7,43.6,29.26,West,270,2.5,2.5,71,0.00,,,0.00,VWS V14.01,2013-05-12 09:03:00,
2013-05-12 05:04:00,52.7,43.6,29.26,WSW,248,2.0,2.0,71,0.00,,,0.00,VWS V14.01,2013-05-12 09:04:00,
2013-05-12 05:05:00,52.7,43.6,29.26,West,270,0.0,0.0,71,0.00,,,0.00,VWS V14.01,2013-05-12 09:05:00,
2013-05-12 05:06:00,52.7,43.6,29.26,WSW,248,2.5,2.5,71,0.00,,,0.00,VWS V14.01,2013-05-12 09:06:00,
2013-05-12 05:07:00,52.7,43.6,29.26,WNW,292,3.6,3.6,71,0.00,,,0.00,VWS V14.01,2013-05-12 09:07:00,
2013-05-12 05:08:00,52.7,43.6,29.26,West,270,2.9,2.9,71,0.00,,,0.00,VWS V14.01,2013-05-12 09:08:00,
2013-05-12 05:09:00,52.9,43.8,29.26,WNW,292,3.4,3.4,71,0.00,,,0.00,VWS V14.01,2013-05-12 09:09:00,
2013-05-12 05:10:00,52.9,43.8,29.26,West,270,3.1,3.1,71,0.00,,,0.00,VWS V14.01,2013-05-12 09:10:00,
2013-05-12 05:11:00,52.9,43.8,29.26,West,270,4.0,4.0,71,0.00,,,0.00,VWS V14.01,2013-05-12 09:11:00,
2013-05-12 05:12:00,52.9,43.8,29.26,WSW,248,3.4,3.4,71,0.00,,,0.00,VWS V14.01,2013-05-12 09:12:00,
2013-05-12 05:13:00,52.9,43.8,29.26,WSW,248,2.9,2.9,71,0.00,,,0.00,VWS V14.01,2013-05-12 09:13:00,
2013-05-12 05:14:00,52.9,43.8,29.26,West,270,2.0,2.0,71,0.00,,,0.00,VWS V14.01,2013-05-12 09:14:00,
2013-05-12 05:15:00,52.9,43.8,29.26,WNW,292,2.0,2.0,71,0.00,,,0.00,VWS V14.01,2013-05-12 09:15:00,
2013-05-12 05:16:00,52.9,43.8,29.26,WNW,292,4.0,4.0,71,0.00,,,0.00,VWS V14.01,2013-05-12 09:16:00,
2013-05-12 05:17:00,52.9,43.8,29.26,West,270,1.3,1.3,71,0.00,,,0.00,VWS V14.01,2013-05-12 09:17:00,
2013-05-12 05:18:00,53.1,43.9,29.26,WSW,248,3.1,3.1,71,0.00,,,0.00,VWS V14.01,2013-05-12 09:18:00,
2013-05-12 05:19:00,53.1,43.9,29.26,WSW,248,2.0,2.0,71,0.00,,,0.00,VWS V14.01,2013-05-12 09:19:00,
2013-05-12 05:20:00,53.1,43.9,29.26,West,270,2.5,2.5,71,0.00,,,0.00,VWS V14.01,2013-05-12 09:20:00,
2013-05-12 05:21:00,53.1,43.9,29.26,WSW,248,0.0,0.0,71,0.00,,,0.00,VWS V14.01,2013-05-12 09:21:00,
2013-05-12 05:22:00,53.1,43.9,29.26,West,270,2.5,2.5,71,0.00,,,0.00,VWS V14.01,2013-05-12 09:22:00,
2013-05-12 05:23:00,53.1,43.9,29.26,WSW,248,3.6,3.6,71,0.00,,,0.00,VWS V14.01,2013-05-12 09:23:00,
2013-05-12 05:24:00,53.1,43.9,29.26,West,270,1.6,1.6,71,0.00,,,0.00,VWS V14.01,2013-05-12 09:24:00,
2013-05-12 05:25:00,53.1,43.9,29.26,West,270,0.0,0.0,71,0.00,,,0.00,VWS V14.01,2013-05-12 09:25:00,
2013-05-12 05:26:00,53.1,43.9,29.26,West,270,0.0,0.0,71,0.00,,,0.00,VWS V14.01,2013-05-12 09:26:00,
2013-05-12 05:27:00,53.1,43.9,29.26,WSW,248,0.0,0.0,71,0.00,,,0.00,VWS V14.01,2013-05-12 09:27:00,
2013-05-12 05:28:00,53.1,43.9,29.26,WNW,292,0.0,0.0,71,0.00,,,0.00,VWS V14.01,2013-05-12 09:28:00,
2013-05-12 05:29:00,53.1,43.9,29.26,West,270,0.0,0.0,71,0.00,,,0.00,VWS V14.01,2013-05-12 09:29:00,
2013-05-12 05:30:00,53.1,44.3,29.26,West,270,1.3,1.3,72,0.00,,,0.00,VWS V14.01,2013-05-12 09:30:00,
2013-05-12 05:31:00,53.1,44.3,29.26,WNW,292,0.0,0.0,72,0.00,,,0.00,VWS V14.01,2013-05-12 09:31:00,
2013-05-12 05:32:00,53.1,44.3,29.26,West,270,0.0,0.0,72,0.00,,,0.00,VWS V14.01,2013-05-12 09:32:00,
2013-05-12 05:33:00,53.1,44.3,29.26,WNW,292,0.0,0.0,72,0.00,,,0.00,VWS V14.01,2013-05-12 09:33:00,
2013-05-12 05:34:00,53.1,44.3,29.26,West,270,0.9,0.9,72,0.00,,,0.00,VWS V14.01,2013-05-12 09:34:00,
2013-05-12 05:35:00,53.1,44.3,29.26,West,270,0.0,0.0,72,0.00,,,0.00,VWS V14.01,2013-05-12 09:35:00,
2013-05-12 05:36:00,53.1,44.3,29.26,West,270,0.9,0.9,72,0.00,,,0.00,VWS V14.01,2013-05-12 09:36:00,
2013-05-12 05:37:00,53.1,44.3,29.26,WSW,248,2.0,2.0,72,0.00,,,0.00,VWS V14.01,2013-05-12 09:37:00,
2013-05-12 05:38:00,53.1,44.3,29.26,WSW,248,1.3,1.3,72,0.00,,,0.00,VWS V14.01,2013-05-12 09:38:00,
2013-05-12 05:39:00,53.1,44.3,29.26,West,270,2.7,2.7,72,0.00,,,0.00,VWS V14.01,2013-05-12 09:39:00,
2013-05-12 05:40:00,53.1,44.3,29.26,West,270,1.3,1.3,72,0.00,,,0.00,VWS V14.01,2013-05-12 09:40:00,
2013-05-12 05:41:00,53.1,44.3,29.26,West,270,0.0,0.0,72,0.00,,,0.00,VWS V14.01,2013-05-12 09:41:00,
2013-05-12 05:42:00,53.1,44.3,29.26,West,270,1.6,1.6,72,0.00,,,0.00,VWS V14.01,2013-05-12 09:42:00,
2013-05-12 05:43:00,53.1,44.3,29.26,West,270,0.0,0.0,72,0.00,,,0.00,VWS V14.01,2013-05-12 09:43:00,
2013-05-12 05:44:00,53.1,44.3,29.26,West,270,0.0,0.0,72,0.00,,,0.00,VWS V14.01,2013-05-12 09:44:00,
2013-05-12 05:45:00,53.1,44.3,29.26,SW,225,0.0,0.0,72,0.00,,,0.00,VWS V14.01,2013-05-12 09:45:00,
2013-05-12 05:46:00,53.1,44.3,29.26,SSW,202,0.0,0.0,72,0.00,,,0.00,VWS V14.01,2013-05-12 09:46:00,
2013-05-12 05:47:00,53.1,44.3,29.26,SSW,202,0.9,0.9,72,0.00,,,0.00,VWS V14.01,2013-05-12 09:47:00,
2013-05-12 05:48:00,53.1,44.7,29.26,SSW,202,1.3,1.3,73,0.00,,,0.00,VWS V14.01,2013-05-12 09:48:00,
2013-05-12 05:49:00,53.1,44.7,29.26,SSW,202,0.0,0.0,73,0.00,,,0.00,VWS V14.01,2013-05-12 09:49:00,
2013-05-12 05:50:00,53.1,44.7,29.26,SSW,202,0.9,0.9,73,0.00,,,0.00,VWS V14.01,2013-05-12 09:50:00,
2013-05-12 05:51:00,53.1,44.7,29.26,SSW,202,0.0,0.0,73,0.00,,,0.00,VWS V14.01,2013-05-12 09:51:00,
2013-05-12 05:52:00,53.1,44.7,29.26,SSW,202,0.0,0.0,73,0.00,,,0.00,VWS V14.01,2013-05-12 09:52:00,
2013-05-12 05:53:00,53.1,44.7,29.26,SSW,202,2.0,2.0,73,0.00,,,0.00,VWS V14.01,2013-05-12 09:53:00,
2013-05-12 05:54:00,53.1,45.0,29.26,SSW,202,0.0,0.0,74,0.00,,,0.00,VWS V14.01,2013-05-12 09:54:00,
2013-05-12 05:55:00,53.1,45.0,29.26,SSW,202,0.0,0.0,74,0.00,,,0.00,VWS V14.01,2013-05-12 09:55:00,
2013-05-12 05:56:00,53.1,45.0,29.26,SSW,202,1.3,1.3,74,0.00,,,0.00,VWS V14.01,2013-05-12 09:56:00,
2013-05-12 05:57:00,53.1,45.0,29.26,SSW,202,1.3,1.3,74,0.00,,,0.00,VWS V14.01,2013-05-12 09:57:00,
2013-05-12 05:58:00,53.1,45.0,29.26,South,180,0.0,0.0,74,0.00,,,0.00,VWS V14.01,2013-05-12 09:58:00,
2013-05-12 05:59:00,53.2,45.2,29.26,WSW,248,1.6,1.6,74,0.00,,,0.00,VWS V14.01,2013-05-12 09:59:00,
2013-05-12 06:00:00,53.2,45.2,29.26,WSW,248,1.1,1.1,74,0.00,,,0.00,VWS V14.01,2013-05-12 10:00:00,
2013-05-12 06:01:00,53.2,45.2,29.26,WSW,248,0.0,0.0,74,0.00,,,0.00,VWS V14.01,2013-05-12 10:01:00,
2013-05-12 06:02:00,53.2,45.2,29.26,WSW,248,0.0,0.0,74,0.00,,,0.00,VWS V14.01,2013-05-12 10:02:00,
2013-05-12 06:03:00,53.2,45.2,29.26,WSW,248,0.0,0.0,74,0.00,,,0.00,VWS V14.01,2013-05-12 10:03:00,
2013-05-12 06:04:00,53.2,45.2,29.26,WSW,248,0.0,0.0,74,0.00,,,0.00,VWS V14.01,2013-05-12 10:04:00,
2013-05-12 06:05:00,53.2,45.2,29.26,WSW,248,1.3,1.3,74,0.00,,,0.00,VWS V14.01,2013-05-12 10:05:00,
2013-05-12 06:06:00,53.4,45.3,29.26,WSW,248,2.0,2.0,74,0.00,,,0.00,VWS V14.01,2013-05-12 10:06:00,
2013-05-12 06:07:00,53.4,45.3,29.26,SW,225,1.6,1.6,74,0.00,,,0.00,VWS V14.01,2013-05-12 10:07:00,
2013-05-12 06:08:00,53.4,45.3,29.26,SW,225,0.0,0.0,74,0.00,,,0.00,VWS V14.01,2013-05-12 10:08:00,
2013-05-12 06:09:00,53.4,45.3,29.26,WSW,248,1.3,1.3,74,0.00,,,0.00,VWS V14.01,2013-05-12 10:09:00,
2013-05-12 06:10:00,53.4,45.3,29.26,WSW,248,2.7,2.7,74,0.00,,,0.00,VWS V14.01,2013-05-12 10:10:00,
2013-05-12 06:11:00,53.4,45.3,29.26,SSW,202,2.2,2.2,74,0.00,,,0.00,VWS V14.01,2013-05-12 10:11:00,
2013-05-12 06:12:00,53.4,45.0,29.26,SSW,202,1.1,1.1,73,0.00,,,0.00,VWS V14.01,2013-05-12 10:12:00,
2013-05-12 06:13:00,53.4,45.0,29.26,ESE,112,3.8,3.8,73,0.00,,,0.00,VWS V14.01,2013-05-12 10:13:00,
2013-05-12 06:14:00,53.4,45.0,29.26,West,270,2.7,2.7,73,0.00,,,0.00,VWS V14.01,2013-05-12 10:14:00,
2013-05-12 06:15:00,53.4,45.0,29.26,WSW,248,3.1,3.1,73,0.00,,,0.00,VWS V14.01,2013-05-12 10:15:00,
2013-05-12 06:16:00,53.4,45.0,29.26,WSW,248,2.9,2.9,73,0.00,,,0.00,VWS V14.01,2013-05-12 10:16:00,
2013-05-12 06:17:00,53.4,45.0,29.26,WSW,248,3.1,3.1,73,0.00,,,0.00,VWS V14.01,2013-05-12 10:17:00,
2013-05-12 06:18:00,53.4,45.3,29.26,WSW,248,6.7,6.7,74,0.00,,,0.00,VWS V14.01,2013-05-12 10:18:00,
2013-05-12 06:19:00,53.4,45.3,29.26,West,270,3.8,3.8,74,0.00,,,0.00,VWS V14.01,2013-05-12 10:19:00,
2013-05-12 06:20:00,53.6,45.2,29.26,WSW,248,3.6,3.6,73,0.00,,,0.00,VWS V14.01,2013-05-12 10:20:00,
2013-05-12 06:21:00,53.6,45.2,29.26,WNW,292,4.3,4.3,73,0.00,,,0.00,VWS V14.01,2013-05-12 10:21:00,
2013-05-12 06:22:00,53.6,45.2,29.26,West,270,6.5,6.5,73,0.00,,,0.00,VWS V14.01,2013-05-12 10:22:00,
2013-05-12 06:23:00,53.6,45.2,29.26,WNW,292,3.4,3.4,73,0.00,,,0.00,VWS V14.01,2013-05-12 10:23:00,
2013-05-12 06:24:00,53.6,45.2,29.26,West,270,5.4,5.4,73,0.00,,,0.00,VWS V14.01,2013-05-12 10:24:00,
2013-05-12 06:25:00,53.6,45.2,29.26,West,270,3.8,3.8,73,0.00,,,0.00,VWS V14.01,2013-05-12 10:25:00,
2013-05-12 06:26:00,53.6,45.2,29.26,West,270,3.1,3.1,73,0.00,,,0.00,VWS V14.01,2013-05-12 10:26:00,
2013-05-12 06:27:00,53.6,45.2,29.26,West,270,4.3,4.3,73,0.00,,,0.00,VWS V14.01,2013-05-12 10:27:00,
2013-05-12 06:28:00,53.6,45.2,29.26,WNW,292,5.4,5.4,73,0.00,,,0.00,VWS V14.01,2013-05-12 10:28:00,
2013-05-12 06:29:00,53.6,45.2,29.26,West,270,7.4,7.4,73,0.00,,,0.00,VWS V14.01,2013-05-12 10:29:00,
2013-05-12 06:30:00,53.6,45.2,29.26,WSW,248,4.3,4.3,73,0.00,,,0.00,VWS V14.01,2013-05-12 10:30:00,
2013-05-12 06:31:00,53.6,44.8,29.26,West,270,5.8,5.8,72,0.00,,,0.00,VWS V14.01,2013-05-12 10:31:00,
2013-05-12 06:32:00,53.6,44.8,29.26,WNW,292,4.9,4.9,72,0.00,,,0.00,VWS V14.01,2013-05-12 10:32:00,
2013-05-12 06:33:00,53.6,44.8,29.26,West,270,3.8,3.8,72,0.00,,,0.00,VWS V14.01,2013-05-12 10:33:00,
2013-05-12 06:34:00,53.6,44.8,29.26,WNW,292,5.6,5.6,72,0.00,,,0.00,VWS V14.01,2013-05-12 10:34:00,
2013-05-12 06:35:00,53.6,44.8,29.26,WSW,248,3.6,3.6,72,0.00,,,0.00,VWS V14.01,2013-05-12 10:35:00,
2013-05-12 06:36:00,53.6,44.8,29.26,West,270,4.0,4.0,72,0.00,,,0.00,VWS V14.01,2013-05-12 10:36:00,
2013-05-12 06:37:00,53.6,44.4,29.26,West,270,7.4,7.4,71,0.00,,,0.00,VWS V14.01,2013-05-12 10:37:00,
2013-05-12 06:38:00,53.8,44.6,29.26,WNW,292,7.4,7.4,71,0.00,,,0.00,VWS V14.01,2013-05-12 10:38:00,
2013-05-12 06:39:00,53.8,44.6,29.26,WNW,292,6.3,6.3,71,0.00,,,0.00,VWS V14.01,2013-05-12 10:39:00,
2013-05-12 06:40:00,53.8,44.6,29.26,West,270,7.4,7.4,71,0.00,,,0.00,VWS V14.01,2013-05-12 10:40:00,
2013-05-12 06:41:00,53.8,43.5,29.26,WNW,292,8.1,8.1,68,0.00,,,0.00,VWS V14.01,2013-05-12 10:41:00,
2013-05-12 06:42:00,53.8,43.9,29.26,West,270,3.8,3.8,69,0.00,,,0.00,VWS V14.01,2013-05-12 10:42:00,
2013-05-12 06:43:00,53.8,43.5,29.26,West,270,7.4,7.4,68,0.00,,,0.00,VWS V14.01,2013-05-12 10:43:00,
2013-05-12 06:44:00,53.8,43.5,29.26,WSW,248,6.7,6.7,68,0.00,,,0.00,VWS V14.01,2013-05-12 10:44:00,
2013-05-12 06:45:00,53.8,43.5,29.29,WNW,292,8.1,8.1,68,0.00,,,0.00,VWS V14.01,2013-05-12 10:45:00,
2013-05-12 06:46:00,53.8,43.1,29.29,West,270,6.5,6.5,67,0.00,,,0.00,VWS V14.01,2013-05-12 10:46:00,
2013-05-12 06:47:00,53.8,43.1,29.29,WNW,292,6.0,6.0,67,0.00,,,0.00,VWS V14.01,2013-05-12 10:47:00,
2013-05-12 06:48:00,53.8,42.3,29.29,West,270,6.3,6.3,65,0.00,,,0.00,VWS V14.01,2013-05-12 10:48:00,
2013-05-12 06:49:00,53.8,42.3,29.29,NNW,338,6.0,6.0,65,0.00,,,0.00,VWS V14.01,2013-05-12 10:49:00,
2013-05-12 06:50:00,53.8,42.3,29.29,WNW,292,5.4,5.4,65,0.00,,,0.00,VWS V14.01,2013-05-12 10:50:00,
2013-05-12 06:51:00,53.8,41.9,29.29,WSW,248,7.4,7.4,64,0.00,,,0.00,VWS V14.01,2013-05-12 10:51:00,
2013-05-12 06:52:00,53.8,41.9,29.29,WSW,248,5.6,5.6,64,0.00,,,0.00,VWS V14.01,2013-05-12 10:52:00,
2013-05-12 06:53:00,53.6,41.3,29.29,West,270,4.0,4.0,63,0.00,,,0.00,VWS V14.01,2013-05-12 10:53:00,
2013-05-12 06:54:00,53.6,41.3,29.29,WNW,292,6.3,6.3,63,0.00,,,0.00,VWS V14.01,2013-05-12 10:54:00,
2013-05-12 06:55:00,53.6,40.9,29.29,West,270,7.4,7.4,62,0.00,,,0.00,VWS V14.01,2013-05-12 10:55:00,
2013-05-12 06:56:00,53.6,40.5,29.29,WSW,248,8.7,8.7,61,0.00,,,0.00,VWS V14.01,2013-05-12 10:56:00,
2013-05-12 06:57:00,53.6,40.1,29.29,WNW,292,6.0,6.0,60,0.00,,,0.00,VWS V14.01,2013-05-12 10:57:00,
2013-05-12 06:58:00,53.6,40.1,29.29,WNW,292,5.4,5.4,60,0.00,,,0.00,VWS V14.01,2013-05-12 10:58:00,
2013-05-12 06:59:00,53.6,40.5,29.29,NW,315,10.1,10.1,61,0.00,,,0.00,VWS V14.01,2013-05-12 10:59:00,
2013-05-12 07:00:00,53.6,40.5,29.29,NW,315,7.4,7.4,61,0.00,,,0.00,VWS V14.01,2013-05-12 11:00:00,
2013-05-12 07:01:00,53.6,40.5,29.29,WNW,292,10.5,10.5,61,0.00,,,0.00,VWS V14.01,2013-05-12 11:01:00,
2013-05-12 07:02:00,53.6,40.5,29.29,West,270,5.4,5.4,61,0.00,,,0.00,VWS V14.01,2013-05-12 11:02:00,
2013-05-12 07:03:00,53.6,40.5,29.29,West,270,10.5,10.5,61,0.00,,,0.00,VWS V14.01,2013-05-12 11:03:00,
2013-05-12 07:04:00,53.6,40.5,29.29,WNW,292,6.3,6.3,61,0.00,,,0.00,VWS V14.01,2013-05-12 11:04:00,
2013-05-12 07:05:00,53.4,40.3,29.29,West,270,5.6,5.6,61,0.00,,,0.00,VWS V14.01,2013-05-12 11:05:00,
2013-05-12 07:06:00,53.6,40.1,29.29,NW,315,4.9,4.9,60,0.00,,,0.00,VWS V14.01,2013-05-12 11:06:00,
2013-05-12 07:07:00,53.6,40.9,29.29,West,270,5.6,5.6,62,0.00,,,0.00,VWS V14.01,2013-05-12 11:07:00,
2013-05-12 07:08:00,53.6,40.5,29.29,WNW,292,7.4,7.4,61,0.00,,,0.00,VWS V14.01,2013-05-12 11:08:00,
2013-05-12 07:09:00,53.6,40.1,29.29,West,270,6.3,6.3,60,0.00,,,0.00,VWS V14.01,2013-05-12 11:09:00,
2013-05-12 07:10:00,53.6,40.5,29.29,WSW,248,7.6,7.6,61,0.00,,,0.00,VWS V14.01,2013-05-12 11:10:00,
2013-05-12 07:11:00,53.4,39.9,29.29,West,270,5.6,5.6,60,0.00,,,0.00,VWS V14.01,2013-05-12 11:11:00,
2013-05-12 07:12:00,53.4,39.9,29.29,WNW,292,6.3,6.3,60,0.00,,,0.00,VWS V14.01,2013-05-12 11:12:00,
2013-05-12 07:13:00,53.4,39.5,29.29,WNW,292,5.4,5.4,59,0.00,,,0.00,VWS V14.01,2013-05-12 11:13:00,
2013-05-12 07:14:00,53.2,38.4,29.29,WNW,292,6.5,6.5,57,0.00,,,0.00,VWS V14.01,2013-05-12 11:14:00,
2013-05-12 07:15:00,53.2,38.9,29.32,WNW,292,5.4,5.4,58,0.00,,,0.00,VWS V14.01,2013-05-12 11:15:00,
2013-05-12 07:16:00,53.1,38.2,29.32,NW,315,5.6,5.6,57,0.00,,,0.00,VWS V14.01,2013-05-12 11:16:00,
2013-05-12 07:17:00,53.1,37.8,29.32,West,270,6.0,6.0,56,0.00,,,0.00,VWS V14.01,2013-05-12 11:17:00,
2013-05-12 07:18:00,53.1,38.2,29.32,WNW,292,7.8,7.8,57,0.00,,,0.00,VWS V14.01,2013-05-12 11:18:00,
2013-05-12 07:19:00,53.1,38.2,29.32,West,270,7.4,7.4,57,0.00,,,0.00,VWS V14.01,2013-05-12 11:19:00,
2013-05-12 07:20:00,53.1,38.7,29.32,WNW,292,5.4,5.4,58,0.00,,,0.00,VWS V14.01,2013-05-12 11:20:00,
2013-05-12 07:21:00,53.1,38.7,29.32,West,270,6.5,6.5,58,0.00,,,0.00,VWS V14.01,2013-05-12 11:21:00,
2013-05-12 07:22:00,53.1,38.2,29.32,WSW,248,4.9,4.9,57,0.00,,,0.00,VWS V14.01,2013-05-12 11:22:00,
2013-05-12 07:23:00,53.1,37.8,29.32,WNW,292,12.1,12.1,56,0.00,,,0.00,VWS V14.01,2013-05-12 11:23:00,
2013-05-12 07:24:00,53.1,37.3,29.32,West,270,6.5,6.5,55,0.00,,,0.00,VWS V14.01,2013-05-12 11:24:00,
2013-05-12 07:25:00,53.1,36.9,29.32,WSW,248,9.6,9.6,54,0.00,,,0.00,VWS V14.01,2013-05-12 11:25:00,
2013-05-12 07:26:00,53.1,36.9,29.32,West,270,6.9,6.9,54,0.00,,,0.00,VWS V14.01,2013-05-12 11:26:00,
2013-05-12 07:27:00,53.1,36.9,29.32,WSW,248,10.3,10.3,54,0.00,,,0.00,VWS V14.01,2013-05-12 11:27:00,
2013-05-12 07:28:00,53.1,36.4,29.32,WSW,248,7.8,7.8,53,0.00,,,0.00,VWS V14.01,2013-05-12 11:28:00,
2013-05-12 07:29:00,52.9,36.2,29.32,West,270,10.5,10.5,53,0.00,,,0.00,VWS V14.01,2013-05-12 11:29:00,
2013-05-12 07:30:00,52.9,36.2,29.32,West,270,4.9,4.9,53,0.00,,,0.00,VWS V14.01,2013-05-12 11:30:00,
2013-05-12 07:31:00,52.9,36.7,29.32,West,270,8.5,8.5,54,0.00,,,0.00,VWS V14.01,2013-05-12 11:31:00,
2013-05-12 07:32:00,52.9,36.2,29.32,West,270,9.2,9.2,53,0.00,,,0.00,VWS V14.01,2013-05-12 11:32:00,
2013-05-12 07:33:00,52.9,36.7,29.32,WNW,292,10.7,10.7,54,0.00,,,0.00,VWS V14.01,2013-05-12 11:33:00,
2013-05-12 07:34:00,52.9,36.7,29.32,WSW,248,13.9,13.9,54,0.00,,,0.00,VWS V14.01,2013-05-12 11:34:00,
2013-05-12 07:35:00,52.9,35.8,29.32,WNW,292,12.3,12.3,52,0.00,,,0.00,VWS V14.01,2013-05-12 11:35:00,
2013-05-12 07:36:00,52.9,35.3,29.32,WNW,292,8.7,8.7,51,0.00,,,0.00,VWS V14.01,2013-05-12 11:36:00,
2013-05-12 07:37:00,52.9,35.8,29.32,WNW,292,7.4,7.4,52,0.00,,,0.00,VWS V14.01,2013-05-12 11:37:00,
2013-05-12 07:38:00,52.9,36.7,29.32,WNW,292,5.6,5.6,54,0.00,,,0.00,VWS V14.01,2013-05-12 11:38:00,
2013-05-12 07:39:00,52.9,35.8,29.32,WNW,292,6.5,6.5,52,0.00,,,0.00,VWS V14.01,2013-05-12 11:39:00,
2013-05-12 07:40:00,52.9,36.2,29.32,WNW,292,3.4,3.4,53,0.00,,,0.00,VWS V14.01,2013-05-12 11:40:00,
2013-05-12 07:41:00,52.9,36.2,29.32,West,270,13.2,13.2,53,0.00,,,0.00,VWS V14.01,2013-05-12 11:41:00,
2013-05-12 07:42:00,52.9,36.2,29.32,West,270,9.6,9.6,53,0.00,,,0.00,VWS V14.01,2013-05-12 11:42:00,
2013-05-12 07:43:00,52.9,35.8,29.32,WNW,292,6.3,6.3,52,0.00,,,0.00,VWS V14.01,2013-05-12 11:43:00,
2013-05-12 07:44:00,52.9,36.2,29.32,West,270,8.5,8.5,53,0.00,,,0.00,VWS V14.01,2013-05-12 11:44:00,
2013-05-12 07:45:00,52.9,35.8,29.32,West,270,10.3,10.3,52,0.00,,,0.00,VWS V14.01,2013-05-12 11:45:00,
2013-05-12 07:46:00,52.9,35.8,29.32,NW,315,3.6,3.6,52,0.00,,,0.00,VWS V14.01,2013-05-12 11:46:00,
2013-05-12 07:47:00,52.9,36.7,29.32,West,270,6.5,6.5,54,0.00,,,0.00,VWS V14.01,2013-05-12 11:47:00,
2013-05-12 07:48:00,53.1,36.9,29.32,NW,315,7.2,7.2,54,0.00,,,0.00,VWS V14.01,2013-05-12 11:48:00,
2013-05-12 07:49:00,53.1,36.9,29.32,WNW,292,7.6,7.6,54,0.00,,,0.00,VWS V14.01,2013-05-12 11:49:00,
2013-05-12 07:50:00,53.1,36.4,29.32,NW,315,7.8,7.8,53,0.00,,,0.00,VWS V14.01,2013-05-12 11:50:00,
2013-05-12 07:51:00,53.1,35.9,29.32,WSW,248,9.6,9.6,52,0.00,,,0.00,VWS V14.01,2013-05-12 11:51:00,
2013-05-12 07:52:00,53.1,35.9,29.32,ESE,112,6.5,293.8,52,0.00,,,0.00,VWS V14.01,2013-05-12 11:52:00,
2013-05-12 07:53:00,53.1,35.9,29.32,West,270,7.6,7.6,52,0.00,,,0.00,VWS V14.01,2013-05-12 11:53:00,
2013-05-12 07:54:00,53.1,36.4,29.32,NW,315,8.1,8.1,53,0.00,,,0.00,VWS V14.01,2013-05-12 11:54:00,
2013-05-12 07:55:00,53.1,35.9,29.32,WNW,292,9.4,9.4,52,0.00,,,0.00,VWS V14.01,2013-05-12 11:55:00,
2013-05-12 07:56:00,53.1,36.4,29.32,NW,315,9.6,9.6,53,0.00,,,0.00,VWS V14.01,2013-05-12 11:56:00,
2013-05-12 07:57:00,53.1,35.9,29.32,WNW,292,7.2,7.2,52,0.00,,,0.00,VWS V14.01,2013-05-12 11:57:00,
2013-05-12 07:58:00,53.1,35.9,29.32,West,270,7.6,7.6,52,0.00,,,0.00,VWS V14.01,2013-05-12 11:58:00,
2013-05-12 07:59:00,52.9,34.8,29.32,NW,315,7.8,7.8,50,0.00,,,0.00,VWS V14.01,2013-05-12 11:59:00,
2013-05-12 08:00:00,53.1,35.9,29.32,WNW,292,7.4,7.4,52,0.00,,,0.00,VWS V14.01,2013-05-12 12:00:00,
2013-05-12 08:01:00,53.1,35.4,29.32,WNW,292,7.4,7.4,51,0.00,,,0.00,VWS V14.01,2013-05-12 12:01:00,
2013-05-12 08:02:00,53.1,35.9,29.32,WNW,292,9.6,9.6,52,0.00,,,0.00,VWS V14.01,2013-05-12 12:02:00,
2013-05-12 08:03:00,52.9,35.3,29.32,NW,315,5.4,5.4,51,0.00,,,0.00,VWS V14.01,2013-05-12 12:03:00,
2013-05-12 08:04:00,52.9,35.3,29.32,WNW,292,10.1,10.1,51,0.00,,,0.00,VWS V14.01,2013-05-12 12:04:00,
2013-05-12 08:05:00,52.9,35.3,29.32,WNW,292,6.5,6.5,51,0.00,,,0.00,VWS V14.01,2013-05-12 12:05:00,
2013-05-12 08:06:00,53.1,35.4,29.32,West,270,9.0,9.0,51,0.00,,,0.00,VWS V14.01,2013-05-12 12:06:00,
2013-05-12 08:07:00,52.9,35.8,29.32,West,270,5.6,5.6,52,0.00,,,0.00,VWS V14.01,2013-05-12 12:07:00,
2013-05-12 08:08:00,52.9,35.8,29.32,West,270,7.8,7.8,52,0.00,,,0.00,VWS V14.01,2013-05-12 12:08:00,
2013-05-12 08:09:00,52.9,35.3,29.32,NW,315,8.1,8.1,51,0.00,,,0.00,VWS V14.01,2013-05-12 12:09:00,
2013-05-12 08:10:00,52.9,35.8,29.32,West,270,6.7,6.7,52,0.00,,,0.00,VWS V14.01,2013-05-12 12:10:00,
2013-05-12 08:11:00,52.9,35.8,29.32,NW,315,8.1,8.1,52,0.00,,,0.00,VWS V14.01,2013-05-12 12:11:00,
2013-05-12 08:12:00,52.9,34.8,29.32,WNW,292,15.2,15.2,50,0.00,,,0.00,VWS V14.01,2013-05-12 12:12:00,
2013-05-12 08:13:00,52.9,34.3,29.32,NNW,338,11.0,11.0,49,0.00,,,0.00,VWS V14.01,2013-05-12 12:13:00,
2013-05-12 08:14:00,52.9,34.3,29.32,WNW,292,5.4,5.4,49,0.00,,,0.00,VWS V14.01,2013-05-12 12:14:00,
2013-05-12 08:15:00,52.7,34.6,29.32,NW,315,7.6,7.6,50,0.00,,,0.00,VWS V14.01,2013-05-12 12:15:00,
2013-05-12 08:16:00,52.7,34.1,29.32,WNW,292,12.1,12.1,49,0.00,,,0.00,VWS V14.01,2013-05-12 12:16:00,
2013-05-12 08:17:00,52.7,34.1,29.32,WNW,292,5.4,5.4,49,0.00,,,0.00,VWS V14.01,2013-05-12 12:17:00,
2013-05-12 08:18:00,52.7,34.1,29.32,NW,315,5.8,5.8,49,0.00,,,0.00,VWS V14.01,2013-05-12 12:18:00,
2013-05-12 08:19:00,52.7,34.1,29.32,NNW,338,5.8,5.8,49,0.00,,,0.00,VWS V14.01,2013-05-12 12:19:00,
2013-05-12 08:20:00,52.9,35.3,29.32,WNW,292,4.9,4.9,51,0.00,,,0.00,VWS V14.01,2013-05-12 12:20:00,
2013-05-12 08:21:00,52.9,35.3,29.32,North,0,5.8,5.8,51,0.00,,,0.00,VWS V14.01,2013-05-12 12:21:00,
2013-05-12 08:22:00,52.9,34.3,29.32,NNW,338,8.1,8.1,49,0.00,,,0.00,VWS V14.01,2013-05-12 12:22:00,
2013-05-12 08:23:00,52.9,34.3,29.32,NW,315,10.7,10.7,49,0.00,,,0.00,VWS V14.01,2013-05-12 12:23:00,
2013-05-12 08:24:00,52.9,33.7,29.32,WNW,292,12.8,12.8,48,0.00,,,0.00,VWS V14.01,2013-05-12 12:24:00,
2013-05-12 08:25:00,52.9,34.3,29.32,WNW,292,8.7,8.7,49,0.00,,,0.00,VWS V14.01,2013-05-12 12:25:00,
2013-05-12 08:26:00,52.9,34.8,29.32,WNW,292,6.5,6.5,50,0.00,,,0.00,VWS V14.01,2013-05-12 12:26:00,
2013-05-12 08:27:00,52.9,34.8,29.32,NW,315,5.6,5.6,50,0.00,,,0.00,VWS V14.01,2013-05-12 12:27:00,
2013-05-12 08:28:00,53.1,34.9,29.32,West,270,8.5,8.5,50,0.00,,,0.00,VWS V14.01,2013-05-12 12:28:00,
2013-05-12 08:29:00,53.1,33.9,29.32,WNW,292,10.3,10.3,48,0.00,,,0.00,VWS V14.01,2013-05-12 12:29:00,
2013-05-12 08:30:00,52.7,32.0,29.32,West,270,15.2,15.2,45,0.00,,,0.00,VWS V14.01,2013-05-12 12:30:00,
2013-05-12 08:31:00,52.7,32.5,29.32,North,0,11.9,11.9,46,0.00,,,0.00,VWS V14.01,2013-05-12 12:31:00,
2013-05-12 08:32:00,52.7,32.5,29.32,WNW,292,9.4,9.4,46,0.00,,,0.00,VWS V14.01,2013-05-12 12:32:00,
2013-05-12 08:33:00,52.5,32.3,29.32,NW,315,8.1,8.1,46,0.00,,,0.00,VWS V14.01,2013-05-12 12:33:00,
2013-05-12 08:34:00,52.5,32.3,29.32,WNW,292,10.7,10.7,46,0.00,,,0.00,VWS V14.01,2013-05-12 12:34:00,
2013-05-12 08:35:00,52.5,31.2,29.32,WNW,292,7.8,7.8,44,0.00,,,0.00,VWS V14.01,2013-05-12 12:35:00,
2013-05-12 08:36:00,52.3,31.1,29.32,WNW,292,8.5,8.5,44,0.00,,,0.00,VWS V14.01,2013-05-12 12:36:00,
2013-05-12 08:37:00,52.3,31.1,29.32,WNW,292,5.8,5.8,44,0.00,,,0.00,VWS V14.01,2013-05-12 12:37:00,
2013-05-12 08:38:00,52.3,31.1,29.32,West,270,12.3,12.3,44,0.00,,,0.00,VWS V14.01,2013-05-12 12:38:00,
2013-05-12 08:39:00,52.3,30.5,29.32,NNW,338,13.4,13.4,43,0.00,,,0.00,VWS V14.01,2013-05-12 12:39:00,
2013-05-12 08:40:00,52.2,29.8,29.32,NNW,338,7.6,7.6,42,0.00,,,0.00,VWS V14.01,2013-05-12 12:40:00,
2013-05-12 08:41:00,52.2,30.9,29.32,WNW,292,11.2,11.2,44,0.00,,,0.00,VWS V14.01,2013-05-12 12:41:00,
2013-05-12 08:42:00,52.0,29.6,29.32,WNW,292,10.3,10.3,42,0.00,,,0.00,VWS V14.01,2013-05-12 12:42:00,
2013-05-12 08:43:00,52.0,29.6,29.32,NW,315,9.0,9.0,42,0.00,,,0.00,VWS V14.01,2013-05-12 12:43:00,
2013-05-12 08:44:00,52.0,30.2,29.32,West,270,11.0,11.0,43,0.00,,,0.00,VWS V14.01,2013-05-12 12:44:00,
2013-05-12 08:45:00,52.0,29.6,29.32,West,270,13.6,13.6,42,0.00,,,0.00,VWS V14.01,2013-05-12 12:45:00,
2013-05-12 08:46:00,52.0,29.6,29.32,NW,315,10.5,10.5,42,0.00,,,0.00,VWS V14.01,2013-05-12 12:46:00,
2013-05-12 08:47:00,52.2,30.4,29.32,West,270,10.1,10.1,43,0.00,,,0.00,VWS V14.01,2013-05-12 12:47:00,
2013-05-12 08:48:00,52.2,30.4,29.32,NNW,338,6.3,6.3,43,0.00,,,0.00,VWS V14.01,2013-05-12 12:48:00,
2013-05-12 08:49:00,52.2,29.8,29.32,NW,315,6.7,6.7,42,0.00,,,0.00,VWS V14.01,2013-05-12 12:49:00,
2013-05-12 08:50:00,52.2,30.4,29.32,WNW,292,6.0,6.0,43,0.00,,,0.00,VWS V14.01,2013-05-12 12:50:00,
2013-05-12 08:51:00,52.2,30.4,29.32,WNW,292,10.5,10.5,43,0.00,,,0.00,VWS V14.01,2013-05-12 12:51:00,
2013-05-12 08:52:00,52.0,29.6,29.32,WNW,292,9.6,9.6,42,0.00,,,0.00,VWS V14.01,2013-05-12 12:52:00,
2013-05-12 08:53:00,52.2,29.8,29.32,WNW,292,9.6,9.6,42,0.00,,,0.00,VWS V14.01,2013-05-12 12:53:00,
2013-05-12 08:54:00,52.2,29.8,29.32,WNW,292,6.3,6.3,42,0.00,,,0.00,VWS V14.01,2013-05-12 12:54:00,
2013-05-12 08:55:00,52.2,29.8,29.32,WNW,292,5.8,5.8,42,0.00,,,0.00,VWS V14.01,2013-05-12 12:55:00,
2013-05-12 08:56:00,52.2,30.4,29.32,NNW,338,8.1,8.1,43,0.00,,,0.00,VWS V14.01,2013-05-12 12:56:00,
2013-05-12 08:57:00,52.2,29.8,29.32,WNW,292,8.5,8.5,42,0.00,,,0.00,VWS V14.01,2013-05-12 12:57:00,
2013-05-12 08:58:00,52.2,29.8,29.32,West,270,7.4,7.4,42,0.00,,,0.00,VWS V14.01,2013-05-12 12:58:00,
2013-05-12 08:59:00,52.3,31.1,29.32,WNW,292,8.5,8.5,44,0.00,,,0.00,VWS V14.01,2013-05-12 12:59:00,
2013-05-12 09:00:00,52.3,30.5,29.32,WNW,292,6.3,6.3,43,0.00,,,0.00,VWS V14.01,2013-05-12 13:00:00,
2013-05-12 09:01:00,52.5,31.8,29.32,NW,315,12.5,12.5,45,0.00,,,0.00,VWS V14.01,2013-05-12 13:01:00,
2013-05-12 09:02:00,52.5,31.8,29.32,WNW,292,7.4,7.4,45,0.00,,,0.00,VWS V14.01,2013-05-12 13:02:00,
2013-05-12 09:03:00,52.5,32.3,29.32,NNE,22,2.7,2.7,46,0.00,,,0.00,VWS V14.01,2013-05-12 13:03:00,
2013-05-12 09:04:00,52.5,32.3,29.32,WNW,292,8.7,8.7,46,0.00,,,0.00,VWS V14.01,2013-05-12 13:04:00,
2013-05-12 09:05:00,52.5,30.7,29.32,WNW,292,6.0,6.0,43,0.00,,,0.00,VWS V14.01,2013-05-12 13:05:00,
2013-05-12 09:06:00,52.5,30.1,29.32,West,270,12.8,12.8,42,0.00,,,0.00,VWS V14.01,2013-05-12 13:06:00,
2013-05-12 09:07:00,52.5,29.5,29.32,West,270,10.3,10.3,41,0.00,,,0.00,VWS V14.01,2013-05-12 13:07:00,
2013-05-12 09:08:00,52.5,30.7,29.32,West,270,11.4,11.4,43,0.00,,,0.00,VWS V14.01,2013-05-12 13:08:00,
2013-05-12 09:09:00,52.5,30.1,29.32,WNW,292,6.3,6.3,42,0.00,,,0.00,VWS V14.01,2013-05-12 13:09:00,
2013-05-12 09:10:00,52.7,30.3,29.32,North,0,8.7,8.7,42,0.00,,,0.00,VWS V14.01,2013-05-12 13:10:00,
2013-05-12 09:11:00,52.7,29.7,29.32,NW,315,10.7,10.7,41,0.00,,,0.00,VWS V14.01,2013-05-12 13:11:00,
2013-05-12 09:12:00,52.5,29.5,29.32,NNW,338,9.4,9.4,41,0.00,,,0.00,VWS V14.01,2013-05-12 13:12:00,
2013-05-12 09:13:00,52.5,28.9,29.32,WNW,292,9.2,9.2,40,0.00,,,0.00,VWS V14.01,2013-05-12 13:13:00,
2013-05-12 09:14:00,52.5,29.5,29.32,West,270,9.4,9.4,41,0.00,,,0.00,VWS V14.01,2013-05-12 13:14:00,
2013-05-12 09:15:00,52.3,28.8,29.35,North,0,12.5,12.5,40,0.00,,,0.00,VWS V14.01,2013-05-12 13:15:00,
2013-05-12 09:16:00,52.3,29.4,29.35,WNW,292,12.1,12.1,41,0.00,,,0.00,VWS V14.01,2013-05-12 13:16:00,
2013-05-12 09:17:00,52.3,29.4,29.35,WNW,292,8.5,8.5,41,0.00,,,0.00,VWS V14.01,2013-05-12 13:17:00,
2013-05-12 09:18:00,52.3,29.4,29.35,WSW,248,10.3,10.3,41,0.00,,,0.00,VWS V14.01,2013-05-12 13:18:00,
2013-05-12 09:19:00,52.3,29.4,29.35,NW,315,13.4,13.4,41,0.00,,,0.00,VWS V14.01,2013-05-12 13:19:00,
2013-05-12 09:20:00,52.2,28.6,29.35,West,270,8.7,8.7,40,0.00,,,0.00,VWS V14.01,2013-05-12 13:20:00,
2013-05-12 09:21:00,52.2,29.2,29.35,WSW,248,12.5,12.5,41,0.00,,,0.00,VWS V14.01,2013-05-12 13:21:00,
2013-05-12 09:22:00,52.2,28.6,29.35,WNW,292,6.0,6.0,40,0.00,,,0.00,VWS V14.01,2013-05-12 13:22:00,
2013-05-12 09:23:00,52.0,28.4,29.35,NNW,338,10.5,10.5,40,0.00,,,0.00,VWS V14.01,2013-05-12 13:23:00,
2013-05-12 09:24:00,51.8,28.3,29.35,West,270,7.6,7.6,40,0.00,,,0.00,VWS V14.01,2013-05-12 13:24:00,
2013-05-12 09:25:00,51.8,28.9,29.35,WNW,292,4.3,4.3,41,0.00,,,0.00,VWS V14.01,2013-05-12 13:25:00,
2013-05-12 09:26:00,51.8,29.5,29.35,WNW,292,5.8,5.8,42,0.00,,,0.00,VWS V14.01,2013-05-12 13:26:00,
2013-05-12 09:27:00,51.8,29.5,29.35,West,270,7.8,7.8,42,0.00,,,0.00,VWS V14.01,2013-05-12 13:27:00,
2013-05-12 09:28:00,51.6,28.7,29.35,WNW,292,10.7,10.7,41,0.00,,,0.00,VWS V14.01,2013-05-12 13:28:00,
2013-05-12 09:29:00,51.6,29.3,29.35,WSW,248,13.0,13.0,42,0.00,,,0.00,VWS V14.01,2013-05-12 13:29:00,
2013-05-12 09:30:00,51.6,29.3,29.32,NW,315,7.4,7.4,42,0.00,,,0.00,VWS V14.01,2013-05-12 13:30:00,
2013-05-12 09:31:00,51.8,30.6,29.32,NW,315,7.6,7.6,44,0.00,,,0.00,VWS V14.01,2013-05-12 13:31:00,
2013-05-12 09:32:00,51.8,28.9,29.32,WNW,292,10.3,10.3,41,0.00,,,0.00,VWS V14.01,2013-05-12 13:32:00,
2013-05-12 09:33:00,51.8,28.9,29.32,NW,315,7.6,7.6,41,0.00,,,0.00,VWS V14.01,2013-05-12 13:33:00,
2013-05-12 09:34:00,51.8,29.5,29.32,WNW,292,8.7,8.7,42,0.00,,,0.00,VWS V14.01,2013-05-12 13:34:00,
2013-05-12 09:35:00,51.8,29.5,29.32,WNW,292,7.2,7.2,42,0.00,,,0.00,VWS V14.01,2013-05-12 13:35:00,
2013-05-12 09:36:00,52.0,30.8,29.32,WNW,292,3.6,3.6,44,0.00,,,0.00,VWS V14.01,2013-05-12 13:36:00,
2013-05-12 09:37:00,52.0,31.3,29.32,NNW,338,11.0,11.0,45,0.00,,,0.00,VWS V14.01,2013-05-12 13:37:00,
2013-05-12 09:38:00,52.0,29.6,29.32,NW,315,9.0,9.0,42,0.00,,,0.00,VWS V14.01,2013-05-12 13:38:00,
2013-05-12 09:39:00,52.0,29.6,29.32,WNW,292,10.7,10.7,42,0.00,,,0.00,VWS V14.01,2013-05-12 13:39:00,
2013-05-12 09:40:00,52.0,29.6,29.32,West,270,7.8,7.8,42,0.00,,,0.00,VWS V14.01,2013-05-12 13:40:00,
2013-05-12 09:41:00,52.0,29.6,29.32,West,270,10.7,10.7,42,0.00,,,0.00,VWS V14.01,2013-05-12 13:41:00,
2013-05-12 09:42:00,52.0,29.6,29.32,WNW,292,6.5,6.5,42,0.00,,,0.00,VWS V14.01,2013-05-12 13:42:00,
2013-05-12 09:43:00,52.2,29.8,29.32,WNW,292,8.7,8.7,42,0.00,,,0.00,VWS V14.01,2013-05-12 13:43:00,
2013-05-12 09:44:00,52.2,29.8,29.32,West,270,10.3,10.3,42,0.00,,,0.00,VWS V14.01,2013-05-12 13:44:00,
2013-05-12 09:45:00,52.3,30.0,29.32,WNW,292,12.3,12.3,42,0.00,,,0.00,VWS V14.01,2013-05-12 13:45:00,
2013-05-12 09:46:00,52.3,30.0,29.32,WNW,292,8.1,8.1,42,0.00,,,0.00,VWS V14.01,2013-05-12 13:46:00,
2013-05-12 09:47:00,52.3,30.0,29.32,WNW,292,5.6,5.6,42,0.00,,,0.00,VWS V14.01,2013-05-12 13:47:00,
2013-05-12 09:48:00,52.3,30.0,29.32,NW,315,10.3,10.3,42,0.00,,,0.00,VWS V14.01,2013-05-12 13:48:00,
2013-05-12 09:49:00,52.3,29.4,29.32,NW,315,6.0,6.0,41,0.00,,,0.00,VWS V14.01,2013-05-12 13:49:00,
2013-05-12 09:50:00,52.2,29.2,29.32,NW,315,7.6,7.6,41,0.00,,,0.00,VWS V14.01,2013-05-12 13:50:00,
2013-05-12 09:51:00,52.3,30.5,29.32,WNW,292,10.3,10.3,43,0.00,,,0.00,VWS V14.01,2013-05-12 13:51:00,
2013-05-12 09:52:00,52.3,30.5,29.32,NNW,338,8.7,8.7,43,0.00,,,0.00,VWS V14.01,2013-05-12 13:52:00,
2013-05-12 09:53:00,52.3,30.5,29.32,West,270,8.7,8.7,43,0.00,,,0.00,VWS V14.01,2013-05-12 13:53:00,
2013-05-12 09:54:00,52.5,30.7,29.32,North,0,6.5,6.5,43,0.00,,,0.00,VWS V14.01,2013-05-12 13:54:00,
2013-05-12 09:55:00,52.5,30.1,29.32,WNW,292,7.6,7.6,42,0.00,,,0.00,VWS V14.01,2013-05-12 13:55:00,
2013-05-12 09:56:00,52.5,30.1,29.32,NNW,338,3.1,3.1,42,0.00,,,0.00,VWS V14.01,2013-05-12 13:56:00,
2013-05-12 09:57:00,52.5,30.7,29.32,NW,315,5.4,5.4,43,0.00,,,0.00,VWS V14.01,2013-05-12 13:57:00,
2013-05-12 09:58:00,52.5,30.7,29.32,WNW,292,7.2,7.2,43,0.00,,,0.00,VWS V14.01,2013-05-12 13:58:00,
2013-05-12 09:59:00,52.3,30.0,29.32,NNW,338,5.6,5.6,42,0.00,,,0.00,VWS V14.01,2013-05-12 13:59:00,
2013-05-12 10:00:00,52.5,31.2,29.32,WNW,292,8.7,8.7,44,0.00,,,0.00,VWS V14.01,2013-05-12 14:00:00,
2013-05-12 10:01:00,52.5,30.7,29.32,NNW,338,5.4,5.4,43,0.00,,,0.00,VWS V14.01,2013-05-12 14:01:00,
2013-05-12 10:02:00,52.5,30.1,29.32,WNW,292,5.8,5.8,42,0.00,,,0.00,VWS V14.01,2013-05-12 14:02:00,
2013-05-12 10:03:00,52.5,28.9,29.32,West,270,9.8,9.8,40,0.00,,,0.00,VWS V14.01,2013-05-12 14:03:00,
2013-05-12 10:04:00,52.5,28.9,29.32,West,270,6.5,6.5,40,0.00,,,0.00,VWS V14.01,2013-05-12 14:04:00,
2013-05-12 10:05:00,52.5,28.9,29.32,West,270,5.4,5.4,40,0.00,,,0.00,VWS V14.01,2013-05-12 14:05:00,
2013-05-12 10:06:00,52.7,29.1,29.32,NW,315,7.8,7.8,40,0.00,,,0.00,VWS V14.01,2013-05-12 14:06:00,
2013-05-12 10:07:00,52.7,28.5,29.32,NW,315,7.6,7.6,39,0.00,,,0.00,VWS V14.01,2013-05-12 14:07:00,
2013-05-12 10:08:00,52.7,29.1,29.32,NNW,338,6.0,6.0,40,0.00,,,0.00,VWS V14.01,2013-05-12 14:08:00,
2013-05-12 10:09:00,52.7,29.7,29.32,NNW,338,7.8,7.8,41,0.00,,,0.00,VWS V14.01,2013-05-12 14:09:00,
2013-05-12 10:10:00,52.7,29.1,29.32,WSW,248,6.0,6.0,40,0.00,,,0.00,VWS V14.01,2013-05-12 14:10:00,
2013-05-12 10:11:00,52.9,29.8,29.32,West,270,10.7,10.7,41,0.00,,,0.00,VWS V14.01,2013-05-12 14:11:00,
2013-05-12 10:12:00,52.9,29.2,29.32,WSW,248,12.3,12.3,40,0.00,,,0.00,VWS V14.01,2013-05-12 14:12:00,
2013-05-12 10:13:00,52.9,29.2,29.32,West,270,13.2,13.2,40,0.00,,,0.00,VWS V14.01,2013-05-12 14:13:00,
2013-05-12 10:14:00,52.9,29.2,29.32,WNW,292,10.3,10.3,40,0.00,,,0.00,VWS V14.01,2013-05-12 14:14:00,
2013-05-12 10:15:00,52.9,29.2,29.32,WNW,292,8.7,8.7,40,0.00,,,0.00,VWS V14.01,2013-05-12 14:15:00,
2013-05-12 10:16:00,52.9,29.8,29.32,NW,315,4.9,4.9,41,0.00,,,0.00,VWS V14.01,2013-05-12 14:16:00,
2013-05-12 10:17:00,52.9,28.6,29.32,WSW,248,4.0,4.0,39,0.00,,,0.00,VWS V14.01,2013-05-12 14:17:00,
2013-05-12 10:18:00,52.9,29.2,29.32,WSW,248,10.3,10.3,40,0.00,,,0.00,VWS V14.01,2013-05-12 14:18:00,
2013-05-12 10:19:00,53.1,28.8,29.32,WNW,292,8.7,8.7,39,0.00,,,0.00,VWS V14.01,2013-05-12 14:19:00,
2013-05-12 10:20:00,53.1,28.8,29.32,NW,315,9.8,9.8,39,0.00,,,0.00,VWS V14.01,2013-05-12 14:20:00,
2013-05-12 10:21:00,53.1,28.8,29.32,NW,315,10.7,10.7,39,0.00,,,0.00,VWS V14.01,2013-05-12 14:21:00,
2013-05-12 10:22:00,52.9,28.6,29.32,West,270,14.1,14.1,39,0.00,,,0.00,VWS V14.01,2013-05-12 14:22:00,
2013-05-12 10:23:00,52.9,28.0,29.32,NNW,338,7.6,7.6,38,0.00,,,0.00,VWS V14.01,2013-05-12 14:23:00,
2013-05-12 10:24:00,52.9,28.6,29.32,NNW,338,8.7,8.7,39,0.00,,,0.00,VWS V14.01,2013-05-12 14:24:00,
2013-05-12 10:25:00,52.7,27.8,29.32,West,270,8.1,8.1,38,0.00,,,0.00,VWS V14.01,2013-05-12 14:25:00,
2013-05-12 10:26:00,52.7,27.8,29.32,WNW,292,8.1,8.1,38,0.00,,,0.00,VWS V14.01,2013-05-12 14:26:00,
2013-05-12 10:27:00,52.7,27.8,29.32,West,270,8.1,8.1,38,0.00,,,0.00,VWS V14.01,2013-05-12 14:27:00,
2013-05-12 10:28:00,52.7,27.8,29.32,West,270,8.1,8.1,38,0.00,,,0.00,VWS V14.01,2013-05-12 14:28:00,
2013-05-12 10:29:00,52.5,27.7,29.32,WNW,292,14.3,14.3,38,0.00,,,0.00,VWS V14.01,2013-05-12 14:29:00,
2013-05-12 10:30:00,52.5,27.0,29.32,WNW,292,7.2,7.2,37,0.00,,,0.00,VWS V14.01,2013-05-12 14:30:00,
2013-05-12 10:31:00,52.5,27.7,29.32,WNW,292,9.8,9.8,38,0.00,,,0.00,VWS V14.01,2013-05-12 14:31:00,
2013-05-12 10:32:00,52.5,27.7,29.32,West,270,7.8,7.8,38,0.00,,,0.00,VWS V14.01,2013-05-12 14:32:00,
2013-05-12 10:33:00,52.7,27.8,29.32,NNW,338,11.0,11.0,38,0.00,,,0.00,VWS V14.01,2013-05-12 14:33:00,
2013-05-12 10:34:00,52.7,27.8,29.32,NW,315,13.2,13.2,38,0.00,,,0.00,VWS V14.01,2013-05-12 14:34:00,
2013-05-12 10:35:00,52.5,27.7,29.32,West,270,10.1,10.1,38,0.00,,,0.00,VWS V14.01,2013-05-12 14:35:00,
2013-05-12 10:36:00,52.5,27.7,29.32,West,270,6.3,6.3,38,0.00,,,0.00,VWS V14.01,2013-05-12 14:36:00,
2013-05-12 10:37:00,52.7,27.8,29.32,WNW,292,15.2,15.2,38,0.00,,,0.00,VWS V14.01,2013-05-12 14:37:00,
2013-05-12 10:38:00,52.7,27.8,29.32,WNW,292,14.8,14.8,38,0.00,,,0.00,VWS V14.01,2013-05-12 14:38:00,
2013-05-12 10:39:00,52.5,27.0,29.32,West,270,12.5,12.5,37,0.00,,,0.00,VWS V14.01,2013-05-12 14:39:00,
2013-05-12 10:40:00,52.5,27.7,29.32,NW,315,8.5,8.5,38,0.00,,,0.00,VWS V14.01,2013-05-12 14:40:00,
2013-05-12 10:41:00,52.5,27.7,29.32,WSW,248,7.6,7.6,38,0.00,,,0.00,VWS V14.01,2013-05-12 14:41:00,
2013-05-12 10:42:00,52.5,27.7,29.32,NW,315,8.1,8.1,38,0.00,,,0.00,VWS V14.01,2013-05-12 14:42:00,
2013-05-12 10:43:00,52.5,27.7,29.32,WNW,292,11.0,11.0,38,0.00,,,0.00,VWS V14.01,2013-05-12 14:43:00,
2013-05-12 10:44:00,52.5,27.7,29.32,West,270,12.3,12.3,38,0.00,,,0.00,VWS V14.01,2013-05-12 14:44:00,
2013-05-12 10:45:00,52.5,27.0,29.32,West,270,5.6,5.6,37,0.00,,,0.00,VWS V14.01,2013-05-12 14:45:00,
2013-05-12 10:46:00,52.5,27.0,29.32,WSW,248,8.5,8.5,37,0.00,,,0.00,VWS V14.01,2013-05-12 14:46:00,
2013-05-12 10:47:00,52.7,27.8,29.32,WNW,292,8.1,8.1,38,0.00,,,0.00,VWS V14.01,2013-05-12 14:47:00,
2013-05-12 10:48:00,52.7,27.8,29.32,WNW,292,7.8,7.8,38,0.00,,,0.00,VWS V14.01,2013-05-12 14:48:00,
2013-05-12 10:49:00,52.7,27.8,29.32,NW,315,10.3,10.3,38,0.00,,,0.00,VWS V14.01,2013-05-12 14:49:00,
2013-05-12 10:50:00,52.7,27.8,29.32,NW,315,8.5,8.5,38,0.00,,,0.00,VWS V14.01,2013-05-12 14:50:00,
2013-05-12 10:51:00,52.7,27.8,29.32,WNW,292,8.5,8.5,38,0.00,,,0.00,VWS V14.01,2013-05-12 14:51:00,
2013-05-12 10:52:00,52.7,27.8,29.32,WNW,292,4.3,4.3,38,0.00,,,0.00,VWS V14.01,2013-05-12 14:52:00,
2013-05-12 10:53:00,52.7,27.8,29.32,NW,315,10.1,10.1,38,0.00,,,0.00,VWS V14.01,2013-05-12 14:53:00,
2013-05-12 10:54:00,52.7,27.8,29.32,West,270,8.5,8.5,38,0.00,,,0.00,VWS V14.01,2013-05-12 14:54:00,
2013-05-12 10:55:00,52.7,27.2,29.32,West,270,10.5,10.5,37,0.00,,,0.00,VWS V14.01,2013-05-12 14:55:00,
2013-05-12 10:56:00,52.7,27.8,29.32,WNW,292,6.5,6.5,38,0.00,,,0.00,VWS V14.01,2013-05-12 14:56:00,
2013-05-12 10:57:00,52.7,27.8,29.32,WNW,292,12.5,12.5,38,0.00,,,0.00,VWS V14.01,2013-05-12 14:57:00,
2013-05-12 10:58:00,52.7,27.8,29.32,West,270,12.1,12.1,38,0.00,,,0.00,VWS V14.01,2013-05-12 14:58:00,
2013-05-12 10:59:00,52.9,28.0,29.32,West,270,12.3,12.3,38,0.00,,,0.00,VWS V14.01,2013-05-12 14:59:00,
2013-05-12 11:00:00,53.1,28.1,29.35,NNW,338,8.1,8.1,38,0.00,,,0.00,VWS V14.01,2013-05-12 15:00:00,
2013-05-12 11:01:00,53.1,28.1,29.35,WNW,292,9.0,9.0,38,0.00,,,0.00,VWS V14.01,2013-05-12 15:01:00,
2013-05-12 11:02:00,53.2,28.9,29.35,NW,315,5.6,5.6,39,0.00,,,0.00,VWS V14.01,2013-05-12 15:02:00,
2013-05-12 11:03:00,53.2,28.9,29.35,NW,315,6.0,6.0,39,0.00,,,0.00,VWS V14.01,2013-05-12 15:03:00,
2013-05-12 11:04:00,53.4,29.1,29.35,NNE,22,5.8,5.8,39,0.00,,,0.00,VWS V14.01,2013-05-12 15:04:00,
2013-05-12 11:05:00,53.4,29.1,29.35,North,0,8.1,8.1,39,0.00,,,0.00,VWS V14.01,2013-05-12 15:05:00,
2013-05-12 11:06:00,53.4,29.1,29.35,North,0,8.5,8.5,39,0.00,,,0.00,VWS V14.01,2013-05-12 15:06:00,
2013-05-12 11:07:00,53.4,29.1,29.35,NNW,338,7.6,7.6,39,0.00,,,0.00,VWS V14.01,2013-05-12 15:07:00,
2013-05-12 11:08:00,53.4,29.1,29.35,NNE,22,9.4,9.4,39,0.00,,,0.00,VWS V14.01,2013-05-12 15:08:00,
2013-05-12 11:09:00,53.4,29.7,29.35,NNW,338,14.1,14.1,40,0.00,,,0.00,VWS V14.01,2013-05-12 15:09:00,
2013-05-12 11:10:00,53.4,29.1,29.35,WSW,248,10.3,10.3,39,0.00,,,0.00,VWS V14.01,2013-05-12 15:10:00,
2013-05-12 11:11:00,53.6,28.6,29.35,West,270,7.4,7.4,38,0.00,,,0.00,VWS V14.01,2013-05-12 15:11:00,
2013-05-12 11:12:00,53.6,28.0,29.35,WSW,248,15.2,15.2,37,0.00,,,0.00,VWS V14.01,2013-05-12 15:12:00,
2013-05-12 11:13:00,53.6,28.0,29.35,West,270,10.1,10.1,37,0.00,,,0.00,VWS V14.01,2013-05-12 15:13:00,
2013-05-12 11:14:00,53.8,28.8,29.35,WNW,292,7.8,7.8,38,0.00,,,0.00,VWS V14.01,2013-05-12 15:14:00,
2013-05-12 11:15:00,54.0,29.0,29.32,NW,315,8.7,8.7,38,0.00,,,0.00,VWS V14.01,2013-05-12 15:15:00,
2013-05-12 11:16:00,54.0,29.0,29.32,NNW,338,12.8,12.8,38,0.00,,,0.00,VWS V14.01,2013-05-12 15:16:00,
2013-05-12 11:17:00,54.0,28.3,29.32,North,0,8.5,8.5,37,0.00,,,0.00,VWS V14.01,2013-05-12 15:17:00,
2013-05-12 11:18:00,54.0,28.3,29.32,West,270,5.8,5.8,37,0.00,,,0.00,VWS V14.01,2013-05-12 15:18:00,
2013-05-12 11:19:00,54.0,28.3,29.32,NW,315,8.7,8.7,37,0.00,,,0.00,VWS V14.01,2013-05-12 15:19:00,
2013-05-12 11:20:00,53.8,28.1,29.32,NNW,338,9.8,9.8,37,0.00,,,0.00,VWS V14.01,2013-05-12 15:20:00,
2013-05-12 11:21:00,53.8,28.1,29.32,NW,315,7.6,7.6,37,0.00,,,0.00,VWS V14.01,2013-05-12 15:21:00,
2013-05-12 11:22:00,54.0,29.0,29.32,WNW,292,10.1,10.1,38,0.00,,,0.00,VWS V14.01,2013-05-12 15:22:00,
2013-05-12 11:23:00,53.8,28.1,29.32,West,270,9.6,9.6,37,0.00,,,0.00,VWS V14.01,2013-05-12 15:23:00,
2013-05-12 11:24:00,53.8,28.1,29.32,WSW,248,11.0,11.0,37,0.00,,,0.00,VWS V14.01,2013-05-12 15:24:00,
2013-05-12 11:25:00,54.0,28.3,29.32,WNW,292,6.3,6.3,37,0.00,,,0.00,VWS V14.01,2013-05-12 15:25:00,
2013-05-12 11:26:00,54.0,28.3,29.32,West,270,6.5,6.5,37,0.00,,,0.00,VWS V14.01,2013-05-12 15:26:00,
2013-05-12 11:27:00,54.0,28.3,29.32,SSW,202,11.0,11.0,37,0.00,,,0.00,VWS V14.01,2013-05-12 15:27:00,
2013-05-12 11:28:00,54.0,29.0,29.32,West,270,11.0,11.0,38,0.00,,,0.00,VWS V14.01,2013-05-12 15:28:00,
2013-05-12 11:29:00,54.0,28.3,29.32,SW,225,9.6,9.6,37,0.00,,,0.00,VWS V14.01,2013-05-12 15:29:00,
2013-05-12 11:30:00,54.0,28.3,29.32,WNW,292,11.2,11.2,37,0.00,,,0.00,VWS V14.01,2013-05-12 15:30:00,
2013-05-12 11:31:00,53.8,27.5,29.32,NW,315,5.8,5.8,36,0.00,,,0.00,VWS V14.01,2013-05-12 15:31:00,
2013-05-12 11:32:00,53.8,28.1,29.32,NNW,338,6.3,6.3,37,0.00,,,0.00,VWS V14.01,2013-05-12 15:32:00,
2013-05-12 11:33:00,54.0,29.0,29.32,West,270,3.8,3.8,38,0.00,,,0.00,VWS V14.01,2013-05-12 15:33:00,
2013-05-12 11:34:00,54.0,29.0,29.32,NW,315,7.2,7.2,38,0.00,,,0.00,VWS V14.01,2013-05-12 15:34:00,
2013-05-12 11:35:00,54.0,28.3,29.32,NW,315,12.5,12.5,37,0.00,,,0.00,VWS V14.01,2013-05-12 15:35:00,
2013-05-12 11:36:00,54.0,28.3,29.32,NW,315,12.3,12.3,37,0.00,,,0.00,VWS V14.01,2013-05-12 15:36:00,
2013-05-12 11:37:00,54.1,28.5,29.32,WNW,292,14.1,14.1,37,0.00,,,0.00,VWS V14.01,2013-05-12 15:37:00,
2013-05-12 11:38:00,54.1,28.5,29.32,WNW,292,10.7,10.7,37,0.00,,,0.00,VWS V14.01,2013-05-12 15:38:00,
2013-05-12 11:39:00,54.1,28.5,29.32,WNW,292,10.5,10.5,37,0.00,,,0.00,VWS V14.01,2013-05-12 15:39:00,
2013-05-12 11:40:00,54.3,28.6,29.32,West,270,8.7,8.7,37,0.00,,,0.00,VWS V14.01,2013-05-12 15:40:00,
2013-05-12 11:41:00,54.5,29.4,29.32,WNW,292,6.0,6.0,38,0.00,,,0.00,VWS V14.01,2013-05-12 15:41:00,
2013-05-12 11:42:00,54.5,29.4,29.32,WNW,292,6.7,6.7,38,0.00,,,0.00,VWS V14.01,2013-05-12 15:42:00,
2013-05-12 11:43:00,54.7,29.6,29.32,NW,315,10.7,10.7,38,0.00,,,0.00,VWS V14.01,2013-05-12 15:43:00,
2013-05-12 11:44:00,54.9,29.8,29.32,NW,315,7.6,7.6,38,0.00,,,0.00,VWS V14.01,2013-05-12 15:44:00,
2013-05-12 11:45:00,54.9,29.8,29.32,West,270,5.4,5.4,38,0.00,,,0.00,VWS V14.01,2013-05-12 15:45:00,
2013-05-12 11:46:00,54.9,29.8,29.32,WNW,292,9.8,9.8,38,0.00,,,0.00,VWS V14.01,2013-05-12 15:46:00,
2013-05-12 11:47:00,54.9,29.8,29.32,West,270,14.5,14.5,38,0.00,,,0.00,VWS V14.01,2013-05-12 15:47:00,
2013-05-12 11:48:00,55.0,29.3,29.32,West,270,11.0,11.0,37,0.00,,,0.00,VWS V14.01,2013-05-12 15:48:00,
2013-05-12 11:49:00,55.0,29.3,29.32,WNW,292,9.8,9.8,37,0.00,,,0.00,VWS V14.01,2013-05-12 15:49:00,
2013-05-12 11:50:00,55.0,28.6,29.32,West,270,8.5,8.5,36,0.00,,,0.00,VWS V14.01,2013-05-12 15:50:00,
2013-05-12 11:51:00,55.2,29.4,29.32,WSW,248,14.5,14.5,37,0.00,,,0.00,VWS V14.01,2013-05-12 15:51:00,
2013-05-12 11:52:00,55.4,28.9,29.32,West,270,14.5,14.5,36,0.00,,,0.00,VWS V14.01,2013-05-12 15:52:00,
2013-05-12 11:53:00,55.4,28.9,29.32,NW,315,10.1,10.1,36,0.00,,,0.00,VWS V14.01,2013-05-12 15:53:00,
2013-05-12 11:54:00,55.4,28.9,29.32,WNW,292,5.8,5.8,36,0.00,,,0.00,VWS V14.01,2013-05-12 15:54:00,
2013-05-12 11:55:00,55.6,29.7,29.32,NW,315,13.0,13.0,37,0.00,,,0.00,VWS V14.01,2013-05-12 15:55:00,
2013-05-12 11:56:00,55.6,29.1,29.32,WSW,248,8.7,8.7,36,0.00,,,0.00,VWS V14.01,2013-05-12 15:56:00,
2013-05-12 11:57:00,55.6,29.1,29.32,WNW,292,14.8,14.8,36,0.00,,,0.00,VWS V14.01,2013-05-12 15:57:00,
2013-05-12 11:58:00,55.6,29.1,29.32,West,270,15.4,15.4,36,0.00,,,0.00,VWS V14.01,2013-05-12 15:58:00,
2013-05-12 11:59:00,55.6,29.1,29.32,West,270,12.5,12.5,36,0.00,,,0.00,VWS V14.01,2013-05-12 15:59:00,
2013-05-12 12:00:00,55.6,29.1,29.32,NNW,338,8.7,8.7,36,0.00,,,0.00,VWS V14.01,2013-05-12 16:00:00,
2013-05-12 12:01:00,55.8,29.2,29.32,West,270,13.0,13.0,36,0.00,,,0.00,VWS V14.01,2013-05-12 16:01:00,
2013-05-12 12:02:00,55.6,29.1,29.32,WNW,292,9.8,9.8,36,0.00,,,0.00,VWS V14.01,2013-05-12 16:02:00,
2013-05-12 12:03:00,55.8,29.2,29.32,West,270,8.7,8.7,36,0.00,,,0.00,VWS V14.01,2013-05-12 16:03:00,
2013-05-12 12:04:00,55.8,29.2,29.32,WNW,292,13.2,13.2,36,0.00,,,0.00,VWS V14.01,2013-05-12 16:04:00,
2013-05-12 12:05:00,55.8,29.2,29.32,WNW,292,13.0,13.0,36,0.00,,,0.00,VWS V14.01,2013-05-12 16:05:00,
2013-05-12 12:06:00,55.8,29.2,29.32,WNW,292,13.2,13.2,36,0.00,,,0.00,VWS V14.01,2013-05-12 16:06:00,
2013-05-12 12:07:00,55.8,29.2,29.32,NW,315,8.7,8.7,36,0.00,,,0.00,VWS V14.01,2013-05-12 16:07:00,
2013-05-12 12:08:00,55.8,29.2,29.32,NW,315,7.6,7.6,36,0.00,,,0.00,VWS V14.01,2013-05-12 16:08:00,
2013-05-12 12:09:00,55.6,29.1,29.32,West,270,13.2,13.2,36,0.00,,,0.00,VWS V14.01,2013-05-12 16:09:00,
2013-05-12 12:10:00,55.8,29.2,29.32,NNW,338,6.3,6.3,36,0.00,,,0.00,VWS V14.01,2013-05-12 16:10:00,
2013-05-12 12:11:00,55.8,29.2,29.32,WNW,292,7.2,7.2,36,0.00,,,0.00,VWS V14.01,2013-05-12 16:11:00,
2013-05-12 12:12:00,55.9,30.1,29.32,West,270,12.8,12.8,37,0.00,,,0.00,VWS V14.01,2013-05-12 16:12:00,
2013-05-12 12:13:00,55.9,29.4,29.32,WSW,248,5.6,5.6,36,0.00,,,0.00,VWS V14.01,2013-05-12 16:13:00,
2013-05-12 12:14:00,55.9,29.4,29.32,WNW,292,4.3,4.3,36,0.00,,,0.00,VWS V14.01,2013-05-12 16:14:00,
2013-05-12 12:15:00,55.9,29.4,29.32,West,270,4.9,4.9,36,0.00,,,0.00,VWS V14.01,2013-05-12 16:15:00,
2013-05-12 12:16:00,55.9,29.4,29.32,West,270,6.3,6.3,36,0.00,,,0.00,VWS V14.01,2013-05-12 16:16:00,
2013-05-12 12:17:00,55.9,29.4,29.32,NNW,338,7.2,7.2,36,0.00,,,0.00,VWS V14.01,2013-05-12 16:17:00,
2013-05-12 12:18:00,55.9,29.4,29.32,WSW,248,13.0,13.0,36,0.00,,,0.00,VWS V14.01,2013-05-12 16:18:00,
2013-05-12 12:19:00,56.1,29.5,29.32,West,270,10.5,10.5,36,0.00,,,0.00,VWS V14.01,2013-05-12 16:19:00,
2013-05-12 12:20:00,56.1,29.5,29.32,WNW,292,10.7,10.7,36,0.00,,,0.00,VWS V14.01,2013-05-12 16:20:00,
2013-05-12 12:21:00,55.9,28.7,29.32,West,270,11.0,11.0,35,0.00,,,0.00,VWS V14.01,2013-05-12 16:21:00,
2013-05-12 12:22:00,56.1,29.5,29.32,WNW,292,12.8,12.8,36,0.00,,,0.00,VWS V14.01,2013-05-12 16:22:00,
2013-05-12 12:23:00,56.1,28.9,29.32,NNW,338,7.2,7.2,35,0.00,,,0.00,VWS V14.01,2013-05-12 16:23:00,
2013-05-12 12:24:00,56.1,29.5,29.32,North,0,9.8,9.8,36,0.00,,,0.00,VWS V14.01,2013-05-12 16:24:00,
2013-05-12 12:25:00,56.3,30.4,29.32,North,0,14.1,14.1,37,0.00,,,0.00,VWS V14.01,2013-05-12 16:25:00,
2013-05-12 12:26:00,56.5,30.5,29.32,WSW,248,14.3,14.3,37,0.00,,,0.00,VWS V14.01,2013-05-12 16:26:00,
2013-05-12 12:27:00,56.5,30.5,29.32,West,270,10.1,10.1,37,0.00,,,0.00,VWS V14.01,2013-05-12 16:27:00,
2013-05-12 12:28:00,56.5,29.9,29.32,WNW,292,11.4,11.4,36,0.00,,,0.00,VWS V14.01,2013-05-12 16:28:00,
2013-05-12 12:29:00,56.5,29.2,29.32,NW,315,8.5,8.5,35,0.00,,,0.00,VWS V14.01,2013-05-12 16:29:00,
2013-05-12 12:30:00,56.5,29.2,29.32,West,270,6.5,6.5,35,0.00,,,0.00,VWS V14.01,2013-05-12 16:30:00,
2013-05-12 12:31:00,56.5,29.2,29.32,NNW,338,4.7,4.7,35,0.00,,,0.00,VWS V14.01,2013-05-12 16:31:00,
2013-05-12 12:32:00,56.8,30.2,29.32,NNW,338,6.3,6.3,36,0.00,,,0.00,VWS V14.01,2013-05-12 16:32:00,
2013-05-12 12:33:00,56.8,30.2,29.32,NNW,338,9.4,9.4,36,0.00,,,0.00,VWS V14.01,2013-05-12 16:33:00,
2013-05-12 12:34:00,56.8,30.2,29.32,WNW,292,10.7,10.7,36,0.00,,,0.00,VWS V14.01,2013-05-12 16:34:00,
2013-05-12 12:35:00,56.7,30.0,29.32,West,270,9.6,9.6,36,0.00,,,0.00,VWS V14.01,2013-05-12 16:35:00,
2013-05-12 12:36:00,56.7,30.0,29.32,WNW,292,3.6,3.6,36,0.00,,,0.00,VWS V14.01,2013-05-12 16:36:00,
2013-05-12 12:37:00,56.5,29.9,29.32,NNW,338,15.2,15.2,36,0.00,,,0.00,VWS V14.01,2013-05-12 16:37:00,
2013-05-12 12:38:00,56.3,29.7,29.32,WNW,292,16.1,16.1,36,0.00,,,0.00,VWS V14.01,2013-05-12 16:38:00,
2013-05-12 12:39:00,56.3,29.0,29.32,NW,315,8.1,8.1,35,0.00,,,0.00,VWS V14.01,2013-05-12 16:39:00,
2013-05-12 12:40:00,56.3,29.0,29.32,West,270,9.6,9.6,35,0.00,,,0.00,VWS V14.01,2013-05-12 16:40:00,
2013-05-12 12:41:00,56.1,28.9,29.32,West,270,6.9,6.9,35,0.00,,,0.00,VWS V14.01,2013-05-12 16:41:00,
2013-05-12 12:42:00,56.3,29.7,29.32,WNW,292,5.6,5.6,36,0.00,,,0.00,VWS V14.01,2013-05-12 16:42:00,
2013-05-12 12:43:00,56.3,29.7,29.32,NW,315,11.0,11.0,36,0.00,,,0.00,VWS V14.01,2013-05-12 16:43:00,
2013-05-12 12:44:00,56.3,29.0,29.32,NW,315,8.1,8.1,35,0.00,,,0.00,VWS V14.01,2013-05-12 16:44:00,
2013-05-12 12:45:00,56.1,29.5,29.32,WNW,292,7.4,7.4,36,0.00,,,0.00,VWS V14.01,2013-05-12 16:45:00,
2013-05-12 12:46:00,56.3,29.7,29.32,NW,315,14.5,14.5,36,0.00,,,0.00,VWS V14.01,2013-05-12 16:46:00,
2013-05-12 12:47:00,56.3,29.0,29.32,WNW,292,15.2,15.2,35,0.00,,,0.00,VWS V14.01,2013-05-12 16:47:00,
2013-05-12 12:48:00,56.1,28.9,29.32,NNW,338,14.5,14.5,35,0.00,,,0.00,VWS V14.01,2013-05-12 16:48:00,
2013-05-12 12:49:00,56.3,29.7,29.32,WNW,292,8.5,8.5,36,0.00,,,0.00,VWS V14.01,2013-05-12 16:49:00,
2013-05-12 12:50:00,56.5,30.5,29.32,NW,315,8.5,8.5,37,0.00,,,0.00,VWS V14.01,2013-05-12 16:50:00,
2013-05-12 12:51:00,56.3,29.7,29.32,West,270,12.5,12.5,36,0.00,,,0.00,VWS V14.01,2013-05-12 16:51:00,
2013-05-12 12:52:00,56.5,29.9,29.32,WNW,292,8.7,8.7,36,0.00,,,0.00,VWS V14.01,2013-05-12 16:52:00,
2013-05-12 12:53:00,56.5,29.2,29.32,NW,315,11.0,11.0,35,0.00,,,0.00,VWS V14.01,2013-05-12 16:53:00,
2013-05-12 12:54:00,56.5,29.9,29.32,West,270,7.8,7.8,36,0.00,,,0.00,VWS V14.01,2013-05-12 16:54:00,
2013-05-12 12:55:00,56.5,29.2,29.32,West,270,7.6,7.6,35,0.00,,,0.00,VWS V14.01,2013-05-12 16:55:00,
2013-05-12 12:56:00,56.7,30.0,29.32,NW,315,10.5,10.5,36,0.00,,,0.00,VWS V14.01,2013-05-12 16:56:00,
2013-05-12 12:57:00,56.7,29.3,29.32,NNW,338,11.9,11.9,35,0.00,,,0.00,VWS V14.01,2013-05-12 16:57:00,
2013-05-12 12:58:00,56.5,29.2,29.32,NW,315,12.3,12.3,35,0.00,,,0.00,VWS V14.01,2013-05-12 16:58:00,
2013-05-12 12:59:00,56.3,28.3,29.32,NW,315,10.5,10.5,34,0.00,,,0.00,VWS V14.01,2013-05-12 16:59:00,
2013-05-12 13:00:00,56.3,29.0,29.32,NNW,338,4.9,4.9,35,0.00,,,0.00,VWS V14.01,2013-05-12 17:00:00,
2013-05-12 13:01:00,56.3,29.0,29.32,West,270,6.3,6.3,35,0.00,,,0.00,VWS V14.01,2013-05-12 17:01:00,
2013-05-12 13:02:00,56.1,28.9,29.32,NNW,338,12.3,12.3,35,0.00,,,0.00,VWS V14.01,2013-05-12 17:02:00,
2013-05-12 13:03:00,55.9,28.7,29.32,WNW,292,11.0,11.0,35,0.00,,,0.00,VWS V14.01,2013-05-12 17:03:00,
2013-05-12 13:04:00,55.9,28.7,29.32,West,270,5.4,5.4,35,0.00,,,0.00,VWS V14.01,2013-05-12 17:04:00,
2013-05-12 13:05:00,56.1,28.9,29.32,West,270,7.6,7.6,35,0.00,,,0.00,VWS V14.01,2013-05-12 17:05:00,
2013-05-12 13:06:00,56.1,28.9,29.32,WNW,292,11.0,11.0,35,0.00,,,0.00,VWS V14.01,2013-05-12 17:06:00,
2013-05-12 13:07:00,55.9,28.7,29.32,WNW,292,7.8,7.8,35,0.00,,,0.00,VWS V14.01,2013-05-12 17:07:00,
2013-05-12 13:08:00,55.9,28.7,29.32,NW,315,8.5,8.5,35,0.00,,,0.00,VWS V14.01,2013-05-12 17:08:00,
2013-05-12 13:09:00,55.8,27.8,29.32,NW,315,8.5,8.5,34,0.00,,,0.00,VWS V14.01,2013-05-12 17:09:00,
2013-05-12 13:10:00,55.8,28.5,29.32,WSW,248,5.6,5.6,35,0.00,,,0.00,VWS V14.01,2013-05-12 17:10:00,
2013-05-12 13:11:00,55.8,28.5,29.32,West,270,7.6,7.6,35,0.00,,,0.00,VWS V14.01,2013-05-12 17:11:00,
2013-05-12 13:12:00,55.8,28.5,29.32,NW,315,6.0,6.0,35,0.00,,,0.00,VWS V14.01,2013-05-12 17:12:00,
2013-05-12 13:13:00,55.6,28.4,29.32,WNW,292,7.8,7.8,35,0.00,,,0.00,VWS V14.01,2013-05-12 17:13:00,
2013-05-12 13:14:00,55.6,28.4,29.32,NW,315,9.8,9.8,35,0.00,,,0.00,VWS V14.01,2013-05-12 17:14:00,
2013-05-12 13:15:00,55.6,28.4,29.32,West,270,7.8,7.8,35,0.00,,,0.00,VWS V14.01,2013-05-12 17:15:00,
2013-05-12 13:16:00,55.6,28.4,29.32,WSW,248,8.7,8.7,35,0.00,,,0.00,VWS V14.01,2013-05-12 17:16:00,
2013-05-12 13:17:00,55.6,28.4,29.32,WSW,248,8.5,8.5,35,0.00,,,0.00,VWS V14.01,2013-05-12 17:17:00,
2013-05-12 13:18:00,55.6,28.4,29.32,WNW,292,7.4,7.4,35,0.00,,,0.00,VWS V14.01,2013-05-12 17:18:00,
2013-05-12 13:19:00,55.4,28.2,29.32,West,270,19.9,19.9,35,0.00,,,0.00,VWS V14.01,2013-05-12 17:19:00,
2013-05-12 13:20:00,55.4,28.2,29.32,WNW,292,8.5,8.5,35,0.00,,,0.00,VWS V14.01,2013-05-12 17:20:00,
2013-05-12 13:21:00,55.4,28.2,29.32,West,270,5.4,5.4,35,0.00,,,0.00,VWS V14.01,2013-05-12 17:21:00,
2013-05-12 13:22:00,55.2,28.1,29.32,WNW,292,6.5,6.5,35,0.00,,,0.00,VWS V14.01,2013-05-12 17:22:00,
2013-05-12 13:23:00,55.2,28.1,29.32,WNW,292,9.8,9.8,35,0.00,,,0.00,VWS V14.01,2013-05-12 17:23:00,
2013-05-12 13:24:00,55.2,28.1,29.32,WNW,292,6.0,6.0,35,0.00,,,0.00,VWS V14.01,2013-05-12 17:24:00,
2013-05-12 13:25:00,55.2,28.8,29.32,WNW,292,4.9,4.9,36,0.00,,,0.00,VWS V14.01,2013-05-12 17:25:00,
2013-05-12 13:26:00,55.0,27.9,29.32,NNW,338,9.0,9.0,35,0.00,,,0.00,VWS V14.01,2013-05-12 17:26:00,
2013-05-12 13:27:00,55.0,27.9,29.32,NNW,338,7.6,7.6,35,0.00,,,0.00,VWS V14.01,2013-05-12 17:27:00,
2013-05-12 13:28:00,54.9,27.8,29.32,NW,315,6.3,6.3,35,0.00,,,0.00,VWS V14.01,2013-05-12 17:28:00,
2013-05-12 13:29:00,54.9,27.8,29.32,West,270,10.7,10.7,35,0.00,,,0.00,VWS V14.01,2013-05-12 17:29:00,
2013-05-12 13:30:00,54.9,27.8,29.35,West,270,9.8,9.8,35,0.00,,,0.00,VWS V14.01,2013-05-12 17:30:00,
2013-05-12 13:31:00,55.0,28.6,29.35,WNW,292,13.0,13.0,36,0.00,,,0.00,VWS V14.01,2013-05-12 17:31:00,
2013-05-12 13:32:00,55.0,28.6,29.35,WNW,292,6.3,6.3,36,0.00,,,0.00,VWS V14.01,2013-05-12 17:32:00,
2013-05-12 13:33:00,55.0,28.6,29.35,WSW,248,10.5,10.5,36,0.00,,,0.00,VWS V14.01,2013-05-12 17:33:00,
2013-05-12 13:34:00,55.4,28.2,29.35,WNW,292,8.1,8.1,35,0.00,,,0.00,VWS V14.01,2013-05-12 17:34:00,
2013-05-12 13:35:00,55.6,28.4,29.35,West,270,9.6,9.6,35,0.00,,,0.00,VWS V14.01,2013-05-12 17:35:00,
2013-05-12 13:36:00,55.8,29.2,29.35,NNW,338,5.8,5.8,36,0.00,,,0.00,VWS V14.01,2013-05-12 17:36:00,
2013-05-12 13:37:00,55.9,29.4,29.35,WSW,248,4.0,4.0,36,0.00,,,0.00,VWS V14.01,2013-05-12 17:37:00,
2013-05-12 13:38:00,56.1,29.5,29.35,NNW,338,7.6,7.6,36,0.00,,,0.00,VWS V14.01,2013-05-12 17:38:00,
2013-05-12 13:39:00,56.3,29.7,29.35,NW,315,8.1,8.1,36,0.00,,,0.00,VWS V14.01,2013-05-12 17:39:00,
2013-05-12 13:40:00,56.5,29.9,29.35,SSW,202,6.3,6.3,36,0.00,,,0.00,VWS V14.01,2013-05-12 17:40:00,
2013-05-12 13:41:00,56.7,30.0,29.35,WNW,292,5.8,5.8,36,0.00,,,0.00,VWS V14.01,2013-05-12 17:41:00,
2013-05-12 13:42:00,56.7,30.0,29.35,WNW,292,8.5,8.5,36,0.00,,,0.00,VWS V14.01,2013-05-12 17:42:00,
2013-05-12 13:43:00,56.7,30.0,29.35,North,0,7.8,7.8,36,0.00,,,0.00,VWS V14.01,2013-05-12 17:43:00,
2013-05-12 13:44:00,56.5,29.2,29.35,NW,315,7.4,7.4,35,0.00,,,0.00,VWS V14.01,2013-05-12 17:44:00,
2013-05-12 13:45:00,56.5,29.2,29.32,NNE,22,2.5,2.5,35,0.00,,,0.00,VWS V14.01,2013-05-12 17:45:00,
2013-05-12 13:46:00,56.7,30.0,29.32,NNW,338,3.1,3.1,36,0.00,,,0.00,VWS V14.01,2013-05-12 17:46:00,
2013-05-12 13:47:00,56.8,30.2,29.32,NNW,338,4.0,4.0,36,0.00,,,0.00,VWS V14.01,2013-05-12 17:47:00,
2013-05-12 13:48:00,56.8,30.2,29.32,WSW,248,4.7,4.7,36,0.00,,,0.00,VWS V14.01,2013-05-12 17:48:00,
2013-05-12 13:49:00,57.2,30.5,29.32,WNW,292,6.5,6.5,36,0.00,,,0.00,VWS V14.01,2013-05-12 17:49:00,
2013-05-12 13:50:00,57.2,29.8,29.32,WNW,292,14.8,14.8,35,0.00,,,0.00,VWS V14.01,2013-05-12 17:50:00,
2013-05-12 13:51:00,57.2,29.8,29.32,WNW,292,11.0,11.0,35,0.00,,,0.00,VWS V14.01,2013-05-12 17:51:00,
2013-05-12 13:52:00,57.2,29.8,29.32,WNW,292,7.4,7.4,35,0.00,,,0.00,VWS V14.01,2013-05-12 17:52:00,
2013-05-12 13:53:00,57.0,29.7,29.32,WNW,292,7.2,7.2,35,0.00,,,0.00,VWS V14.01,2013-05-12 17:53:00,
2013-05-12 13:54:00,57.0,29.7,29.32,West,270,3.6,3.6,35,0.00,,,0.00,VWS V14.01,2013-05-12 17:54:00,
2013-05-12 13:55:00,56.8,29.5,29.32,West,270,6.5,6.5,35,0.00,,,0.00,VWS V14.01,2013-05-12 17:55:00,
2013-05-12 13:56:00,56.7,29.3,29.32,NW,315,8.5,8.5,35,0.00,,,0.00,VWS V14.01,2013-05-12 17:56:00,
2013-05-12 13:57:00,56.7,29.3,29.32,NW,315,10.3,10.3,35,0.00,,,0.00,VWS V14.01,2013-05-12 17:57:00,
2013-05-12 13:58:00,56.5,29.2,29.32,WNW,292,8.7,8.7,35,0.00,,,0.00,VWS V14.01,2013-05-12 17:58:00,
2013-05-12 13:59:00,56.5,29.2,29.32,NW,315,8.5,8.5,35,0.00,,,0.00,VWS V14.01,2013-05-12 17:59:00,
2013-05-12 14:00:00,56.5,29.2,29.32,West,270,9.8,9.8,35,0.00,,,0.00,VWS V14.01,2013-05-12 18:00:00,
2013-05-12 14:01:00,56.5,29.2,29.32,WNW,292,10.1,10.1,35,0.00,,,0.00,VWS V14.01,2013-05-12 18:01:00,
2013-05-12 14:02:00,56.5,28.5,29.32,WSW,248,12.1,12.1,34,0.00,,,0.00,VWS V14.01,2013-05-12 18:02:00,
2013-05-12 14:03:00,56.3,28.3,29.32,WSW,248,10.5,10.5,34,0.00,,,0.00,VWS V14.01,2013-05-12 18:03:00,
2013-05-12 14:04:00,56.5,28.5,29.32,WSW,248,10.1,10.1,34,0.00,,,0.00,VWS V14.01,2013-05-12 18:04:00,
2013-05-12 14:05:00,56.5,29.2,29.32,West,270,5.4,5.4,35,0.00,,,0.00,VWS V14.01,2013-05-12 18:05:00,
2013-05-12 14:06:00,56.7,29.3,29.32,SW,225,4.0,4.0,35,0.00,,,0.00,VWS V14.01,2013-05-12 18:06:00,
2013-05-12 14:07:00,56.7,29.3,29.32,WSW,248,6.7,6.7,35,0.00,,,0.00,VWS V14.01,2013-05-12 18:07:00,
2013-05-12 14:08:00,56.8,29.5,29.32,WNW,292,4.9,4.9,35,0.00,,,0.00,VWS V14.01,2013-05-12 18:08:00,
2013-05-12 14:09:00,56.8,29.5,29.32,WSW,248,8.7,8.7,35,0.00,,,0.00,VWS V14.01,2013-05-12 18:09:00,
2013-05-12 14:10:00,56.8,29.5,29.32,West,270,16.1,16.1,35,0.00,,,0.00,VWS V14.01,2013-05-12 18:10:00,
2013-05-12 14:11:00,56.7,28.6,29.32,WSW,248,13.2,13.2,34,0.00,,,0.00,VWS V14.01,2013-05-12 18:11:00,
2013-05-12 14:12:00,56.7,28.6,29.32,WSW,248,7.4,7.4,34,0.00,,,0.00,VWS V14.01,2013-05-12 18:12:00,
2013-05-12 14:13:00,56.5,28.5,29.32,West,270,9.8,9.8,34,0.00,,,0.00,VWS V14.01,2013-05-12 18:13:00,
2013-05-12 14:14:00,56.5,27.8,29.32,WSW,248,8.1,8.1,33,0.00,,,0.00,VWS V14.01,2013-05-12 18:14:00,
2013-05-12 14:15:00,56.5,29.2,29.32,WNW,292,7.6,7.6,35,0.00,,,0.00,VWS V14.01,2013-05-12 18:15:00,
2013-05-12 14:16:00,56.7,29.3,29.32,West,270,9.8,9.8,35,0.00,,,0.00,VWS V14.01,2013-05-12 18:16:00,
2013-05-12 14:17:00,56.7,29.3,29.32,West,270,8.7,8.7,35,0.00,,,0.00,VWS V14.01,2013-05-12 18:17:00,
2013-05-12 14:18:00,56.7,29.3,29.32,West,270,12.5,12.5,35,0.00,,,0.00,VWS V14.01,2013-05-12 18:18:00,
2013-05-12 14:19:00,56.5,28.5,29.32,WNW,292,12.8,12.8,34,0.00,,,0.00,VWS V14.01,2013-05-12 18:19:00,
2013-05-12 14:20:00,56.5,29.2,29.32,WSW,248,7.8,7.8,35,0.00,,,0.00,VWS V14.01,2013-05-12 18:20:00,
2013-05-12 14:21:00,56.5,29.2,29.32,West,270,12.8,12.8,35,0.00,,,0.00,VWS V14.01,2013-05-12 18:21:00,
2013-05-12 14:22:00,56.7,29.3,29.32,West,270,6.3,6.3,35,0.00,,,0.00,VWS V14.01,2013-05-12 18:22:00,
2013-05-12 14:23:00,56.7,29.3,29.32,WSW,248,8.1,8.1,35,0.00,,,0.00,VWS V14.01,2013-05-12 18:23:00,
2013-05-12 14:24:00,56.7,29.3,29.32,West,270,4.9,4.9,35,0.00,,,0.00,VWS V14.01,2013-05-12 18:24:00,
2013-05-12 14:25:00,56.8,29.5,29.32,NW,315,13.0,13.0,35,0.00,,,0.00,VWS V14.01,2013-05-12 18:25:00,
2013-05-12 14:26:00,56.8,29.5,29.32,West,270,10.5,10.5,35,0.00,,,0.00,VWS V14.01,2013-05-12 18:26:00,
2013-05-12 14:27:00,56.8,29.5,29.32,West,270,12.8,12.8,35,0.00,,,0.00,VWS V14.01,2013-05-12 18:27:00,
2013-05-12 14:28:00,57.0,29.0,29.32,WSW,248,15.7,15.7,34,0.00,,,0.00,VWS V14.01,2013-05-12 18:28:00,
2013-05-12 14:29:00,57.0,29.0,29.32,WNW,292,18.8,18.8,34,0.00,,,0.00,VWS V14.01,2013-05-12 18:29:00,
2013-05-12 14:30:00,57.0,29.0,29.32,West,270,19.2,19.2,34,0.00,,,0.00,VWS V14.01,2013-05-12 18:30:00,
2013-05-12 14:31:00,57.0,29.0,29.32,WSW,248,16.3,16.3,34,0.00,,,0.00,VWS V14.01,2013-05-12 18:31:00,
2013-05-12 14:32:00,56.8,28.1,29.32,West,270,10.5,10.5,33,0.00,,,0.00,VWS V14.01,2013-05-12 18:32:00,
2013-05-12 14:33:00,56.8,28.1,29.32,West,270,13.2,13.2,33,0.00,,,0.00,VWS V14.01,2013-05-12 18:33:00,
2013-05-12 14:34:00,57.0,29.0,29.32,West,270,17.7,17.7,34,0.00,,,0.00,VWS V14.01,2013-05-12 18:34:00,
2013-05-12 14:35:00,57.0,29.0,29.32,WNW,292,12.8,12.8,34,0.00,,,0.00,VWS V14.01,2013-05-12 18:35:00,
2013-05-12 14:36:00,57.0,27.5,29.32,West,270,23.5,23.5,32,0.00,,,0.00,VWS V14.01,2013-05-12 18:36:00,
2013-05-12 14:37:00,57.2,28.4,29.32,West,270,11.4,11.4,33,0.00,,,0.00,VWS V14.01,2013-05-12 18:37:00,
2013-05-12 14:38:00,57.2,28.4,29.32,WNW,292,8.5,8.5,33,0.00,,,0.00,VWS V14.01,2013-05-12 18:38:00,
2013-05-12 14:39:00,57.2,28.4,29.32,WNW,292,15.2,15.2,33,0.00,,,0.00,VWS V14.01,2013-05-12 18:39:00,
2013-05-12 14:40:00,57.4,28.5,29.32,WNW,292,14.5,14.5,33,0.00,,,0.00,VWS V14.01,2013-05-12 18:40:00,
2013-05-12 14:41:00,57.4,28.5,29.32,WNW,292,11.0,11.0,33,0.00,,,0.00,VWS V14.01,2013-05-12 18:41:00,
2013-05-12 14:42:00,57.6,28.7,29.32,West,270,17.0,17.0,33,0.00,,,0.00,VWS V14.01,2013-05-12 18:42:00,
2013-05-12 14:43:00,57.7,28.9,29.32,West,270,12.1,12.1,33,0.00,,,0.00,VWS V14.01,2013-05-12 18:43:00,
2013-05-12 14:44:00,57.7,29.6,29.32,West,270,13.0,13.0,34,0.00,,,0.00,VWS V14.01,2013-05-12 18:44:00,
2013-05-12 14:45:00,57.9,29.0,29.32,West,270,10.5,10.5,33,0.00,,,0.00,VWS V14.01,2013-05-12 18:45:00,
2013-05-12 14:46:00,57.9,29.7,29.32,WNW,292,10.7,10.7,34,0.00,,,0.00,VWS V14.01,2013-05-12 18:46:00,
2013-05-12 14:47:00,57.9,29.7,29.32,West,270,5.8,5.8,34,0.00,,,0.00,VWS V14.01,2013-05-12 18:47:00,
2013-05-12 14:48:00,58.1,29.2,29.32,WSW,248,12.1,12.1,33,0.00,,,0.00,VWS V14.01,2013-05-12 18:48:00,
2013-05-12 14:49:00,58.1,29.2,29.32,WSW,248,10.3,10.3,33,0.00,,,0.00,VWS V14.01,2013-05-12 18:49:00,
2013-05-12 14:50:00,58.5,30.2,29.32,WSW,248,12.5,12.5,34,0.00,,,0.00,VWS V14.01,2013-05-12 18:50:00,
2013-05-12 14:51:00,58.5,29.5,29.32,West,270,13.2,13.2,33,0.00,,,0.00,VWS V14.01,2013-05-12 18:51:00,
2013-05-12 14:52:00,58.6,30.4,29.32,WNW,292,18.8,18.8,34,0.00,,,0.00,VWS V14.01,2013-05-12 18:52:00,
2013-05-12 14:53:00,58.5,28.0,29.32,West,270,14.3,14.3,31,0.00,,,0.00,VWS V14.01,2013-05-12 18:53:00,
2013-05-12 14:54:00,58.5,28.0,29.32,West,270,10.3,10.3,31,0.00,,,0.00,VWS V14.01,2013-05-12 18:54:00,
2013-05-12 14:55:00,58.5,28.0,29.32,West,270,8.1,8.1,31,0.00,,,0.00,VWS V14.01,2013-05-12 18:55:00,
2013-05-12 14:56:00,58.5,28.7,29.32,WNW,292,13.2,13.2,32,0.00,,,0.00,VWS V14.01,2013-05-12 18:56:00,
2013-05-12 14:57:00,58.1,26.9,29.32,West,270,10.3,10.3,30,0.00,,,0.00,VWS V14.01,2013-05-12 18:57:00,
2013-05-12 14:58:00,58.1,26.9,29.32,West,270,14.8,14.8,30,0.00,,,0.00,VWS V14.01,2013-05-12 18:58:00,
2013-05-12 14:59:00,58.1,26.9,29.32,WSW,248,12.8,12.8,30,0.00,,,0.00,VWS V14.01,2013-05-12 18:59:00,
2013-05-12 15:00:00,57.9,25.9,29.32,WSW,248,23.0,23.0,29,0.00,,,0.00,VWS V14.01,2013-05-12 19:00:00,
2013-05-12 15:01:00,57.7,25.7,29.32,WSW,248,12.1,12.1,29,0.00,,,0.00,VWS V14.01,2013-05-12 19:01:00,
2013-05-12 15:02:00,57.9,26.7,29.32,WNW,292,10.5,10.5,30,0.00,,,0.00,VWS V14.01,2013-05-12 19:02:00,
2013-05-12 15:03:00,58.1,27.6,29.32,West,270,14.3,14.3,31,0.00,,,0.00,VWS V14.01,2013-05-12 19:03:00,
2013-05-12 15:04:00,58.5,28.0,29.32,WSW,248,12.8,12.8,31,0.00,,,0.00,VWS V14.01,2013-05-12 19:04:00,
2013-05-12 15:05:00,58.5,28.0,29.32,WSW,248,8.7,8.7,31,0.00,,,0.00,VWS V14.01,2013-05-12 19:05:00,
2013-05-12 15:06:00,58.6,28.1,29.32,WNW,292,6.3,6.3,31,0.00,,,0.00,VWS V14.01,2013-05-12 19:06:00,
2013-05-12 15:07:00,58.8,29.8,29.32,WSW,248,7.6,7.6,33,0.00,,,0.00,VWS V14.01,2013-05-12 19:07:00,
2013-05-12 15:08:00,59.2,30.1,29.32,WNW,292,10.1,10.1,33,0.00,,,0.00,VWS V14.01,2013-05-12 19:08:00,
2013-05-12 15:09:00,59.4,31.0,29.32,West,270,10.3,10.3,34,0.00,,,0.00,VWS V14.01,2013-05-12 19:09:00,
2013-05-12 15:10:00,59.4,31.0,29.32,West,270,23.5,23.5,34,0.00,,,0.00,VWS V14.01,2013-05-12 19:10:00,
2013-05-12 15:11:00,59.4,31.0,29.32,WSW,248,17.5,17.5,34,0.00,,,0.00,VWS V14.01,2013-05-12 19:11:00,
2013-05-12 15:12:00,59.7,28.3,29.32,WNW,292,11.0,11.0,30,0.00,,,0.00,VWS V14.01,2013-05-12 19:12:00,
2013-05-12 15:13:00,59.5,28.1,29.32,West,270,7.4,7.4,30,0.00,,,0.00,VWS V14.01,2013-05-12 19:13:00,
2013-05-12 15:14:00,59.2,27.0,29.32,West,270,24.6,24.6,29,0.00,,,0.00,VWS V14.01,2013-05-12 19:14:00,
2013-05-12 15:15:00,58.8,26.6,29.32,West,270,7.6,7.6,29,0.00,,,0.00,VWS V14.01,2013-05-12 19:15:00,
2013-05-12 15:16:00,58.6,26.5,29.32,West,270,10.5,10.5,29,0.00,,,0.00,VWS V14.01,2013-05-12 19:16:00,
2013-05-12 15:17:00,58.5,26.3,29.32,West,270,13.2,13.2,29,0.00,,,0.00,VWS V14.01,2013-05-12 19:17:00,
2013-05-12 15:18:00,58.5,26.3,29.32,West,270,12.5,12.5,29,0.00,,,0.00,VWS V14.01,2013-05-12 19:18:00,
2013-05-12 15:19:00,58.6,26.5,29.32,WSW,248,11.0,11.0,29,0.00,,,0.00,VWS V14.01,2013-05-12 19:19:00,
2013-05-12 15:20:00,58.5,26.3,29.32,West,270,14.8,14.8,29,0.00,,,0.00,VWS V14.01,2013-05-12 19:20:00,
2013-05-12 15:21:00,58.1,26.0,29.32,West,270,13.9,13.9,29,0.00,,,0.00,VWS V14.01,2013-05-12 19:21:00,
2013-05-12 15:22:00,58.1,26.0,29.32,WNW,292,12.1,12.1,29,0.00,,,0.00,VWS V14.01,2013-05-12 19:22:00,
2013-05-12 15:23:00,57.9,25.9,29.32,WSW,248,10.5,10.5,29,0.00,,,0.00,VWS V14.01,2013-05-12 19:23:00,
2013-05-12 15:24:00,57.9,25.9,29.32,West,270,9.4,9.4,29,0.00,,,0.00,VWS V14.01,2013-05-12 19:24:00,
2013-05-12 15:25:00,57.9,26.7,29.32,WNW,292,12.3,12.3,30,0.00,,,0.00,VWS V14.01,2013-05-12 19:25:00,
2013-05-12 15:26:00,57.9,25.9,29.32,WSW,248,8.7,8.7,29,0.00,,,0.00,VWS V14.01,2013-05-12 19:26:00,
2013-05-12 15:27:00,57.7,25.7,29.32,WNW,292,7.6,7.6,29,0.00,,,0.00,VWS V14.01,2013-05-12 19:27:00,
2013-05-12 15:28:00,57.6,25.6,29.32,WSW,248,18.6,18.6,29,0.00,,,0.00,VWS V14.01,2013-05-12 19:28:00,
2013-05-12 15:29:00,57.6,25.6,29.32,WNW,292,10.5,10.5,29,0.00,,,0.00,VWS V14.01,2013-05-12 19:29:00,
2013-05-12 15:30:00,57.6,26.4,29.32,West,270,10.5,10.5,30,0.00,,,0.00,VWS V14.01,2013-05-12 19:30:00,
2013-05-12 15:31:00,57.6,25.6,29.32,WNW,292,16.1,16.1,29,0.00,,,0.00,VWS V14.01,2013-05-12 19:31:00,
2013-05-12 15:32:00,57.6,25.6,29.32,West,270,15.4,15.4,29,0.00,,,0.00,VWS V14.01,2013-05-12 19:32:00,
2013-05-12 15:33:00,57.6,25.6,29.32,West,270,21.9,21.9,29,0.00,,,0.00,VWS V14.01,2013-05-12 19:33:00,
2013-05-12 15:34:00,57.4,25.4,29.32,West,270,8.5,8.5,29,0.00,,,0.00,VWS V14.01,2013-05-12 19:34:00,
2013-05-12 15:35:00,57.4,25.4,29.32,WNW,292,10.1,10.1,29,0.00,,,0.00,VWS V14.01,2013-05-12 19:35:00,
2013-05-12 15:36:00,57.4,26.2,29.32,WSW,248,10.5,10.5,30,0.00,,,0.00,VWS V14.01,2013-05-12 19:36:00,
2013-05-12 15:37:00,57.6,26.4,29.32,West,270,10.7,10.7,30,0.00,,,0.00,VWS V14.01,2013-05-12 19:37:00,
2013-05-12 15:38:00,57.6,25.6,29.32,West,270,10.5,10.5,29,0.00,,,0.00,VWS V14.01,2013-05-12 19:38:00,
2013-05-12 15:39:00,57.6,25.6,29.32,West,270,10.7,10.7,29,0.00,,,0.00,VWS V14.01,2013-05-12 19:39:00,
2013-05-12 15:40:00,57.6,25.6,29.32,WSW,248,17.5,17.5,29,0.00,,,0.00,VWS V14.01,2013-05-12 19:40:00,
2013-05-12 15:41:00,57.6,25.6,29.32,West,270,10.1,10.1,29,0.00,,,0.00,VWS V14.01,2013-05-12 19:41:00,
2013-05-12 15:42:00,57.4,25.4,29.32,WNW,292,14.8,14.8,29,0.00,,,0.00,VWS V14.01,2013-05-12 19:42:00,
2013-05-12 15:43:00,57.4,25.4,29.32,NW,315,12.5,12.5,29,0.00,,,0.00,VWS V14.01,2013-05-12 19:43:00,
2013-05-12 15:44:00,57.2,25.2,29.32,NW,315,7.6,7.6,29,0.00,,,0.00,VWS V14.01,2013-05-12 19:44:00,
2013-05-12 15:45:00,57.2,25.2,29.32,WNW,292,16.1,16.1,29,0.00,,,0.00,VWS V14.01,2013-05-12 19:45:00,
2013-05-12 15:46:00,57.0,25.1,29.32,WNW,292,12.5,12.5,29,0.00,,,0.00,VWS V14.01,2013-05-12 19:46:00,
2013-05-12 15:47:00,57.0,25.9,29.32,NNW,338,7.6,7.6,30,0.00,,,0.00,VWS V14.01,2013-05-12 19:47:00,
2013-05-12 15:48:00,57.0,25.9,29.32,WSW,248,10.1,10.1,30,0.00,,,0.00,VWS V14.01,2013-05-12 19:48:00,
2013-05-12 15:49:00,57.2,26.1,29.32,North,0,7.4,7.4,30,0.00,,,0.00,VWS V14.01,2013-05-12 19:49:00,
2013-05-12 15:50:00,57.7,26.5,29.32,NW,315,5.6,5.6,30,0.00,,,0.00,VWS V14.01,2013-05-12 19:50:00,
2013-05-12 15:51:00,57.9,27.5,29.32,WNW,292,16.1,16.1,31,0.00,,,0.00,VWS V14.01,2013-05-12 19:51:00,
2013-05-12 15:52:00,57.9,26.7,29.32,WSW,248,9.8,9.8,30,0.00,,,0.00,VWS V14.01,2013-05-12 19:52:00,
2013-05-12 15:53:00,57.9,26.7,29.32,WSW,248,5.6,5.6,30,0.00,,,0.00,VWS V14.01,2013-05-12 19:53:00,
2013-05-12 15:54:00,57.9,26.7,29.32,WNW,292,10.1,10.1,30,0.00,,,0.00,VWS V14.01,2013-05-12 19:54:00,
2013-05-12 15:55:00,57.9,26.7,29.32,WNW,292,18.8,18.8,30,0.00,,,0.00,VWS V14.01,2013-05-12 19:55:00,
2013-05-12 15:56:00,57.9,26.7,29.32,West,270,12.5,12.5,30,0.00,,,0.00,VWS V14.01,2013-05-12 19:56:00,
2013-05-12 15:57:00,58.1,26.9,29.32,NNW,338,7.2,7.2,30,0.00,,,0.00,VWS V14.01,2013-05-12 19:57:00,
2013-05-12 15:58:00,58.1,26.9,29.32,WNW,292,10.5,10.5,30,0.00,,,0.00,VWS V14.01,2013-05-12 19:58:00,
2013-05-12 15:59:00,58.1,26.9,29.32,West,270,9.6,9.6,30,0.00,,,0.00,VWS V14.01,2013-05-12 19:59:00,
2013-05-12 16:00:00,58.1,26.0,29.32,West,270,13.0,13.0,29,0.00,,,0.00,VWS V14.01,2013-05-12 20:00:00,
2013-05-12 16:01:00,58.1,26.9,29.32,WNW,292,8.5,8.5,30,0.00,,,0.00,VWS V14.01,2013-05-12 20:01:00,
2013-05-12 16:02:00,58.1,26.9,29.32,WNW,292,8.1,8.1,30,0.00,,,0.00,VWS V14.01,2013-05-12 20:02:00,
2013-05-12 16:03:00,57.9,27.5,29.32,WNW,292,12.5,12.5,31,0.00,,,0.00,VWS V14.01,2013-05-12 20:03:00,
2013-05-12 16:04:00,57.9,26.7,29.32,WSW,248,10.5,10.5,30,0.00,,,0.00,VWS V14.01,2013-05-12 20:04:00,
2013-05-12 16:05:00,57.9,27.5,29.32,WNW,292,8.5,8.5,31,0.00,,,0.00,VWS V14.01,2013-05-12 20:05:00,
2013-05-12 16:06:00,57.7,27.3,29.32,WNW,292,8.1,8.1,31,0.00,,,0.00,VWS V14.01,2013-05-12 20:06:00,
2013-05-12 16:07:00,57.7,27.3,29.32,WNW,292,7.8,7.8,31,0.00,,,0.00,VWS V14.01,2013-05-12 20:07:00,
2013-05-12 16:08:00,57.6,27.2,29.32,WNW,292,11.4,11.4,31,0.00,,,0.00,VWS V14.01,2013-05-12 20:08:00,
2013-05-12 16:09:00,57.4,26.2,29.32,WSW,248,17.0,17.0,30,0.00,,,0.00,VWS V14.01,2013-05-12 20:09:00,
2013-05-12 16:10:00,57.2,26.1,29.32,NW,315,4.7,4.7,30,0.00,,,0.00,VWS V14.01,2013-05-12 20:10:00,
2013-05-12 16:11:00,57.2,26.9,29.32,NW,315,6.3,6.3,31,0.00,,,0.00,VWS V14.01,2013-05-12 20:11:00,
2013-05-12 16:12:00,57.2,26.9,29.32,West,270,5.6,5.6,31,0.00,,,0.00,VWS V14.01,2013-05-12 20:12:00,
2013-05-12 16:13:00,57.0,26.7,29.32,WSW,248,7.6,7.6,31,0.00,,,0.00,VWS V14.01,2013-05-12 20:13:00,
2013-05-12 16:14:00,57.0,26.7,29.32,West,270,13.4,13.4,31,0.00,,,0.00,VWS V14.01,2013-05-12 20:14:00,
2013-05-12 16:15:00,56.8,26.5,29.35,West,270,19.5,19.5,31,0.00,,,0.00,VWS V14.01,2013-05-12 20:15:00,
2013-05-12 16:16:00,56.8,25.8,29.35,WSW,248,8.1,8.1,30,0.00,,,0.00,VWS V14.01,2013-05-12 20:16:00,
2013-05-12 16:17:00,56.7,26.4,29.35,NW,315,10.5,10.5,31,0.00,,,0.00,VWS V14.01,2013-05-12 20:17:00,
2013-05-12 16:18:00,56.7,26.4,29.35,West,270,7.4,7.4,31,0.00,,,0.00,VWS V14.01,2013-05-12 20:18:00,
2013-05-12 16:19:00,56.7,26.4,29.35,West,270,12.5,12.5,31,0.00,,,0.00,VWS V14.01,2013-05-12 20:19:00,
2013-05-12 16:20:00,56.3,25.3,29.35,WNW,292,12.5,12.5,30,0.00,,,0.00,VWS V14.01,2013-05-12 20:20:00,
2013-05-12 16:21:00,56.3,25.3,29.35,West,270,6.0,6.0,30,0.00,,,0.00,VWS V14.01,2013-05-12 20:21:00,
2013-05-12 16:22:00,56.3,25.3,29.35,West,270,15.9,15.9,30,0.00,,,0.00,VWS V14.01,2013-05-12 20:22:00,
2013-05-12 16:23:00,56.1,25.1,29.35,WNW,292,9.8,9.8,30,0.00,,,0.00,VWS V14.01,2013-05-12 20:23:00,
2013-05-12 16:24:00,56.1,25.9,29.35,West,270,12.8,12.8,31,0.00,,,0.00,VWS V14.01,2013-05-12 20:24:00,
2013-05-12 16:25:00,56.1,25.9,29.35,West,270,8.5,8.5,31,0.00,,,0.00,VWS V14.01,2013-05-12 20:25:00,
2013-05-12 16:26:00,56.1,25.9,29.35,West,270,13.0,13.0,31,0.00,,,0.00,VWS V14.01,2013-05-12 20:26:00,
2013-05-12 16:27:00,56.1,25.9,29.35,WNW,292,13.6,13.6,31,0.00,,,0.00,VWS V14.01,2013-05-12 20:27:00,
2013-05-12 16:28:00,56.7,26.4,29.35,WSW,248,10.5,10.5,31,0.00,,,0.00,VWS V14.01,2013-05-12 20:28:00,
2013-05-12 16:29:00,57.2,26.9,29.35,West,270,14.5,14.5,31,0.00,,,0.00,VWS V14.01,2013-05-12 20:29:00,
2013-05-12 16:30:00,57.6,27.2,29.35,West,270,12.8,12.8,31,0.00,,,0.00,VWS V14.01,2013-05-12 20:30:00,
2013-05-12 16:31:00,57.9,27.5,29.35,WSW,248,13.2,13.2,31,0.00,,,0.00,VWS V14.01,2013-05-12 20:31:00,
2013-05-12 16:32:00,58.5,28.0,29.35,WNW,292,14.3,14.3,31,0.00,,,0.00,VWS V14.01,2013-05-12 20:32:00,
2013-05-12 16:33:00,58.6,28.1,29.35,WNW,292,13.0,13.0,31,0.00,,,0.00,VWS V14.01,2013-05-12 20:33:00,
2013-05-12 16:34:00,58.8,28.3,29.35,WSW,248,11.9,11.9,31,0.00,,,0.00,VWS V14.01,2013-05-12 20:34:00,
2013-05-12 16:35:00,59.2,27.8,29.35,WNW,292,5.6,5.6,30,0.00,,,0.00,VWS V14.01,2013-05-12 20:35:00,
2013-05-12 16:36:00,59.7,28.3,29.35,NNW,338,10.5,10.5,30,0.00,,,0.00,VWS V14.01,2013-05-12 20:36:00,
2013-05-12 16:37:00,60.1,28.6,29.35,WSW,248,12.1,12.1,30,0.00,,,0.00,VWS V14.01,2013-05-12 20:37:00,
2013-05-12 16:38:00,60.1,28.6,29.35,WNW,292,12.3,12.3,30,0.00,,,0.00,VWS V14.01,2013-05-12 20:38:00,
2013-05-12 16:39:00,60.4,28.9,29.35,NW,315,10.1,10.1,30,0.00,,,0.00,VWS V14.01,2013-05-12 20:39:00,
2013-05-12 16:40:00,60.4,28.9,29.35,West,270,7.8,7.8,30,0.00,,,0.00,VWS V14.01,2013-05-12 20:40:00,
2013-05-12 16:41:00,60.3,28.7,29.35,NW,315,10.3,10.3,30,0.00,,,0.00,VWS V14.01,2013-05-12 20:41:00,
2013-05-12 16:42:00,60.4,28.9,29.35,West,270,10.1,10.1,30,0.00,,,0.00,VWS V14.01,2013-05-12 20:42:00,
2013-05-12 16:43:00,60.8,28.4,29.35,NW,315,6.7,6.7,29,0.00,,,0.00,VWS V14.01,2013-05-12 20:43:00,
2013-05-12 16:44:00,60.4,28.9,29.35,WNW,292,12.8,12.8,30,0.00,,,0.00,VWS V14.01,2013-05-12 20:44:00,
2013-05-12 16:45:00,59.9,28.4,29.35,WNW,292,8.7,8.7,30,0.00,,,0.00,VWS V14.01,2013-05-12 20:45:00,
2013-05-12 16:46:00,60.3,28.7,29.35,West,270,10.1,10.1,30,0.00,,,0.00,VWS V14.01,2013-05-12 20:46:00,
2013-05-12 16:47:00,60.6,29.0,29.35,WNW,292,8.5,8.5,30,0.00,,,0.00,VWS V14.01,2013-05-12 20:47:00,
2013-05-12 16:48:00,60.8,28.4,29.35,West,270,15.2,15.2,29,0.00,,,0.00,VWS V14.01,2013-05-12 20:48:00,
2013-05-12 16:49:00,61.2,28.7,29.35,WSW,248,9.8,9.8,29,0.00,,,0.00,VWS V14.01,2013-05-12 20:49:00,
2013-05-12 16:50:00,61.5,29.8,29.35,West,270,10.3,10.3,30,0.00,,,0.00,VWS V14.01,2013-05-12 20:50:00,
2013-05-12 16:51:00,61.2,28.7,29.35,NW,315,9.8,9.8,29,0.00,,,0.00,VWS V14.01,2013-05-12 20:51:00,
2013-05-12 16:52:00,61.0,29.4,29.35,West,270,6.3,6.3,30,0.00,,,0.00,VWS V14.01,2013-05-12 20:52:00,
2013-05-12 16:53:00,61.0,29.4,29.35,North,0,5.6,5.6,30,0.00,,,0.00,VWS V14.01,2013-05-12 20:53:00,
2013-05-12 16:54:00,61.0,29.4,29.35,WNW,292,14.5,14.5,30,0.00,,,0.00,VWS V14.01,2013-05-12 20:54:00,
2013-05-12 16:55:00,61.0,29.4,29.35,NNW,338,10.7,10.7,30,0.00,,,0.00,VWS V14.01,2013-05-12 20:55:00,
2013-05-12 16:56:00,60.4,28.9,29.35,NW,315,13.2,13.2,30,0.00,,,0.00,VWS V14.01,2013-05-12 20:56:00,
2013-05-12 16:57:00,60.1,28.6,29.35,NW,315,13.2,13.2,30,0.00,,,0.00,VWS V14.01,2013-05-12 20:57:00,
2013-05-12 16:58:00,60.4,29.7,29.35,WNW,292,11.0,11.0,31,0.00,,,0.00,VWS V14.01,2013-05-12 20:58:00,
2013-05-12 16:59:00,60.6,29.8,29.35,NW,315,15.9,15.9,31,0.00,,,0.00,VWS V14.01,2013-05-12 20:59:00,
2013-05-12 17:00:00,60.6,29.8,29.35,WNW,292,7.4,7.4,31,0.00,,,0.00,VWS V14.01,2013-05-12 21:00:00,
2013-05-12 17:01:00,60.6,29.8,29.35,North,0,12.5,12.5,31,0.00,,,0.00,VWS V14.01,2013-05-12 21:01:00,
2013-05-12 17:02:00,61.0,30.2,29.35,WNW,292,7.8,7.8,31,0.00,,,0.00,VWS V14.01,2013-05-12 21:02:00,
2013-05-12 17:03:00,61.3,30.5,29.35,WNW,292,11.4,11.4,31,0.00,,,0.00,VWS V14.01,2013-05-12 21:03:00,
2013-05-12 17:04:00,61.3,30.5,29.35,NNE,22,12.3,12.3,31,0.00,,,0.00,VWS V14.01,2013-05-12 21:04:00,
2013-05-12 17:05:00,61.3,29.7,29.35,NW,315,15.9,15.9,30,0.00,,,0.00,VWS V14.01,2013-05-12 21:05:00,
2013-05-12 17:06:00,61.5,29.0,29.35,NW,315,10.7,10.7,29,0.00,,,0.00,VWS V14.01,2013-05-12 21:06:00,
2013-05-12 17:07:00,61.5,29.0,29.35,NW,315,10.3,10.3,29,0.00,,,0.00,VWS V14.01,2013-05-12 21:07:00,
2013-05-12 17:08:00,61.7,29.1,29.35,West,270,17.0,17.0,29,0.00,,,0.00,VWS V14.01,2013-05-12 21:08:00,
2013-05-12 17:09:00,61.9,29.3,29.35,WNW,292,7.6,7.6,29,0.00,,,0.00,VWS V14.01,2013-05-12 21:09:00,
2013-05-12 17:10:00,61.9,29.3,29.35,WNW,292,7.6,7.6,29,0.00,,,0.00,VWS V14.01,2013-05-12 21:10:00,
2013-05-12 17:11:00,61.9,29.3,29.35,NNW,338,10.7,10.7,29,0.00,,,0.00,VWS V14.01,2013-05-12 21:11:00,
2013-05-12 17:12:00,62.1,30.3,29.35,WNW,292,9.0,9.0,30,0.00,,,0.00,VWS V14.01,2013-05-12 21:12:00,
2013-05-12 17:13:00,61.9,30.1,29.35,West,270,5.6,5.6,30,0.00,,,0.00,VWS V14.01,2013-05-12 21:13:00,
2013-05-12 17:14:00,62.1,30.3,29.35,WNW,292,6.0,6.0,30,0.00,,,0.00,VWS V14.01,2013-05-12 21:14:00,
2013-05-12 17:15:00,62.2,30.5,29.35,WNW,292,11.0,11.0,30,0.00,,,0.00,VWS V14.01,2013-05-12 21:15:00,
2013-05-12 17:16:00,62.2,30.5,29.35,West,270,13.0,13.0,30,0.00,,,0.00,VWS V14.01,2013-05-12 21:16:00,
2013-05-12 17:17:00,61.9,29.3,29.35,West,270,6.0,6.0,29,0.00,,,0.00,VWS V14.01,2013-05-12 21:17:00,
2013-05-12 17:18:00,62.1,29.5,29.35,West,270,10.7,10.7,29,0.00,,,0.00,VWS V14.01,2013-05-12 21:18:00,
2013-05-12 17:19:00,61.9,29.3,29.35,WSW,248,8.1,8.1,29,0.00,,,0.00,VWS V14.01,2013-05-12 21:19:00,
2013-05-12 17:20:00,62.1,30.3,29.35,West,270,14.8,14.8,30,0.00,,,0.00,VWS V14.01,2013-05-12 21:20:00,
2013-05-12 17:21:00,61.5,29.8,29.35,West,270,9.6,9.6,30,0.00,,,0.00,VWS V14.01,2013-05-12 21:21:00,
2013-05-12 17:22:00,61.2,29.5,29.35,West,270,14.1,14.1,30,0.00,,,0.00,VWS V14.01,2013-05-12 21:22:00,
2013-05-12 17:23:00,61.2,29.5,29.35,SW,225,10.5,10.5,30,0.00,,,0.00,VWS V14.01,2013-05-12 21:23:00,
2013-05-12 17:24:00,61.2,29.5,29.35,West,270,6.0,6.0,30,0.00,,,0.00,VWS V14.01,2013-05-12 21:24:00,
2013-05-12 17:25:00,61.0,29.4,29.35,WSW,248,3.1,3.1,30,0.00,,,0.00,VWS V14.01,2013-05-12 21:25:00,
2013-05-12 17:26:00,61.2,28.7,29.35,WSW,248,8.7,8.7,29,0.00,,,0.00,VWS V14.01,2013-05-12 21:26:00,
2013-05-12 17:27:00,61.0,28.5,29.35,West,270,8.1,8.1,29,0.00,,,0.00,VWS V14.01,2013-05-12 21:27:00,
2013-05-12 17:28:00,61.2,28.7,29.35,West,270,6.3,6.3,29,0.00,,,0.00,VWS V14.01,2013-05-12 21:28:00,
2013-05-12 17:29:00,61.3,28.8,29.35,WNW,292,5.8,5.8,29,0.00,,,0.00,VWS V14.01,2013-05-12 21:29:00,
2013-05-12 17:30:00,61.7,30.0,29.35,WSW,248,8.5,8.5,30,0.00,,,0.00,VWS V14.01,2013-05-12 21:30:00,
2013-05-12 17:31:00,61.9,30.1,29.35,West,270,7.6,7.6,30,0.00,,,0.00,VWS V14.01,2013-05-12 21:31:00,
2013-05-12 17:32:00,61.7,30.0,29.35,WSW,248,7.4,7.4,30,0.00,,,0.00,VWS V14.01,2013-05-12 21:32:00,
2013-05-12 17:33:00,61.3,28.8,29.35,WNW,292,6.3,6.3,29,0.00,,,0.00,VWS V14.01,2013-05-12 21:33:00,
2013-05-12 17:34:00,60.8,28.4,29.35,WSW,248,11.2,11.2,29,0.00,,,0.00,VWS V14.01,2013-05-12 21:34:00,
2013-05-12 17:35:00,60.1,27.7,29.35,WNW,292,5.8,5.8,29,0.00,,,0.00,VWS V14.01,2013-05-12 21:35:00,
2013-05-12 17:36:00,59.7,28.3,29.35,WSW,248,7.8,7.8,30,0.00,,,0.00,VWS V14.01,2013-05-12 21:36:00,
2013-05-12 17:37:00,59.4,27.1,29.35,West,270,11.4,11.4,29,0.00,,,0.00,VWS V14.01,2013-05-12 21:37:00,
2013-05-12 17:38:00,59.0,26.8,29.35,WSW,248,13.0,13.0,29,0.00,,,0.00,VWS V14.01,2013-05-12 21:38:00,
2013-05-12 17:39:00,58.5,26.3,29.35,SSW,202,8.7,8.7,29,0.00,,,0.00,VWS V14.01,2013-05-12 21:39:00,
2013-05-12 17:40:00,58.5,27.2,29.35,West,270,9.2,9.2,30,0.00,,,0.00,VWS V14.01,2013-05-12 21:40:00,
2013-05-12 17:41:00,58.1,26.9,29.35,WNW,292,6.0,6.0,30,0.00,,,0.00,VWS V14.01,2013-05-12 21:41:00,
2013-05-12 17:42:00,57.9,26.7,29.35,WNW,292,10.1,10.1,30,0.00,,,0.00,VWS V14.01,2013-05-12 21:42:00,
2013-05-12 17:43:00,57.7,26.5,29.35,NNW,338,6.7,6.7,30,0.00,,,0.00,VWS V14.01,2013-05-12 21:43:00,
2013-05-12 17:44:00,57.4,27.0,29.35,WNW,292,10.1,10.1,31,0.00,,,0.00,VWS V14.01,2013-05-12 21:44:00,
2013-05-12 17:45:00,57.2,26.9,29.38,WNW,292,8.7,8.7,31,0.00,,,0.00,VWS V14.01,2013-05-12 21:45:00,
2013-05-12 17:46:00,57.2,26.9,29.38,NNE,22,4.3,4.3,31,0.00,,,0.00,VWS V14.01,2013-05-12 21:46:00,
2013-05-12 17:47:00,57.2,26.9,29.38,WSW,248,13.2,13.2,31,0.00,,,0.00,VWS V14.01,2013-05-12 21:47:00,
2013-05-12 17:48:00,56.7,27.2,29.38,North,0,7.6,7.6,32,0.00,,,0.00,VWS V14.01,2013-05-12 21:48:00,
2013-05-12 17:49:00,56.7,27.2,29.38,NNW,338,5.6,5.6,32,0.00,,,0.00,VWS V14.01,2013-05-12 21:49:00,
2013-05-12 17:50:00,56.3,26.8,29.38,North,0,7.6,7.6,32,0.00,,,0.00,VWS V14.01,2013-05-12 21:50:00,
2013-05-12 17:51:00,56.1,28.1,29.38,North,0,10.1,10.1,34,0.00,,,0.00,VWS V14.01,2013-05-12 21:51:00,
2013-05-12 17:52:00,55.8,28.5,29.38,North,0,8.5,8.5,35,0.00,,,0.00,VWS V14.01,2013-05-12 21:52:00,
2013-05-12 17:53:00,55.4,28.9,29.38,NW,315,8.5,8.5,36,0.00,,,0.00,VWS V14.01,2013-05-12 21:53:00,
2013-05-12 17:54:00,55.2,29.4,29.38,NNW,338,8.5,8.5,37,0.00,,,0.00,VWS V14.01,2013-05-12 21:54:00,
2013-05-12 17:55:00,54.9,29.1,29.38,WNW,292,5.4,5.4,37,0.00,,,0.00,VWS V14.01,2013-05-12 21:55:00,
2013-05-12 17:56:00,55.2,29.4,29.38,NW,315,6.9,6.9,37,0.00,,,0.00,VWS V14.01,2013-05-12 21:56:00,
2013-05-12 17:57:00,55.2,30.7,29.38,NW,315,5.6,5.6,39,0.00,,,0.00,VWS V14.01,2013-05-12 21:57:00,
2013-05-12 17:58:00,55.2,32.0,29.38,WNW,292,4.7,4.7,41,0.00,,,0.00,VWS V14.01,2013-05-12 21:58:00,
2013-05-12 17:59:00,55.2,32.0,29.38,WNW,292,6.0,6.0,41,0.00,,,0.00,VWS V14.01,2013-05-12 21:59:00,
2013-05-12 18:00:00,55.2,32.0,29.38,WSW,248,5.8,5.8,41,0.00,,,0.00,VWS V14.01,2013-05-12 22:00:00,
2013-05-12 18:01:00,55.2,31.3,29.38,NNW,338,6.9,6.9,40,0.00,,,0.00,VWS V14.01,2013-05-12 22:01:00,
2013-05-12 18:02:00,55.0,31.2,29.38,WNW,292,5.6,5.6,40,0.00,,,0.00,VWS V14.01,2013-05-12 22:02:00,
2013-05-12 18:03:00,55.2,31.3,29.38,NW,315,5.6,5.6,40,0.00,,,0.00,VWS V14.01,2013-05-12 22:03:00,
2013-05-12 18:04:00,55.2,31.3,29.38,NW,315,5.4,5.4,40,0.00,,,0.00,VWS V14.01,2013-05-12 22:04:00,
2013-05-12 18:05:00,55.2,31.3,29.38,WNW,292,4.3,4.3,40,0.00,,,0.00,VWS V14.01,2013-05-12 22:05:00,
2013-05-12 18:06:00,55.2,30.7,29.38,NW,315,3.4,3.4,39,0.00,,,0.00,VWS V14.01,2013-05-12 22:06:00,
2013-05-12 18:07:00,55.2,31.3,29.38,WNW,292,6.5,6.5,40,0.00,,,0.00,VWS V14.01,2013-05-12 22:07:00,
2013-05-12 18:08:00,55.2,31.3,29.38,NNW,338,3.8,3.8,40,0.00,,,0.00,VWS V14.01,2013-05-12 22:08:00,
2013-05-12 18:09:00,55.2,31.3,29.38,West,270,7.2,7.2,40,0.00,,,0.00,VWS V14.01,2013-05-12 22:09:00,
2013-05-12 18:10:00,55.2,30.7,29.38,NNW,338,6.0,6.0,39,0.00,,,0.00,VWS V14.01,2013-05-12 22:10:00,
2013-05-12 18:11:00,55.2,31.3,29.38,NNW,338,3.8,3.8,40,0.00,,,0.00,VWS V14.01,2013-05-12 22:11:00,
2013-05-12 18:12:00,55.2,31.3,29.38,WNW,292,4.9,4.9,40,0.00,,,0.00,VWS V14.01,2013-05-12 22:12:00,
2013-05-12 18:13:00,55.2,30.7,29.38,WNW,292,5.8,5.8,39,0.00,,,0.00,VWS V14.01,2013-05-12 22:13:00,
2013-05-12 18:14:00,55.2,30.7,29.38,NW,315,3.8,3.8,39,0.00,,,0.00,VWS V14.01,2013-05-12 22:14:00,
2013-05-12 18:15:00,55.4,30.9,29.38,North,0,7.4,7.4,39,0.00,,,0.00,VWS V14.01,2013-05-12 22:15:00,
2013-05-12 18:16:00,55.2,31.3,29.38,WNW,292,6.9,6.9,40,0.00,,,0.00,VWS V14.01,2013-05-12 22:16:00,
2013-05-12 18:17:00,55.2,31.3,29.38,NW,315,7.8,7.8,40,0.00,,,0.00,VWS V14.01,2013-05-12 22:17:00,
2013-05-12 18:18:00,55.2,30.7,29.38,NW,315,7.4,7.4,39,0.00,,,0.00,VWS V14.01,2013-05-12 22:18:00,
2013-05-12 18:19:00,55.0,30.5,29.38,NNW,338,3.4,3.4,39,0.00,,,0.00,VWS V14.01,2013-05-12 22:19:00,
2013-05-12 18:20:00,55.2,30.7,29.38,West,270,3.1,3.1,39,0.00,,,0.00,VWS V14.01,2013-05-12 22:20:00,
2013-05-12 18:21:00,55.2,30.7,29.38,WNW,292,7.6,7.6,39,0.00,,,0.00,VWS V14.01,2013-05-12 22:21:00,
2013-05-12 18:22:00,55.2,30.7,29.38,WNW,292,3.1,3.1,39,0.00,,,0.00,VWS V14.01,2013-05-12 22:22:00,
2013-05-12 18:23:00,55.4,30.9,29.38,WNW,292,6.5,6.5,39,0.00,,,0.00,VWS V14.01,2013-05-12 22:23:00,
2013-05-12 18:24:00,55.2,30.7,29.38,WNW,292,4.3,4.3,39,0.00,,,0.00,VWS V14.01,2013-05-12 22:24:00,
2013-05-12 18:25:00,55.4,30.9,29.38,WNW,292,4.7,4.7,39,0.00,,,0.00,VWS V14.01,2013-05-12 22:25:00,
2013-05-12 18:26:00,55.4,30.9,29.38,WNW,292,4.9,4.9,39,0.00,,,0.00,VWS V14.01,2013-05-12 22:26:00,
2013-05-12 18:27:00,55.6,31.0,29.38,NW,315,4.9,4.9,39,0.00,,,0.00,VWS V14.01,2013-05-12 22:27:00,
2013-05-12 18:28:00,55.6,31.0,29.38,WNW,292,5.8,5.8,39,0.00,,,0.00,VWS V14.01,2013-05-12 22:28:00,
2013-05-12 18:29:00,55.6,31.0,29.38,WSW,248,3.8,3.8,39,0.00,,,0.00,VWS V14.01,2013-05-12 22:29:00,
2013-05-12 18:30:00,55.6,31.0,29.38,West,270,13.0,13.0,39,0.00,,,0.00,VWS V14.01,2013-05-12 22:30:00,
2013-05-12 18:31:00,55.6,31.0,29.38,WNW,292,5.4,5.4,39,0.00,,,0.00,VWS V14.01,2013-05-12 22:31:00,
2013-05-12 18:32:00,55.6,31.0,29.38,West,270,4.3,4.3,39,0.00,,,0.00,VWS V14.01,2013-05-12 22:32:00,
2013-05-12 18:33:00,55.6,31.0,29.38,WNW,292,5.8,5.8,39,0.00,,,0.00,VWS V14.01,2013-05-12 22:33:00,
2013-05-12 18:34:00,55.6,30.4,29.38,NW,315,7.4,7.4,38,0.00,,,0.00,VWS V14.01,2013-05-12 22:34:00,
2013-05-12 18:35:00,55.6,30.4,29.38,NNW,338,3.4,3.4,38,0.00,,,0.00,VWS V14.01,2013-05-12 22:35:00,
2013-05-12 18:36:00,55.4,30.2,29.38,NW,315,3.1,3.1,38,0.00,,,0.00,VWS V14.01,2013-05-12 22:36:00,
2013-05-12 18:37:00,55.4,30.9,29.38,NNW,338,4.9,4.9,39,0.00,,,0.00,VWS V14.01,2013-05-12 22:37:00,
2013-05-12 18:38:00,55.4,30.9,29.38,West,270,2.9,2.9,39,0.00,,,0.00,VWS V14.01,2013-05-12 22:38:00,
2013-05-12 18:39:00,55.4,30.9,29.38,WNW,292,3.1,3.1,39,0.00,,,0.00,VWS V14.01,2013-05-12 22:39:00,
2013-05-12 18:40:00,55.4,30.9,29.38,WNW,292,4.3,4.3,39,0.00,,,0.00,VWS V14.01,2013-05-12 22:40:00,
2013-05-12 18:41:00,55.4,30.9,29.38,West,270,5.4,5.4,39,0.00,,,0.00,VWS V14.01,2013-05-12 22:41:00,
2013-05-12 18:42:00,55.4,30.9,29.38,WNW,292,8.5,8.5,39,0.00,,,0.00,VWS V14.01,2013-05-12 22:42:00,
2013-05-12 18:43:00,55.2,30.7,29.38,WNW,292,8.7,8.7,39,0.00,,,0.00,VWS V14.01,2013-05-12 22:43:00,
2013-05-12 18:44:00,55.0,30.5,29.38,WNW,292,5.8,5.8,39,0.00,,,0.00,VWS V14.01,2013-05-12 22:44:00,
2013-05-12 18:45:00,55.0,30.5,29.35,NW,315,4.0,4.0,39,0.00,,,0.00,VWS V14.01,2013-05-12 22:45:00,
2013-05-12 18:46:00,55.0,30.5,29.35,NNW,338,5.4,5.4,39,0.00,,,0.00,VWS V14.01,2013-05-12 22:46:00,
2013-05-12 18:47:00,54.9,29.8,29.35,WNW,292,10.3,10.3,38,0.00,,,0.00,VWS V14.01,2013-05-12 22:47:00,
2013-05-12 18:48:00,54.9,29.8,29.35,NW,315,8.1,8.1,38,0.00,,,0.00,VWS V14.01,2013-05-12 22:48:00,
2013-05-12 18:49:00,54.9,29.8,29.35,WNW,292,6.9,6.9,38,0.00,,,0.00,VWS V14.01,2013-05-12 22:49:00,
2013-05-12 18:50:00,54.9,29.8,29.35,West,270,14.3,14.3,38,0.00,,,0.00,VWS V14.01,2013-05-12 22:50:00,
2013-05-12 18:51:00,54.5,28.8,29.35,West,270,12.8,12.8,37,0.00,,,0.00,VWS V14.01,2013-05-12 22:51:00,
2013-05-12 18:52:00,54.5,28.8,29.35,WNW,292,12.5,12.5,37,0.00,,,0.00,VWS V14.01,2013-05-12 22:52:00,
2013-05-12 18:53:00,54.5,28.8,29.35,NW,315,14.8,14.8,37,0.00,,,0.00,VWS V14.01,2013-05-12 22:53:00,
2013-05-12 18:54:00,54.5,28.8,29.35,West,270,7.8,7.8,37,0.00,,,0.00,VWS V14.01,2013-05-12 22:54:00,
2013-05-12 18:55:00,54.5,28.8,29.35,WNW,292,6.0,6.0,37,0.00,,,0.00,VWS V14.01,2013-05-12 22:55:00,
2013-05-12 18:56:00,54.7,29.6,29.35,NW,315,3.6,3.6,38,0.00,,,0.00,VWS V14.01,2013-05-12 22:56:00,
2013-05-12 18:57:00,54.7,29.6,29.35,NNW,338,7.4,7.4,38,0.00,,,0.00,VWS V14.01,2013-05-12 22:57:00,
2013-05-12 18:58:00,54.7,29.6,29.35,West,270,8.1,8.1,38,0.00,,,0.00,VWS V14.01,2013-05-12 22:58:00,
2013-05-12 18:59:00,54.7,29.6,29.35,NW,315,9.4,9.4,38,0.00,,,0.00,VWS V14.01,2013-05-12 22:59:00,
2013-05-12 19:00:00,54.7,29.6,29.38,NW,315,7.6,7.6,38,0.00,,,0.00,VWS V14.01,2013-05-12 23:00:00,
2013-05-12 19:01:00,54.7,29.6,29.38,NNW,338,9.8,9.8,38,0.00,,,0.00,VWS V14.01,2013-05-12 23:01:00,
2013-05-12 19:02:00,54.7,29.6,29.38,NW,315,5.8,5.8,38,0.00,,,0.00,VWS V14.01,2013-05-12 23:02:00,
2013-05-12 19:03:00,54.7,29.6,29.38,NNE,22,6.3,6.3,38,0.00,,,0.00,VWS V14.01,2013-05-12 23:03:00,
2013-05-12 19:04:00,54.5,29.4,29.38,WNW,292,9.8,9.8,38,0.00,,,0.00,VWS V14.01,2013-05-12 23:04:00,
2013-05-12 19:05:00,54.5,29.4,29.38,NW,315,3.8,3.8,38,0.00,,,0.00,VWS V14.01,2013-05-12 23:05:00,
2013-05-12 19:06:00,54.5,29.4,29.38,NNW,338,6.5,6.5,38,0.00,,,0.00,VWS V14.01,2013-05-12 23:06:00,
2013-05-12 19:07:00,54.7,29.6,29.38,NNW,338,3.4,3.4,38,0.00,,,0.00,VWS V14.01,2013-05-12 23:07:00,
2013-05-12 19:08:00,54.5,29.4,29.38,NNW,338,3.1,3.1,38,0.00,,,0.00,VWS V14.01,2013-05-12 23:08:00,
2013-05-12 19:09:00,54.5,29.4,29.38,NNW,338,6.9,6.9,38,0.00,,,0.00,VWS V14.01,2013-05-12 23:09:00,
2013-05-12 19:10:00,54.5,29.4,29.38,NW,315,6.5,6.5,38,0.00,,,0.00,VWS V14.01,2013-05-12 23:10:00,
2013-05-12 19:11:00,54.5,29.4,29.38,NNW,338,5.6,5.6,38,0.00,,,0.00,VWS V14.01,2013-05-12 23:11:00,
2013-05-12 19:12:00,54.5,29.4,29.38,North,0,6.0,6.0,38,0.00,,,0.00,VWS V14.01,2013-05-12 23:12:00,
2013-05-12 19:13:00,54.5,29.4,29.38,NNW,338,5.4,5.4,38,0.00,,,0.00,VWS V14.01,2013-05-12 23:13:00,
2013-05-12 19:14:00,54.5,29.4,29.38,NNE,22,6.3,6.3,38,0.00,,,0.00,VWS V14.01,2013-05-12 23:14:00,
2013-05-12 19:15:00,54.5,29.4,29.38,West,270,2.7,2.7,38,0.00,,,0.00,VWS V14.01,2013-05-12 23:15:00,
2013-05-12 19:16:00,54.5,30.1,29.38,West,270,1.3,1.3,39,0.00,,,0.00,VWS V14.01,2013-05-12 23:16:00,
2013-05-12 19:17:00,54.5,30.1,29.38,WNW,292,4.7,4.7,39,0.00,,,0.00,VWS V14.01,2013-05-12 23:17:00,
2013-05-12 19:18:00,54.5,30.1,29.38,WNW,292,4.3,4.3,39,0.00,,,0.00,VWS V14.01,2013-05-12 23:18:00,
2013-05-12 19:19:00,54.5,30.1,29.38,WNW,292,3.8,3.8,39,0.00,,,0.00,VWS V14.01,2013-05-12 23:19:00,
2013-05-12 19:20:00,54.3,29.3,29.38,NNW,338,7.4,7.4,38,0.00,,,0.00,VWS V14.01,2013-05-12 23:20:00,
2013-05-12 19:21:00,54.5,29.4,29.38,NW,315,4.9,4.9,38,0.00,,,0.00,VWS V14.01,2013-05-12 23:21:00,
2013-05-12 19:22:00,54.5,29.4,29.38,NW,315,5.8,5.8,38,0.00,,,0.00,VWS V14.01,2013-05-12 23:22:00,
2013-05-12 19:23:00,54.3,29.3,29.38,NW,315,7.8,7.8,38,0.00,,,0.00,VWS V14.01,2013-05-12 23:23:00,
2013-05-12 19:24:00,54.3,29.3,29.38,NNW,338,7.8,7.8,38,0.00,,,0.00,VWS V14.01,2013-05-12 23:24:00,
2013-05-12 19:25:00,54.3,29.3,29.38,NNW,338,7.2,7.2,38,0.00,,,0.00,VWS V14.01,2013-05-12 23:25:00,
2013-05-12 19:26:00,54.3,29.3,29.38,North,0,8.5,8.5,38,0.00,,,0.00,VWS V14.01,2013-05-12 23:26:00,
2013-05-12 19:27:00,54.1,29.1,29.38,NNW,338,5.4,5.4,38,0.00,,,0.00,VWS V14.01,2013-05-12 23:27:00,
2013-05-12 19:28:00,54.1,29.1,29.38,WNW,292,3.4,3.4,38,0.00,,,0.00,VWS V14.01,2013-05-12 23:28:00,
2013-05-12 19:29:00,54.0,29.0,29.38,North,0,5.4,5.4,38,0.00,,,0.00,VWS V14.01,2013-05-12 23:29:00,
2013-05-12 19:30:00,53.8,28.8,29.38,NNW,338,7.2,7.2,38,0.00,,,0.00,VWS V14.01,2013-05-12 23:30:00,
2013-05-12 19:31:00,53.6,28.6,29.38,NNW,338,6.3,6.3,38,0.00,,,0.00,VWS V14.01,2013-05-12 23:31:00,
2013-05-12 19:32:00,53.6,28.6,29.38,North,0,4.5,4.5,38,0.00,,,0.00,VWS V14.01,2013-05-12 23:32:00,
2013-05-12 19:33:00,53.4,28.5,29.38,NNW,338,6.7,6.7,38,0.00,,,0.00,VWS V14.01,2013-05-12 23:33:00,
2013-05-12 19:34:00,53.1,28.1,29.38,NNE,22,7.4,7.4,38,0.00,,,0.00,VWS V14.01,2013-05-12 23:34:00,
2013-05-12 19:35:00,53.1,28.1,29.38,NW,315,2.9,2.9,38,0.00,,,0.00,VWS V14.01,2013-05-12 23:35:00,
2013-05-12 19:36:00,53.1,28.1,29.38,North,0,4.0,4.0,38,0.00,,,0.00,VWS V14.01,2013-05-12 23:36:00,
2013-05-12 19:37:00,52.9,28.6,29.38,NNW,338,4.3,4.3,39,0.00,,,0.00,VWS V14.01,2013-05-12 23:37:00,
2013-05-12 19:38:00,52.7,27.8,29.38,NNW,338,7.8,7.8,38,0.00,,,0.00,VWS V14.01,2013-05-12 23:38:00,
2013-05-12 19:39:00,52.3,27.5,29.38,NNW,338,4.3,4.3,38,0.00,,,0.00,VWS V14.01,2013-05-12 23:39:00,
2013-05-12 19:40:00,52.3,27.5,29.38,NNW,338,4.9,4.9,38,0.00,,,0.00,VWS V14.01,2013-05-12 23:40:00,
2013-05-12 19:41:00,52.3,28.1,29.38,NNW,338,2.5,2.5,39,0.00,,,0.00,VWS V14.01,2013-05-12 23:41:00,
2013-05-12 19:42:00,52.2,28.0,29.38,NW,315,6.5,6.5,39,0.00,,,0.00,VWS V14.01,2013-05-12 23:42:00,
2013-05-12 19:43:00,52.2,28.0,29.38,WNW,292,4.3,4.3,39,0.00,,,0.00,VWS V14.01,2013-05-12 23:43:00,
2013-05-12 19:44:00,52.0,27.8,29.38,NW,315,2.9,2.9,39,0.00,,,0.00,VWS V14.01,2013-05-12 23:44:00,
2013-05-12 19:45:00,51.8,27.6,29.41,NNW,338,4.3,4.3,39,0.00,,,0.00,VWS V14.01,2013-05-12 23:45:00,
2013-05-12 19:46:00,51.8,27.6,29.41,NNW,338,3.1,3.1,39,0.00,,,0.00,VWS V14.01,2013-05-12 23:46:00,
2013-05-12 19:47:00,51.6,27.5,29.41,NNW,338,2.5,2.5,39,0.00,,,0.00,VWS V14.01,2013-05-12 23:47:00,
2013-05-12 19:48:00,51.6,28.1,29.41,NNW,338,4.3,4.3,40,0.00,,,0.00,VWS V14.01,2013-05-12 23:48:00,
2013-05-12 19:49:00,51.6,28.1,29.41,WNW,292,4.0,4.0,40,0.00,,,0.00,VWS V14.01,2013-05-12 23:49:00,
2013-05-12 19:50:00,51.4,27.9,29.41,NNW,338,3.6,3.6,40,0.00,,,0.00,VWS V14.01,2013-05-12 23:50:00,
2013-05-12 19:51:00,51.3,27.8,29.41,NW,315,3.4,3.4,40,0.00,,,0.00,VWS V14.01,2013-05-12 23:51:00,
2013-05-12 19:52:00,51.1,27.6,29.41,NW,315,2.9,2.9,40,0.00,,,0.00,VWS V14.01,2013-05-12 23:52:00,
2013-05-12 19:53:00,51.1,27.6,29.41,NNW,338,3.6,3.6,40,0.00,,,0.00,VWS V14.01,2013-05-12 23:53:00,
2013-05-12 19:54:00,51.1,27.6,29.41,NNW,338,2.9,2.9,40,0.00,,,0.00,VWS V14.01,2013-05-12 23:54:00,
2013-05-12 19:55:00,51.1,27.6,29.41,NW,315,5.6,5.6,40,0.00,,,0.00,VWS V14.01,2013-05-12 23:55:00,
2013-05-12 19:56:00,50.9,27.5,29.41,North,0,4.9,4.9,40,0.00,,,0.00,VWS V14.01,2013-05-12 23:56:00,
2013-05-12 19:57:00,50.9,27.5,29.41,NNW,338,5.6,5.6,40,0.00,,,0.00,VWS V14.01,2013-05-12 23:57:00,
2013-05-12 19:58:00,50.9,27.5,29.41,NNW,338,3.8,3.8,40,0.00,,,0.00,VWS V14.01,2013-05-12 23:58:00,
2013-05-12 19:59:00,50.9,27.5,29.41,WNW,292,3.6,3.6,40,0.00,,,0.00,VWS V14.01,2013-05-12 23:59:00,
2013-05-12 20:00:00,50.7,27.3,29.38,NNW,338,3.6,3.6,40,0.00,,,0.00,VWS V14.01,2013-05-13 00:00:00,
2013-05-12 20:01:00,50.7,27.3,29.38,NNW,338,3.8,3.8,40,0.00,,,0.00,VWS V14.01,2013-05-13 00:01:00,
2013-05-12 20:02:00,50.7,27.3,29.38,NW,315,2.7,2.7,40,0.00,,,0.00,VWS V14.01,2013-05-13 00:02:00,
2013-05-12 20:03:00,50.5,27.1,29.38,NNW,338,2.9,2.9,40,0.00,,,0.00,VWS V14.01,2013-05-13 00:03:00,
2013-05-12 20:04:00,50.5,27.1,29.38,North,0,6.3,6.3,40,0.00,,,0.00,VWS V14.01,2013-05-13 00:04:00,
2013-05-12 20:05:00,50.5,27.1,29.38,NNW,338,3.4,3.4,40,0.00,,,0.00,VWS V14.01,2013-05-13 00:05:00,
2013-05-12 20:06:00,50.4,27.0,29.38,NNW,338,2.7,2.7,40,0.00,,,0.00,VWS V14.01,2013-05-13 00:06:00,
2013-05-12 20:07:00,50.4,27.0,29.38,WNW,292,2.5,2.5,40,0.00,,,0.00,VWS V14.01,2013-05-13 00:07:00,
2013-05-12 20:08:00,50.4,27.0,29.38,North,0,4.0,4.0,40,0.00,,,0.00,VWS V14.01,2013-05-13 00:08:00,
2013-05-12 20:09:00,50.2,26.8,29.38,NNW,338,2.7,2.7,40,0.00,,,0.00,VWS V14.01,2013-05-13 00:09:00,
2013-05-12 20:10:00,50.2,27.4,29.38,NNW,338,1.6,1.6,41,0.00,,,0.00,VWS V14.01,2013-05-13 00:10:00,
2013-05-12 20:11:00,50.2,27.4,29.38,NNW,338,1.6,1.6,41,0.00,,,0.00,VWS V14.01,2013-05-13 00:11:00,
2013-05-12 20:12:00,50.2,27.4,29.38,NNW,338,3.1,3.1,41,0.00,,,0.00,VWS V14.01,2013-05-13 00:12:00,
2013-05-12 20:13:00,50.2,27.4,29.38,NW,315,2.5,2.5,41,0.00,,,0.00,VWS V14.01,2013-05-13 00:13:00,
2013-05-12 20:14:00,50.0,27.2,29.38,NNW,338,3.6,3.6,41,0.00,,,0.00,VWS V14.01,2013-05-13 00:14:00,
2013-05-12 20:15:00,50.0,27.2,29.41,NW,315,0.9,0.9,41,0.00,,,0.00,VWS V14.01,2013-05-13 00:15:00,
2013-05-12 20:16:00,50.0,27.8,29.41,NNW,338,2.5,2.5,42,0.00,,,0.00,VWS V14.01,2013-05-13 00:16:00,
2013-05-12 20:17:00,49.8,27.7,29.41,NNW,338,2.9,2.9,42,0.00,,,0.00,VWS V14.01,2013-05-13 00:17:00,
2013-05-12 20:18:00,49.8,27.7,29.41,North,0,4.0,4.0,42,0.00,,,0.00,VWS V14.01,2013-05-13 00:18:00,
2013-05-12 20:19:00,49.8,27.7,29.41,NNE,22,3.8,3.8,42,0.00,,,0.00,VWS V14.01,2013-05-13 00:19:00,
2013-05-12 20:20:00,49.8,27.7,29.41,NNW,338,2.5,2.5,42,0.00,,,0.00,VWS V14.01,2013-05-13 00:20:00,
2013-05-12 20:21:00,49.8,27.7,29.41,NNE,22,2.2,2.2,42,0.00,,,0.00,VWS V14.01,2013-05-13 00:21:00,
2013-05-12 20:22:00,49.6,28.1,29.41,NNW,338,4.3,4.3,43,0.00,,,0.00,VWS V14.01,2013-05-13 00:22:00,
2013-05-12 20:23:00,49.6,27.5,29.41,NNW,338,3.8,3.8,42,0.00,,,0.00,VWS V14.01,2013-05-13 00:23:00,
2013-05-12 20:24:00,49.6,27.5,29.41,NNW,338,2.2,2.2,42,0.00,,,0.00,VWS V14.01,2013-05-13 00:24:00,
2013-05-12 20:25:00,49.6,27.5,29.41,NNW,338,3.6,3.6,42,0.00,,,0.00,VWS V14.01,2013-05-13 00:25:00,
2013-05-12 20:26:00,49.5,27.9,29.41,North,0,4.9,4.9,43,0.00,,,0.00,VWS V14.01,2013-05-13 00:26:00,
2013-05-12 20:27:00,49.5,27.3,29.41,North,0,2.7,2.7,42,0.00,,,0.00,VWS V14.01,2013-05-13 00:27:00,
2013-05-12 20:28:00,49.5,27.3,29.41,NNW,338,4.0,4.0,42,0.00,,,0.00,VWS V14.01,2013-05-13 00:28:00,
2013-05-12 20:29:00,49.5,27.9,29.41,NNW,338,2.7,2.7,43,0.00,,,0.00,VWS V14.01,2013-05-13 00:29:00,
2013-05-12 20:30:00,49.5,27.9,29.41,NNW,338,2.0,2.0,43,0.00,,,0.00,VWS V14.01,2013-05-13 00:30:00,
2013-05-12 20:31:00,49.3,27.8,29.41,North,0,6.5,6.5,43,0.00,,,0.00,VWS V14.01,2013-05-13 00:31:00,
2013-05-12 20:32:00,49.3,27.8,29.41,NNW,338,2.9,2.9,43,0.00,,,0.00,VWS V14.01,2013-05-13 00:32:00,
2013-05-12 20:33:00,49.3,27.8,29.41,NNE,22,2.7,2.7,43,0.00,,,0.00,VWS V14.01,2013-05-13 00:33:00,
2013-05-12 20:34:00,49.3,27.8,29.41,NNE,22,2.7,2.7,43,0.00,,,0.00,VWS V14.01,2013-05-13 00:34:00,
2013-05-12 20:35:00,49.3,27.8,29.41,North,0,1.1,1.1,43,0.00,,,0.00,VWS V14.01,2013-05-13 00:35:00,
2013-05-12 20:36:00,49.3,27.8,29.41,NNE,22,2.0,2.0,43,0.00,,,0.00,VWS V14.01,2013-05-13 00:36:00,
2013-05-12 20:37:00,49.3,27.8,29.41,NNE,22,2.9,2.9,43,0.00,,,0.00,VWS V14.01,2013-05-13 00:37:00,
2013-05-12 20:38:00,49.3,27.8,29.41,NNE,22,2.7,2.7,43,0.00,,,0.00,VWS V14.01,2013-05-13 00:38:00,
2013-05-12 20:39:00,49.3,28.3,29.41,NNE,22,2.0,2.0,44,0.00,,,0.00,VWS V14.01,2013-05-13 00:39:00,
2013-05-12 20:40:00,49.3,28.3,29.41,NNE,22,2.5,2.5,44,0.00,,,0.00,VWS V14.01,2013-05-13 00:40:00,
2013-05-12 20:41:00,49.3,28.3,29.41,NNE,22,3.6,3.6,44,0.00,,,0.00,VWS V14.01,2013-05-13 00:41:00,
2013-05-12 20:42:00,49.3,28.3,29.41,North,0,2.2,2.2,44,0.00,,,0.00,VWS V14.01,2013-05-13 00:42:00,
2013-05-12 20:43:00,49.3,28.3,29.41,North,0,2.9,2.9,44,0.00,,,0.00,VWS V14.01,2013-05-13 00:43:00,
2013-05-12 20:44:00,49.3,28.3,29.41,North,0,3.4,3.4,44,0.00,,,0.00,VWS V14.01,2013-05-13 00:44:00,
2013-05-12 20:45:00,49.3,28.9,29.41,NNW,338,2.5,2.5,45,0.00,,,0.00,VWS V14.01,2013-05-13 00:45:00,
2013-05-12 20:46:00,49.1,28.7,29.41,NNE,22,4.3,4.3,45,0.00,,,0.00,VWS V14.01,2013-05-13 00:46:00,
2013-05-12 20:47:00,49.1,28.7,29.41,North,0,5.4,5.4,45,0.00,,,0.00,VWS V14.01,2013-05-13 00:47:00,
2013-05-12 20:48:00,49.1,28.7,29.41,NNW,338,1.3,1.3,45,0.00,,,0.00,VWS V14.01,2013-05-13 00:48:00,
2013-05-12 20:49:00,49.1,28.7,29.41,NW,315,3.8,3.8,45,0.00,,,0.00,VWS V14.01,2013-05-13 00:49:00,
2013-05-12 20:50:00,49.1,28.7,29.41,NNW,338,4.5,4.5,45,0.00,,,0.00,VWS V14.01,2013-05-13 00:50:00,
2013-05-12 20:51:00,49.1,28.7,29.41,North,0,4.0,4.0,45,0.00,,,0.00,VWS V14.01,2013-05-13 00:51:00,
2013-05-12 20:52:00,49.1,28.1,29.41,NNE,22,7.8,7.8,44,0.00,,,0.00,VWS V14.01,2013-05-13 00:52:00,
2013-05-12 20:53:00,49.1,28.1,29.41,NW,315,4.0,4.0,44,0.00,,,0.00,VWS V14.01,2013-05-13 00:53:00,
2013-05-12 20:54:00,49.1,28.1,29.41,NNW,338,3.1,3.1,44,0.00,,,0.00,VWS V14.01,2013-05-13 00:54:00,
2013-05-12 20:55:00,49.1,28.1,29.41,NNW,338,10.1,10.1,44,0.00,,,0.00,VWS V14.01,2013-05-13 00:55:00,
2013-05-12 20:56:00,49.1,28.1,29.41,NNW,338,4.9,4.9,44,0.00,,,0.00,VWS V14.01,2013-05-13 00:56:00,
2013-05-12 20:57:00,49.1,28.1,29.41,WNW,292,5.6,5.6,44,0.00,,,0.00,VWS V14.01,2013-05-13 00:57:00,
2013-05-12 20:58:00,49.1,28.1,29.41,WNW,292,3.1,3.1,44,0.00,,,0.00,VWS V14.01,2013-05-13 00:58:00,
2013-05-12 20:59:00,49.1,28.1,29.41,WNW,292,3.4,3.4,44,0.00,,,0.00,VWS V14.01,2013-05-13 00:59:00,
2013-05-12 21:00:00,48.9,28.0,29.44,NW,315,5.6,5.6,44,0.00,,,0.00,VWS V14.01,2013-05-13 01:00:00,
2013-05-12 21:01:00,48.9,28.0,29.44,WNW,292,3.4,3.4,44,0.00,,,0.00,VWS V14.01,2013-05-13 01:01:00,
2013-05-12 21:02:00,48.9,28.0,29.44,WNW,292,4.0,4.0,44,0.00,,,0.00,VWS V14.01,2013-05-13 01:02:00,
2013-05-12 21:03:00,48.9,28.0,29.44,NNW,338,3.6,3.6,44,0.00,,,0.00,VWS V14.01,2013-05-13 01:03:00,
2013-05-12 21:04:00,48.7,27.3,29.44,WNW,292,7.8,7.8,43,0.00,,,0.00,VWS V14.01,2013-05-13 01:04:00,
2013-05-12 21:05:00,48.7,27.3,29.44,NNW,338,9.8,9.8,43,0.00,,,0.00,VWS V14.01,2013-05-13 01:05:00,
2013-05-12 21:06:00,48.7,27.3,29.44,NNW,338,4.0,4.0,43,0.00,,,0.00,VWS V14.01,2013-05-13 01:06:00,
2013-05-12 21:07:00,48.7,27.3,29.44,WNW,292,5.6,5.6,43,0.00,,,0.00,VWS V14.01,2013-05-13 01:07:00,
2013-05-12 21:08:00,48.7,26.7,29.44,WNW,292,5.4,5.4,42,0.00,,,0.00,VWS V14.01,2013-05-13 01:08:00,
2013-05-12 21:09:00,48.7,27.3,29.44,NW,315,6.3,6.3,43,0.00,,,0.00,VWS V14.01,2013-05-13 01:09:00,
2013-05-12 21:10:00,48.7,26.7,29.44,NW,315,3.4,3.4,42,0.00,,,0.00,VWS V14.01,2013-05-13 01:10:00,
2013-05-12 21:11:00,48.7,26.7,29.44,NNW,338,6.0,6.0,42,0.00,,,0.00,VWS V14.01,2013-05-13 01:11:00,
2013-05-12 21:12:00,48.7,26.7,29.44,NNE,22,4.0,4.0,42,0.00,,,0.00,VWS V14.01,2013-05-13 01:12:00,
2013-05-12 21:13:00,48.7,27.3,29.44,NW,315,3.8,3.8,43,0.00,,,0.00,VWS V14.01,2013-05-13 01:13:00,
2013-05-12 21:14:00,48.7,26.7,29.44,NW,315,4.9,4.9,42,0.00,,,0.00,VWS V14.01,2013-05-13 01:14:00,
2013-05-12 21:15:00,48.7,26.7,29.44,North,0,9.4,9.4,42,0.00,,,0.00,VWS V14.01,2013-05-13 01:15:00,
2013-05-12 21:16:00,48.7,26.7,29.44,NNW,338,5.4,5.4,42,0.00,,,0.00,VWS V14.01,2013-05-13 01:16:00,
2013-05-12 21:17:00,48.7,26.7,29.44,NW,315,5.8,5.8,42,0.00,,,0.00,VWS V14.01,2013-05-13 01:17:00,
2013-05-12 21:18:00,48.6,26.5,29.44,NW,315,3.6,3.6,42,0.00,,,0.00,VWS V14.01,2013-05-13 01:18:00,
2013-05-12 21:19:00,48.6,26.5,29.44,NW,315,6.5,6.5,42,0.00,,,0.00,VWS V14.01,2013-05-13 01:19:00,
2013-05-12 21:20:00,48.6,26.5,29.44,WNW,292,4.3,4.3,42,0.00,,,0.00,VWS V14.01,2013-05-13 01:20:00,
2013-05-12 21:21:00,48.6,26.5,29.44,NW,315,3.6,3.6,42,0.00,,,0.00,VWS V14.01,2013-05-13 01:21:00,
2013-05-12 21:22:00,48.6,26.5,29.44,WNW,292,3.6,3.6,42,0.00,,,0.00,VWS V14.01,2013-05-13 01:22:00,
2013-05-12 21:23:00,48.6,26.5,29.44,WNW,292,3.6,3.6,42,0.00,,,0.00,VWS V14.01,2013-05-13 01:23:00,
2013-05-12 21:24:00,48.6,26.5,29.44,NW,315,5.8,5.8,42,0.00,,,0.00,VWS V14.01,2013-05-13 01:24:00,
2013-05-12 21:25:00,48.4,26.4,29.44,WNW,292,4.0,4.0,42,0.00,,,0.00,VWS V14.01,2013-05-13 01:25:00,
2013-05-12 21:26:00,48.4,26.4,29.44,WNW,292,6.3,6.3,42,0.00,,,0.00,VWS V14.01,2013-05-13 01:26:00,
2013-05-12 21:27:00,48.4,25.8,29.44,WNW,292,5.8,5.8,41,0.00,,,0.00,VWS V14.01,2013-05-13 01:27:00,
2013-05-12 21:28:00,48.4,25.8,29.44,WNW,292,4.0,4.0,41,0.00,,,0.00,VWS V14.01,2013-05-13 01:28:00,
2013-05-12 21:29:00,48.4,26.4,29.44,West,270,4.0,4.0,42,0.00,,,0.00,VWS V14.01,2013-05-13 01:29:00,
2013-05-12 21:30:00,48.4,26.4,29.47,WNW,292,3.4,3.4,42,0.00,,,0.00,VWS V14.01,2013-05-13 01:30:00,
2013-05-12 21:31:00,48.4,26.4,29.47,NW,315,2.0,2.0,42,0.00,,,0.00,VWS V14.01,2013-05-13 01:31:00,
2013-05-12 21:32:00,48.4,26.4,29.47,West,270,2.5,2.5,42,0.00,,,0.00,VWS V14.01,2013-05-13 01:32:00,
2013-05-12 21:33:00,48.4,26.4,29.47,WNW,292,4.3,4.3,42,0.00,,,0.00,VWS V14.01,2013-05-13 01:33:00,
2013-05-12 21:34:00,48.2,26.2,29.47,WNW,292,6.3,6.3,42,0.00,,,0.00,VWS V14.01,2013-05-13 01:34:00,
2013-05-12 21:35:00,48.2,26.2,29.47,WNW,292,4.3,4.3,42,0.00,,,0.00,VWS V14.01,2013-05-13 01:35:00,
2013-05-12 21:36:00,48.2,26.2,29.47,SSW,202,3.1,3.1,42,0.00,,,0.00,VWS V14.01,2013-05-13 01:36:00,
2013-05-12 21:37:00,48.2,25.6,29.47,WNW,292,5.6,5.6,41,0.00,,,0.00,VWS V14.01,2013-05-13 01:37:00,
2013-05-12 21:38:00,48.2,25.6,29.47,West,270,7.4,7.4,41,0.00,,,0.00,VWS V14.01,2013-05-13 01:38:00,
2013-05-12 21:39:00,48.0,25.5,29.47,WNW,292,5.4,5.4,41,0.00,,,0.00,VWS V14.01,2013-05-13 01:39:00,
2013-05-12 21:40:00,48.0,26.0,29.47,WNW,292,5.8,5.8,42,0.00,,,0.00,VWS V14.01,2013-05-13 01:40:00,
2013-05-12 21:41:00,48.0,26.0,29.47,WNW,292,3.6,3.6,42,0.00,,,0.00,VWS V14.01,2013-05-13 01:41:00,
2013-05-12 21:42:00,48.0,26.0,29.47,West,270,3.4,3.4,42,0.00,,,0.00,VWS V14.01,2013-05-13 01:42:00,
2013-05-12 21:43:00,48.0,26.0,29.47,NW,315,4.9,4.9,42,0.00,,,0.00,VWS V14.01,2013-05-13 01:43:00,
2013-05-12 21:44:00,48.0,26.0,29.47,West,270,4.9,4.9,42,0.00,,,0.00,VWS V14.01,2013-05-13 01:44:00,
2013-05-12 21:45:00,48.0,26.0,29.47,NW,315,5.6,5.6,42,0.00,,,0.00,VWS V14.01,2013-05-13 01:45:00,
2013-05-12 21:46:00,47.8,25.9,29.47,West,270,7.6,7.6,42,0.00,,,0.00,VWS V14.01,2013-05-13 01:46:00,
2013-05-12 21:47:00,47.8,25.3,29.47,NW,315,5.4,5.4,41,0.00,,,0.00,VWS V14.01,2013-05-13 01:47:00,
2013-05-12 21:48:00,47.8,25.3,29.47,WSW,248,4.7,4.7,41,0.00,,,0.00,VWS V14.01,2013-05-13 01:48:00,
2013-05-12 21:49:00,47.8,25.9,29.47,WNW,292,4.3,4.3,42,0.00,,,0.00,VWS V14.01,2013-05-13 01:49:00,
2013-05-12 21:50:00,47.8,25.9,29.47,WSW,248,2.7,2.7,42,0.00,,,0.00,VWS V14.01,2013-05-13 01:50:00,
2013-05-12 21:51:00,47.8,25.9,29.47,West,270,2.5,2.5,42,0.00,,,0.00,VWS V14.01,2013-05-13 01:51:00,
2013-05-12 21:52:00,47.8,25.9,29.47,WNW,292,4.9,4.9,42,0.00,,,0.00,VWS V14.01,2013-05-13 01:52:00,
2013-05-12 21:53:00,47.8,25.9,29.47,WSW,248,3.4,3.4,42,0.00,,,0.00,VWS V14.01,2013-05-13 01:53:00,
2013-05-12 21:54:00,47.8,25.9,29.47,West,270,5.6,5.6,42,0.00,,,0.00,VWS V14.01,2013-05-13 01:54:00,
2013-05-12 21:55:00,47.8,25.9,29.47,West,270,4.0,4.0,42,0.00,,,0.00,VWS V14.01,2013-05-13 01:55:00,
2013-05-12 21:56:00,47.8,25.9,29.47,West,270,4.9,4.9,42,0.00,,,0.00,VWS V14.01,2013-05-13 01:56:00,
2013-05-12 21:57:00,47.7,25.7,29.47,West,270,3.8,3.8,42,0.00,,,0.00,VWS V14.01,2013-05-13 01:57:00,
2013-05-12 21:58:00,47.7,25.7,29.47,WSW,248,5.8,5.8,42,0.00,,,0.00,VWS V14.01,2013-05-13 01:58:00,
2013-05-12 21:59:00,47.7,25.7,29.47,WSW,248,1.3,1.3,42,0.00,,,0.00,VWS V14.01,2013-05-13 01:59:00,
2013-05-12 22:00:00,47.7,25.7,29.47,WSW,248,4.9,4.9,42,0.00,,,0.00,VWS V14.01,2013-05-13 02:00:00,
2013-05-12 22:01:00,47.7,25.7,29.47,WSW,248,5.4,5.4,42,0.00,,,0.00,VWS V14.01,2013-05-13 02:01:00,
2013-05-12 22:02:00,47.7,25.7,29.47,SW,225,2.5,2.5,42,0.00,,,0.00,VWS V14.01,2013-05-13 02:02:00,
2013-05-12 22:03:00,47.5,25.5,29.47,SSW,202,1.1,1.1,42,0.00,,,0.00,VWS V14.01,2013-05-13 02:03:00,
2013-05-12 22:04:00,47.5,25.5,29.47,West,270,1.6,1.6,42,0.00,,,0.00,VWS V14.01,2013-05-13 02:04:00,
2013-05-12 22:05:00,47.5,26.1,29.47,WSW,248,1.1,1.1,43,0.00,,,0.00,VWS V14.01,2013-05-13 02:05:00,
2013-05-12 22:06:00,47.5,26.1,29.47,SSW,202,0.0,0.0,43,0.00,,,0.00,VWS V14.01,2013-05-13 02:06:00,
2013-05-12 22:07:00,47.5,26.1,29.47,South,180,1.1,1.1,43,0.00,,,0.00,VWS V14.01,2013-05-13 02:07:00,
2013-05-12 22:08:00,47.3,26.0,29.47,SSW,202,0.0,0.0,43,0.00,,,0.00,VWS V14.01,2013-05-13 02:08:00,
2013-05-12 22:09:00,47.3,26.0,29.47,SSW,202,0.0,0.0,43,0.00,,,0.00,VWS V14.01,2013-05-13 02:09:00,
2013-05-12 22:10:00,47.3,26.5,29.47,WSW,248,0.0,0.0,44,0.00,,,0.00,VWS V14.01,2013-05-13 02:10:00,
2013-05-12 22:11:00,47.3,27.0,29.47,SSW,202,1.3,1.3,45,0.00,,,0.00,VWS V14.01,2013-05-13 02:11:00,
2013-05-12 22:12:00,47.1,26.9,29.47,SSW,202,1.1,1.1,45,0.00,,,0.00,VWS V14.01,2013-05-13 02:12:00,
2013-05-12 22:13:00,47.1,26.9,29.47,WSW,248,0.9,0.9,45,0.00,,,0.00,VWS V14.01,2013-05-13 02:13:00,
2013-05-12 22:14:00,47.1,26.9,29.47,SW,225,1.6,1.6,45,0.00,,,0.00,VWS V14.01,2013-05-13 02:14:00,
2013-05-12 22:15:00,47.1,26.3,29.47,SW,225,0.9,0.9,44,0.00,,,0.00,VWS V14.01,2013-05-13 02:15:00,
2013-05-12 22:16:00,46.9,26.7,29.47,SW,225,1.1,1.1,45,0.00,,,0.00,VWS V14.01,2013-05-13 02:16:00,
2013-05-12 22:17:00,46.9,26.2,29.47,SSW,202,1.1,1.1,44,0.00,,,0.00,VWS V14.01,2013-05-13 02:17:00,
2013-05-12 22:18:00,46.9,26.7,29.47,West,270,0.0,0.0,45,0.00,,,0.00,VWS V14.01,2013-05-13 02:18:00,
2013-05-12 22:19:00,46.9,26.7,29.47,WSW,248,2.0,2.0,45,0.00,,,0.00,VWS V14.01,2013-05-13 02:19:00,
2013-05-12 22:20:00,46.8,26.6,29.47,WSW,248,2.5,2.5,45,0.00,,,0.00,VWS V14.01,2013-05-13 02:20:00,
2013-05-12 22:21:00,46.8,26.6,29.47,WSW,248,2.5,2.5,45,0.00,,,0.00,VWS V14.01,2013-05-13 02:21:00,
2013-05-12 22:22:00,46.8,26.6,29.47,WSW,248,2.7,2.7,45,0.00,,,0.00,VWS V14.01,2013-05-13 02:22:00,
2013-05-12 22:23:00,46.8,26.6,29.47,WSW,248,1.6,1.6,45,0.00,,,0.00,VWS V14.01,2013-05-13 02:23:00,
2013-05-12 22:24:00,46.6,26.4,29.47,WSW,248,2.9,2.9,45,0.00,,,0.00,VWS V14.01,2013-05-13 02:24:00,
2013-05-12 22:25:00,46.6,26.4,29.47,WSW,248,2.7,2.7,45,0.00,,,0.00,VWS V14.01,2013-05-13 02:25:00,
2013-05-12 22:26:00,46.6,26.4,29.47,SW,225,3.1,3.1,45,0.00,,,0.00,VWS V14.01,2013-05-13 02:26:00,
2013-05-12 22:27:00,46.6,26.4,29.47,SW,225,3.1,3.1,45,0.00,,,0.00,VWS V14.01,2013-05-13 02:27:00,
2013-05-12 22:28:00,46.6,26.4,29.47,West,270,3.4,3.4,45,0.00,,,0.00,VWS V14.01,2013-05-13 02:28:00,
2013-05-12 22:29:00,46.4,26.2,29.47,WSW,248,2.0,2.0,45,0.00,,,0.00,VWS V14.01,2013-05-13 02:29:00,
2013-05-12 22:30:00,46.4,26.2,29.47,WSW,248,1.6,1.6,45,0.00,,,0.00,VWS V14.01,2013-05-13 02:30:00,
2013-05-12 22:31:00,46.4,26.2,29.47,West,270,1.6,1.6,45,0.00,,,0.00,VWS V14.01,2013-05-13 02:31:00,
2013-05-12 22:32:00,46.4,26.2,29.47,WSW,248,1.6,1.6,45,0.00,,,0.00,VWS V14.01,2013-05-13 02:32:00,
2013-05-12 22:33:00,46.4,26.2,29.47,WNW,292,0.0,0.0,45,0.00,,,0.00,VWS V14.01,2013-05-13 02:33:00,
2013-05-12 22:34:00,46.4,26.8,29.47,WNW,292,0.0,0.0,46,0.00,,,0.00,VWS V14.01,2013-05-13 02:34:00,
2013-05-12 22:35:00,46.4,26.8,29.47,WSW,248,0.0,0.0,46,0.00,,,0.00,VWS V14.01,2013-05-13 02:35:00,
2013-05-12 22:36:00,46.4,26.8,29.47,WSW,248,0.0,0.0,46,0.00,,,0.00,VWS V14.01,2013-05-13 02:36:00,
2013-05-12 22:37:00,46.2,26.6,29.47,WSW,248,0.0,0.0,46,0.00,,,0.00,VWS V14.01,2013-05-13 02:37:00,
2013-05-12 22:38:00,46.2,27.1,29.47,WSW,248,0.0,0.0,47,0.00,,,0.00,VWS V14.01,2013-05-13 02:38:00,
2013-05-12 22:39:00,46.2,27.1,29.47,WSW,248,0.0,0.0,47,0.00,,,0.00,VWS V14.01,2013-05-13 02:39:00,
2013-05-12 22:40:00,46.0,27.0,29.47,SW,225,1.1,1.1,47,0.00,,,0.00,VWS V14.01,2013-05-13 02:40:00,
2013-05-12 22:41:00,46.0,27.0,29.47,South,180,0.0,0.0,47,0.00,,,0.00,VWS V14.01,2013-05-13 02:41:00,
2013-05-12 22:42:00,46.0,27.0,29.47,WSW,248,1.1,1.1,47,0.00,,,0.00,VWS V14.01,2013-05-13 02:42:00,
2013-05-12 22:43:00,45.9,26.8,29.47,SSW,202,4.0,4.0,47,0.00,,,0.00,VWS V14.01,2013-05-13 02:43:00,
2013-05-12 22:44:00,45.9,27.3,29.47,WSW,248,2.2,2.2,48,0.00,,,0.00,VWS V14.01,2013-05-13 02:44:00,
2013-05-12 22:45:00,45.9,27.3,29.47,WSW,248,1.3,1.3,48,0.00,,,0.00,VWS V14.01,2013-05-13 02:45:00,
2013-05-12 22:46:00,45.7,27.1,29.47,SW,225,0.0,0.0,48,0.00,,,0.00,VWS V14.01,2013-05-13 02:46:00,
2013-05-12 22:47:00,45.7,27.1,29.47,West,270,1.1,1.1,48,0.00,,,0.00,VWS V14.01,2013-05-13 02:47:00,
2013-05-12 22:48:00,45.5,27.0,29.47,WSW,248,0.0,0.0,48,0.00,,,0.00,VWS V14.01,2013-05-13 02:48:00,
2013-05-12 22:49:00,45.5,27.0,29.47,WSW,248,1.6,1.6,48,0.00,,,0.00,VWS V14.01,2013-05-13 02:49:00,
2013-05-12 22:50:00,45.5,27.0,29.47,SW,225,2.0,2.0,48,0.00,,,0.00,VWS V14.01,2013-05-13 02:50:00,
2013-05-12 22:51:00,45.5,27.0,29.47,WSW,248,6.0,6.0,48,0.00,,,0.00,VWS V14.01,2013-05-13 02:51:00,
2013-05-12 22:52:00,45.5,27.0,29.47,WSW,248,5.4,5.4,48,0.00,,,0.00,VWS V14.01,2013-05-13 02:52:00,
2013-05-12 22:53:00,45.3,26.8,29.47,SW,225,4.0,4.0,48,0.00,,,0.00,VWS V14.01,2013-05-13 02:53:00,
2013-05-12 22:54:00,45.3,26.8,29.47,WSW,248,3.6,3.6,48,0.00,,,0.00,VWS V14.01,2013-05-13 02:54:00,
2013-05-12 22:55:00,45.3,26.8,29.47,WSW,248,4.3,4.3,48,0.00,,,0.00,VWS V14.01,2013-05-13 02:55:00,
2013-05-12 22:56:00,45.3,26.8,29.47,WSW,248,4.0,4.0,48,0.00,,,0.00,VWS V14.01,2013-05-13 02:56:00,
2013-05-12 22:57:00,45.3,26.8,29.47,WSW,248,3.6,3.6,48,0.00,,,0.00,VWS V14.01,2013-05-13 02:57:00,
2013-05-12 22:58:00,45.3,26.8,29.47,WSW,248,3.6,3.6,48,0.00,,,0.00,VWS V14.01,2013-05-13 02:58:00,
2013-05-12 22:59:00,45.3,26.8,29.47,WSW,248,4.9,4.9,48,0.00,,,0.00,VWS V14.01,2013-05-13 02:59:00,
2013-05-12 23:00:00,45.3,26.3,29.47,WSW,248,4.9,4.9,47,0.00,,,0.00,VWS V14.01,2013-05-13 03:00:00,
2013-05-12 23:01:00,45.3,26.8,29.47,WSW,248,4.0,4.0,48,0.00,,,0.00,VWS V14.01,2013-05-13 03:01:00,
2013-05-12 23:02:00,45.3,26.8,29.47,West,270,4.0,4.0,48,0.00,,,0.00,VWS V14.01,2013-05-13 03:02:00,
2013-05-12 23:03:00,45.3,26.3,29.47,West,270,4.0,4.0,47,0.00,,,0.00,VWS V14.01,2013-05-13 03:03:00,
2013-05-12 23:04:00,45.3,26.3,29.47,West,270,4.3,4.3,47,0.00,,,0.00,VWS V14.01,2013-05-13 03:04:00,
2013-05-12 23:05:00,45.5,26.5,29.47,WNW,292,3.8,3.8,47,0.00,,,0.00,VWS V14.01,2013-05-13 03:05:00,
2013-05-12 23:06:00,45.5,27.0,29.47,WNW,292,4.9,4.9,48,0.00,,,0.00,VWS V14.01,2013-05-13 03:06:00,
2013-05-12 23:07:00,45.5,27.0,29.47,WSW,248,5.6,5.6,48,0.00,,,0.00,VWS V14.01,2013-05-13 03:07:00,
2013-05-12 23:08:00,45.5,26.5,29.47,WSW,248,4.9,4.9,47,0.00,,,0.00,VWS V14.01,2013-05-13 03:08:00,
2013-05-12 23:09:00,45.5,26.5,29.47,West,270,5.4,5.4,47,0.00,,,0.00,VWS V14.01,2013-05-13 03:09:00,
2013-05-12 23:10:00,45.5,26.5,29.47,SW,225,6.3,6.3,47,0.00,,,0.00,VWS V14.01,2013-05-13 03:10:00,
2013-05-12 23:11:00,45.5,26.5,29.47,West,270,4.3,4.3,47,0.00,,,0.00,VWS V14.01,2013-05-13 03:11:00,
2013-05-12 23:12:00,45.5,26.5,29.47,WSW,248,4.3,4.3,47,0.00,,,0.00,VWS V14.01,2013-05-13 03:12:00,
2013-05-12 23:13:00,45.5,26.5,29.47,WSW,248,5.8,5.8,47,0.00,,,0.00,VWS V14.01,2013-05-13 03:13:00,
2013-05-12 23:14:00,45.5,26.5,29.47,WSW,248,4.7,4.7,47,0.00,,,0.00,VWS V14.01,2013-05-13 03:14:00,
2013-05-12 23:15:00,45.5,26.5,29.47,WSW,248,4.9,4.9,47,0.00,,,0.00,VWS V14.01,2013-05-13 03:15:00,
2013-05-12 23:16:00,45.5,27.0,29.47,West,270,5.8,5.8,48,0.00,,,0.00,VWS V14.01,2013-05-13 03:16:00,
2013-05-12 23:17:00,45.5,26.5,29.47,West,270,4.3,4.3,47,0.00,,,0.00,VWS V14.01,2013-05-13 03:17:00,
2013-05-12 23:18:00,45.5,26.5,29.47,West,270,5.6,5.6,47,0.00,,,0.00,VWS V14.01,2013-05-13 03:18:00,
2013-05-12 23:19:00,45.5,26.5,29.47,West,270,4.7,4.7,47,0.00,,,0.00,VWS V14.01,2013-05-13 03:19:00,
2013-05-12 23:20:00,45.5,26.5,29.47,West,270,3.4,3.4,47,0.00,,,0.00,VWS V14.01,2013-05-13 03:20:00,
2013-05-12 23:21:00,45.5,26.5,29.47,West,270,4.0,4.0,47,0.00,,,0.00,VWS V14.01,2013-05-13 03:21:00,
2013-05-12 23:22:00,45.5,26.5,29.47,WSW,248,6.0,6.0,47,0.00,,,0.00,VWS V14.01,2013-05-13 03:22:00,
2013-05-12 23:23:00,45.5,26.5,29.47,WNW,292,5.6,5.6,47,0.00,,,0.00,VWS V14.01,2013-05-13 03:23:00,
2013-05-12 23:24:00,45.5,26.5,29.47,West,270,6.5,6.5,47,0.00,,,0.00,VWS V14.01,2013-05-13 03:24:00,
2013-05-12 23:25:00,45.5,26.5,29.47,West,270,3.4,3.4,47,0.00,,,0.00,VWS V14.01,2013-05-13 03:25:00,
2013-05-12 23:26:00,45.5,26.5,29.47,WSW,248,3.8,3.8,47,0.00,,,0.00,VWS V14.01,2013-05-13 03:26:00,
2013-05-12 23:27:00,45.5,26.5,29.47,WSW,248,5.8,5.8,47,0.00,,,0.00,VWS V14.01,2013-05-13 03:27:00,
2013-05-12 23:28:00,45.5,26.5,29.47,WNW,292,2.0,2.0,47,0.00,,,0.00,VWS V14.01,2013-05-13 03:28:00,
2013-05-12 23:29:00,45.5,26.5,29.47,West,270,5.4,5.4,47,0.00,,,0.00,VWS V14.01,2013-05-13 03:29:00,
2013-05-12 23:30:00,45.5,26.5,29.47,West,270,3.4,3.4,47,0.00,,,0.00,VWS V14.01,2013-05-13 03:30:00,
2013-05-12 23:31:00,45.5,26.5,29.47,WSW,248,3.4,3.4,47,0.00,,,0.00,VWS V14.01,2013-05-13 03:31:00,
2013-05-12 23:32:00,45.5,26.5,29.47,WSW,248,3.4,3.4,47,0.00,,,0.00,VWS V14.01,2013-05-13 03:32:00,
2013-05-12 23:33:00,45.5,26.5,29.47,WSW,248,2.0,2.0,47,0.00,,,0.00,VWS V14.01,2013-05-13 03:33:00,
2013-05-12 23:34:00,45.5,26.5,29.47,WNW,292,3.6,3.6,47,0.00,,,0.00,VWS V14.01,2013-05-13 03:34:00,
2013-05-12 23:35:00,45.5,26.5,29.47,WSW,248,6.3,6.3,47,0.00,,,0.00,VWS V14.01,2013-05-13 03:35:00,
2013-05-12 23:36:00,45.5,26.5,29.47,SW,225,3.8,3.8,47,0.00,,,0.00,VWS V14.01,2013-05-13 03:36:00,
2013-05-12 23:37:00,45.5,26.5,29.47,WSW,248,4.3,4.3,47,0.00,,,0.00,VWS V14.01,2013-05-13 03:37:00,
2013-05-12 23:38:00,45.5,26.5,29.47,WSW,248,4.0,4.0,47,0.00,,,0.00,VWS V14.01,2013-05-13 03:38:00,
2013-05-12 23:39:00,45.5,26.5,29.47,West,270,6.3,6.3,47,0.00,,,0.00,VWS V14.01,2013-05-13 03:39:00,
2013-05-12 23:40:00,45.5,26.5,29.47,WSW,248,4.3,4.3,47,0.00,,,0.00,VWS V14.01,2013-05-13 03:40:00,
2013-05-12 23:41:00,45.5,26.5,29.47,West,270,3.8,3.8,47,0.00,,,0.00,VWS V14.01,2013-05-13 03:41:00,
2013-05-12 23:42:00,45.5,26.5,29.47,WSW,248,2.7,2.7,47,0.00,,,0.00,VWS V14.01,2013-05-13 03:42:00,
2013-05-12 23:43:00,45.5,26.5,29.47,West,270,2.9,2.9,47,0.00,,,0.00,VWS V14.01,2013-05-13 03:43:00,
2013-05-12 23:44:00,45.5,26.5,29.47,WSW,248,2.0,2.0,47,0.00,,,0.00,VWS V14.01,2013-05-13 03:44:00,
2013-05-12 23:45:00,45.3,26.8,29.50,WSW,248,2.0,2.0,48,0.00,,,0.00,VWS V14.01,2013-05-13 03:45:00,
2013-05-12 23:46:00,45.3,26.8,29.50,WSW,248,0.0,0.0,48,0.00,,,0.00,VWS V14.01,2013-05-13 03:46:00,
2013-05-12 23:47:00,45.3,26.8,29.50,WSW,248,0.0,0.0,48,0.00,,,0.00,VWS V14.01,2013-05-13 03:47:00,
2013-05-12 23:48:00,45.3,26.8,29.50,WSW,248,0.0,0.0,48,0.00,,,0.00,VWS V14.01,2013-05-13 03:48:00,
2013-05-12 23:49:00,45.1,26.6,29.50,WSW,248,0.0,0.0,48,0.00,,,0.00,VWS V14.01,2013-05-13 03:49:00,
2013-05-12 23:50:00,45.1,27.1,29.50,WSW,248,0.0,0.0,49,0.00,,,0.00,VWS V14.01,2013-05-13 03:50:00,
2013-05-12 23:51:00,45.1,27.1,29.50,WSW,248,0.0,0.0,49,0.00,,,0.00,VWS V14.01,2013-05-13 03:51:00,
2013-05-12 23:52:00,45.0,27.0,29.50,South,180,2.0,2.0,49,0.00,,,0.00,VWS V14.01,2013-05-13 03:52:00,
2013-05-12 23:53:00,45.0,27.0,29.50,SSE,158,2.0,2.0,49,0.00,,,0.00,VWS V14.01,2013-05-13 03:53:00,
2013-05-12 23:54:00,44.8,27.3,29.50,South,180,2.2,2.2,50,0.00,,,0.00,VWS V14.01,2013-05-13 03:54:00,
2013-05-12 23:55:00,44.8,27.3,29.50,South,180,1.6,1.6,50,0.00,,,0.00,VWS V14.01,2013-05-13 03:55:00,
2013-05-12 23:56:00,44.6,27.6,29.50,SSW,202,1.1,1.1,51,0.00,,,0.00,VWS V14.01,2013-05-13 03:56:00,
2013-05-12 23:57:00,44.6,27.6,29.50,SSW,202,0.0,0.0,51,0.00,,,0.00,VWS V14.01,2013-05-13 03:57:00,
2013-05-12 23:58:00,44.4,27.9,29.50,South,180,0.0,0.0,52,0.00,,,0.00,VWS V14.01,2013-05-13 03:58:00,
2013-05-12 23:59:00,44.4,27.9,29.50,South,180,0.9,0.9,52,0.00,,,0.00,VWS V14.01,2013-05-13 03:59:00,